GFSMW_sfc_dewp_000.txt.gz
Dewpoint
31 33 35 36 41 45 47 48 49 53 56 58 59 59 59 59 59 60 60 59 59 58 58 58 58 58 55 55 55 55 54 54 54 52 52 52 52 51 51 49 46 44 44
24 25 28 33 36 39 45 49 50 51 54 56 58 58 57 58 58 60 60 60 60 59 59 59 59 58 58 57 56 55 54 54 54 52 51 49 48 49 49 48 46 45 43
25 25 27 31 37 40 41 43 47 50 52 56 56 57 57 58 58 58 59 60 60 60 61 60 60 59 59 58 58 57 57 55 55 54 52 49 46 46 46 46 44 44 45
28 29 31 33 36 39 43 44 45 47 49 53 55 56 56 55 55 55 58 59 60 60 61 61 61 60 60 59 59 58 58 57 55 55 52 54 51 48 46 48 48 48 46
34 34 35 35 36 41 42 43 41 41 44 48 53 54 55 54 54 54 55 57 58 60 60 61 61 60 60 60 59 59 58 57 56 55 53 50 50 49 48 48 49 49 49
35 34 36 36 37 41 43 44 42 41 43 45 47 52 53 54 53 54 55 55 56 57 59 60 60 60 60 60 60 60 59 57 56 55 54 53 51 50 46 46 48 49 49
36 35 34 36 37 39 40 39 40 41 46 50 51 51 53 54 55 54 54 55 56 57 58 59 59 59 59 59 59 60 60 58 56 55 54 54 54 54 50 49 49 48 48
35 35 34 36 37 38 38 37 37 37 40 46 50 53 55 55 55 55 55 55 56 57 58 58 58 58 58 58 58 60 60 59 57 56 55 55 54 55 54 51 50 50 49
35 34 34 36 38 38 39 39 38 38 38 39 41 45 50 54 55 55 56 56 57 56 57 58 58 58 58 58 58 59 58 58 57 56 55 55 55 56 55 55 53 52 50
34 33 35 37 38 39 39 40 39 39 39 38 39 40 42 44 48 51 52 54 55 55 56 57 58 58 58 58 58 58 58 58 58 57 56 56 55 56 56 55 54 53 52
34 36 37 38 39 40 41 41 41 41 41 40 39 40 41 42 43 44 46 48 49 51 52 53 55 56 56 57 57 57 57 57 58 57 57 57 56 56 55 54 53 52 51
37 38 38 39 39 40 40 41 41 41 41 41 41 41 41 41 41 41 43 44 45 47 48 50 52 53 55 56 56 56 57 57 57 57 57 56 56 56 56 55 53 52 52
39 39 39 39 39 40 39 39 40 41 41 41 41 41 42 42 42 41 41 41 42 44 46 48 50 52 53 55 56 56 56 56 57 57 57 57 56 56 56 56 54 54 52
38 39 40 41 40 40 39 39 39 40 42 42 42 42 42 42 42 42 43 42 41 42 43 44 46 49 51 53 55 55 57 57 57 57 57 57 56 56 56 56 55 54 53
38 37 36 36 37 39 40 40 40 41 43 43 42 42 43 43 43 43 43 43 43 43 43 43 44 47 49 52 54 56 57 57 57 57 57 57 55 53 55 55 55 54 54
34 36 37 38 38 43 44 44 43 43 45 44 43 44 44 44 45 45 44 44 44 44 44 43 43 44 47 50 52 54 56 57 57 56 56 57 52 53 53 53 53 55 54
35 37 39 41 44 46 43 42 44 44 43 42 43 43 42 42 43 43 44 44 45 44 43 43 43 43 45 49 52 52 55 56 56 56 56 56 56 53 55 53 53 53 52
36 39 42 45 46 41 40 40 39 39 40 41 39 39 39 38 39 40 40 41 42 42 42 43 43 44 44 47 50 51 54 55 55 56 56 56 56 55 55 54 52 51 48
42 45 43 40 39 37 36 35 35 35 37 37 36 35 35 36 37 37 38 38 39 40 41 42 43 43 44 45 48 50 53 54 54 55 55 56 56 54 52 52 47 41 37
41 39 38 36 34 34 32 32 34 34 34 34 35 34 33 34 34 35 36 37 38 38 40 41 42 43 43 45 47 49 51 52 53 54 55 52 55 52 51 50 44 40 36
38 35 33 32 31 29 26 26 28 27 27 27 27 29 28 28 27 31 33 35 36 37 38 39 40 42 43 44 47 49 49 50 51 52 53 54 51 50 49 49 45 43 37
34 31 30 29 28 27 26 24 24 25 26 25 25 24 23 24 25 25 28 32 34 35 35 36 39 40 41 44 44 47 48 49 51 52 52 51 48 47 47 46 45 41 39
30 29 27 24 24 23 21 18 18 19 21 21 21 20 18 20 22 20 20 29 30 30 29 33 37 38 41 42 43 44 47 46 48 51 51 48 46 46 45 45 43 39 32
23 24 21 17 15 12 13 13 14 16 19 17 17 17 14 18 19 19 17 21 22 28 29 31 33 37 39 41 42 41 41 43 46 46 46 45 45 44 41 40 38 33 31
19 19 14 12 10 11 12 12 13 15 16 16 15 16 16 16 19 18 15 17 21 29 33 34 34 35 36 38 41 41 41 42 44 42 43 42 39 38 38 34 32 31 29
17 13 12 10 10 11 12 13 14 15 14 14 15 17 17 16 20 15 13 26 32 36 35 36 37 35 37 40 41 41 43 44 45 41 40 37 36 36 33 31 31 29 26

GFSMW_sfc_dewp_003.txt.gz
Dewpoint
26 26 30 34 36 37 41 44 45 48 53 56 57 58 59 59 59 60 59 59 58 58 59 58 58 58 57 55 55 56 55 55 55 53 53 53 52 51 52 52 51 50 47
25 28 30 31 31 33 37 41 45 47 48 54 56 57 57 57 58 60 60 59 59 59 59 59 59 59 59 58 56 56 56 56 55 53 53 50 50 51 51 52 51 51 50
31 31 32 35 39 39 39 39 41 47 49 53 54 56 57 59 58 58 59 59 59 60 60 60 60 60 60 60 59 58 57 56 56 55 53 49 48 48 51 50 48 47 46
33 35 36 37 39 43 44 43 43 44 47 51 53 55 56 57 57 57 58 59 59 60 60 60 61 61 61 61 60 59 58 58 56 57 54 54 52 49 47 50 49 47 46
35 35 38 39 40 46 47 46 43 41 43 46 50 54 55 56 57 55 54 55 57 59 60 60 61 61 61 61 61 60 60 59 58 57 56 54 54 53 51 49 49 50 50
35 35 39 40 41 46 46 46 43 43 46 48 46 47 52 53 53 54 53 54 55 57 59 60 61 62 62 62 61 61 61 59 59 58 57 54 52 51 50 49 49 49 49
36 35 38 40 41 43 45 42 41 39 40 43 49 51 51 52 53 54 54 54 54 56 57 59 59 60 61 62 62 61 62 61 60 59 58 57 55 54 52 50 49 48 49
35 36 39 41 41 42 42 41 41 40 40 40 41 42 48 52 53 54 54 55 55 56 57 58 58 59 60 60 61 61 61 61 61 60 58 57 56 55 54 52 50 49 50
35 36 39 40 40 41 42 43 42 42 42 41 40 40 40 42 45 48 51 53 54 55 56 58 58 59 59 59 59 59 59 60 60 60 59 57 56 56 55 55 54 51 49
35 37 38 40 40 42 42 43 42 41 42 42 42 41 41 41 42 42 43 45 47 49 51 53 55 57 58 58 58 58 58 58 59 59 58 57 57 56 56 55 55 55 53
36 38 39 40 41 41 41 40 41 42 42 42 41 42 42 42 42 41 41 42 42 43 45 46 48 50 52 55 56 57 58 58 58 58 58 57 57 56 56 56 56 55 55
38 39 39 39 39 40 40 40 40 40 42 42 42 42 42 42 42 42 42 42 42 42 42 43 44 46 48 51 53 54 55 56 57 57 57 57 57 57 56 56 56 55 55
38 38 39 40 40 40 39 39 39 40 41 42 42 42 43 44 44 43 43 43 43 42 42 43 43 44 46 48 51 52 54 55 56 57 57 57 57 56 56 56 56 55 55
37 37 37 36 36 37 40 41 41 41 43 43 44 43 43 44 44 44 45 45 45 45 45 45 44 44 44 46 48 50 53 54 55 56 56 56 57 56 56 56 56 55 54
37 36 35 35 34 35 40 43 44 44 44 43 43 43 44 44 43 44 44 44 45 45 46 46 46 45 45 44 46 49 51 52 53 55 56 56 54 53 55 56 56 56 55
34 34 35 35 36 40 44 43 43 41 41 40 41 42 41 41 42 41 41 42 42 43 44 45 45 45 45 46 48 50 49 50 52 53 54 55 52 53 53 53 53 55 55
35 34 35 36 41 44 43 41 39 36 36 36 38 37 37 37 38 39 39 40 40 40 41 41 42 43 45 47 48 48 48 48 50 51 53 53 55 53 56 54 53 53 53
34 36 39 43 42 41 38 36 35 35 35 35 35 35 36 35 36 36 36 37 37 38 38 39 41 43 43 46 47 47 47 48 49 50 52 53 53 53 55 55 55 53 54
39 40 40 39 38 36 33 30 29 30 30 30 29 28 28 30 31 31 30 31 33 35 37 38 40 40 42 45 46 46 46 47 48 49 50 51 53 52 52 54 53 51 46
38 38 36 33 32 30 28 27 26 26 26 26 27 26 27 27 26 27 28 29 29 33 35 36 37 39 39 43 46 45 44 44 46 48 48 48 51 52 52 53 52 44 39
35 34 32 30 29 27 26 25 23 21 20 20 22 23 23 23 22 23 26 25 24 28 32 32 32 32 33 37 43 44 43 43 44 45 45 48 49 51 51 51 52 47 39
33 30 28 26 23 22 20 16 12 12 13 15 18 20 20 19 16 18 20 21 20 23 26 27 29 30 29 36 39 42 44 43 41 41 42 45 47 48 49 50 51 47 41
27 24 23 18 13 11 9 9 9 10 11 12 13 14 15 15 15 15 17 19 18 18 18 22 24 25 28 30 37 39 40 40 40 41 42 44 45 46 48 49 46 42 37
19 16 15 9 7 7 8 8 9 10 10 10 12 12 12 13 14 15 16 17 15 16 20 22 26 28 28 31 31 32 33 37 38 40 41 43 44 46 46 44 42 37 36
14 15 11 8 7 7 7 8 9 10 11 12 12 12 13 14 14 14 13 15 15 21 22 25 28 27 29 31 36 36 34 35 38 41 42 42 40 38 37 38 33 33 34
12 10 10 8 8 9 9 10 11 12 13 12 14 16 15 14 16 15 13 24 27 29 30 32 30 29 34 36 37 36 37 38 41 42 42 39 37 37 37 33 32 32 32

GFSMW_sfc_dewp_006.txt.gz
Dewpoint
28 30 33 34 33 34 39 44 46 51 53 55 57 59 58 59 59 59 59 58 57 57 56 56 56 57 55 53 54 54 54 54 54 53 52 52 52 51 50 50 51 50 49
31 33 35 39 40 41 40 40 43 46 51 54 56 57 58 58 59 60 59 59 59 58 57 57 57 57 57 56 54 54 54 54 55 53 52 50 51 52 51 51 51 50 51
34 36 37 40 43 45 44 44 44 45 48 52 55 56 57 58 58 58 58 59 59 59 59 58 58 58 58 58 57 55 55 54 55 55 53 50 48 48 49 50 50 51 51
35 38 39 40 42 45 47 46 43 43 44 49 52 54 55 56 57 57 58 58 59 59 59 59 59 59 59 59 59 59 57 56 55 56 55 53 50 48 47 49 47 46 45
36 38 41 42 44 45 45 45 44 44 44 43 44 49 54 55 57 57 56 56 57 59 59 59 59 59 60 60 60 59 59 58 57 56 55 55 54 53 51 49 49 49 48
36 38 41 42 43 45 44 43 41 41 42 46 49 49 48 48 50 52 53 54 54 56 58 59 59 60 60 60 60 60 60 59 58 57 57 56 54 53 52 51 51 50 50
36 38 41 42 43 43 43 42 42 41 41 42 42 42 45 51 53 54 54 54 54 55 56 57 59 59 60 60 61 61 61 60 59 58 57 57 56 55 53 52 51 50 50
36 39 41 41 42 43 44 43 43 43 43 42 42 41 41 44 45 48 48 51 53 55 56 57 57 58 59 59 60 61 61 61 61 60 59 58 57 57 55 53 51 50 50
35 38 40 41 41 42 43 43 42 43 43 42 42 42 42 41 42 42 43 45 46 45 46 50 54 56 58 58 58 59 60 60 60 60 60 60 59 58 57 56 55 53 50
36 38 39 41 41 42 42 42 41 42 43 43 42 42 42 43 42 42 42 42 42 42 43 44 45 47 51 54 57 58 58 58 59 59 59 59 59 58 57 56 55 54 53
37 38 39 40 40 41 41 41 41 41 42 42 42 42 43 43 43 43 43 43 43 43 42 42 42 43 45 46 48 50 53 56 57 58 58 58 58 58 57 56 56 55 55
38 39 39 39 39 40 41 40 40 40 42 43 43 43 43 44 43 43 44 44 44 44 44 44 44 44 43 44 45 47 48 51 52 54 56 56 57 57 58 56 55 55 55
39 39 39 39 38 38 41 41 42 42 44 44 44 44 44 44 44 44 44 44 44 44 44 45 45 45 46 45 44 45 46 47 49 51 52 53 55 55 56 57 56 55 55
38 37 37 35 35 35 41 42 44 44 44 44 43 43 43 42 41 41 42 42 41 42 42 42 43 44 45 45 45 45 46 47 48 50 51 52 53 54 55 55 56 56 55
37 35 35 35 35 39 43 44 43 42 38 39 40 40 42 40 39 39 39 39 39 39 40 39 40 41 42 42 45 45 45 46 46 47 48 49 50 50 53 55 55 56 56
35 35 34 35 39 43 44 42 41 38 37 36 36 38 38 37 37 37 37 37 37 37 36 37 38 38 39 45 46 47 46 45 45 46 47 48 49 51 52 53 52 54 55
35 34 38 42 42 41 41 37 35 33 34 35 34 34 31 31 33 33 33 33 32 31 34 35 36 37 38 44 46 48 44 44 44 45 46 47 49 50 52 52 53 53 53
38 40 40 40 39 39 36 32 30 29 29 29 29 28 28 28 27 27 27 27 27 28 27 30 34 35 37 44 46 46 40 41 42 43 43 46 47 49 50 51 51 52 54
39 39 38 36 35 33 29 28 28 27 27 26 23 25 25 24 24 24 23 22 24 25 24 25 28 33 34 40 42 38 36 39 40 41 42 42 44 45 48 49 49 49 52
38 36 33 32 31 28 27 26 25 21 19 17 17 18 19 20 19 19 18 17 20 19 21 19 24 31 28 36 39 37 35 34 37 37 37 42 43 44 45 46 47 48 49
34 32 31 29 25 23 21 19 14 11 11 13 13 13 14 14 14 15 15 16 15 18 18 18 19 21 25 24 35 36 33 34 33 30 33 37 42 43 44 44 44 45 49
31 27 26 23 18 13 10 9 9 10 11 12 12 12 12 11 10 12 13 13 13 14 17 17 18 21 19 31 32 36 38 37 32 31 31 35 39 41 42 43 45 46 47
24 19 18 14 10 10 9 8 9 10 10 11 11 12 12 11 11 12 12 12 13 12 14 15 18 17 19 25 31 34 36 35 33 31 34 38 40 41 42 43 44 46 41
19 16 16 12 9 9 8 8 9 11 11 11 11 12 12 14 13 15 14 13 13 14 15 17 18 21 22 24 26 29 31 33 31 34 35 39 42 44 44 43 43 39 37
15 15 12 11 9 9 10 10 11 12 12 12 12 13 14 14 14 15 14 14 15 21 21 22 22 22 23 24 32 33 30 30 31 36 37 38 37 38 39 37 34 34 35
14 13 13 11 11 11 11 12 14 14 13 13 14 15 16 15 16 16 15 22 24 26 30 30 29 24 28 30 33 34 33 34 36 32 35 35 35 35 36 34 32 32 31

GFSMW_sfc_dewp_009.txt.gz
Dewpoint
33 36 39 42 43 43 43 41 43 50 51 56 57 57 57 58 59 59 58 58 57 56 55 55 56 56 55 53 52 53 53 53 53 52 52 52 52 51 50 50 49 49 47
36 37 40 42 44 45 44 44 43 44 50 53 56 58 59 59 59 59 60 59 59 58 57 56 56 56 56 56 54 53 53 53 54 52 51 50 51 52 52 52 50 49 50
36 38 39 41 43 44 44 45 42 42 45 51 56 56 57 57 58 58 58 59 59 59 59 58 57 57 57 56 56 55 54 53 54 54 53 51 49 47 49 51 52 51 51
37 39 40 42 43 43 42 42 42 44 45 45 49 53 54 54 56 57 57 58 59 59 59 59 59 58 58 57 57 57 56 55 54 55 55 54 50 49 48 49 49 50 50
38 40 41 42 43 43 42 41 41 41 42 43 47 48 48 51 54 54 54 54 55 57 59 59 59 59 59 59 58 58 58 58 57 56 55 55 54 53 52 50 50 49 48
37 40 42 42 42 43 42 43 42 42 42 42 41 42 42 47 50 52 52 53 54 55 55 58 59 59 59 59 59 60 60 59 59 59 57 56 54 53 53 52 51 50 51
37 40 41 41 42 43 43 43 43 42 42 42 41 41 41 42 43 44 47 46 50 53 51 54 54 57 59 60 60 60 60 61 60 60 59 59 57 56 55 53 52 51 51
38 39 40 41 42 42 42 42 42 42 42 42 42 42 42 43 43 43 43 44 45 45 46 45 47 49 51 57 60 61 61 61 61 61 61 60 59 58 57 56 54 52 51
38 39 40 41 41 41 42 42 41 42 43 42 42 42 43 43 43 43 43 44 44 43 43 43 43 43 44 46 51 55 58 59 59 59 60 60 60 60 59 58 57 55 51
37 39 40 41 41 42 41 41 41 42 42 43 43 43 43 44 44 44 43 44 44 45 45 44 44 44 44 44 45 46 48 50 53 56 57 57 58 59 59 59 58 57 55
37 38 39 40 40 40 41 40 41 42 43 44 44 44 44 44 44 43 44 44 44 44 44 44 44 44 45 45 45 45 45 45 47 50 51 53 55 56 56 57 57 57 56
38 39 39 39 39 40 41 42 43 44 44 44 44 43 44 43 43 42 42 41 42 42 42 42 42 41 42 43 44 45 45 45 45 47 49 50 51 52 53 55 55 56 56
39 39 39 37 36 41 43 43 44 43 42 41 42 41 42 41 40 40 38 38 38 38 39 40 39 39 40 40 42 42 44 43 45 45 46 47 48 49 50 51 53 54 54
38 38 35 35 38 43 43 43 41 39 37 38 38 37 40 38 37 36 36 36 36 36 37 35 34 37 39 38 40 40 40 42 45 45 46 46 47 47 48 49 50 51 52
36 35 35 40 43 43 42 40 38 36 36 36 36 35 36 32 31 33 33 33 33 34 32 29 33 32 34 36 38 40 43 44 44 44 43 44 46 46 48 49 50 51 51
34 36 42 42 41 40 39 36 34 32 32 32 30 32 30 29 29 29 29 29 29 28 28 28 28 28 34 38 43 45 39 37 35 36 40 42 44 44 48 49 50 51 50
39 41 40 39 39 38 34 30 29 29 29 28 29 26 26 26 26 25 25 25 24 22 22 28 23 27 26 37 42 44 31 31 32 37 37 39 40 39 41 44 46 47 49
38 38 37 35 35 32 29 28 28 28 26 27 20 21 21 21 21 21 20 20 19 18 20 18 19 21 20 37 41 39 28 29 30 35 35 37 32 35 40 42 42 42 44
38 35 33 32 31 28 27 26 25 23 21 17 15 15 16 15 16 16 15 15 15 17 14 15 17 17 19 35 35 31 28 27 29 32 34 29 30 36 40 38 39 39 40
34 33 32 31 26 24 23 20 18 12 12 13 14 14 14 13 13 12 11 12 14 13 14 12 14 23 19 30 32 28 28 27 29 32 31 33 31 36 38 36 37 37 38
32 30 29 26 22 18 13 10 10 9 11 13 14 13 13 12 12 11 11 12 13 13 13 13 13 16 19 18 26 28 25 27 30 30 31 30 33 36 38 40 40 40 41
29 25 23 19 14 10 9 8 8 10 11 13 13 13 12 12 12 12 13 13 14 13 12 13 16 16 17 24 26 29 30 31 29 29 30 29 35 36 39 41 43 44 44
24 18 16 14 11 10 9 8 9 11 12 12 12 13 13 13 13 14 14 14 14 14 14 16 18 20 21 21 28 29 30 32 28 28 31 35 35 37 38 38 40 41 40
18 16 15 12 11 10 10 10 11 12 13 12 13 13 13 15 15 16 15 15 15 16 17 19 21 22 22 23 24 25 29 29 28 30 30 33 33 36 36 36 37 35 35
16 15 13 12 11 11 11 11 12 14 14 13 13 14 15 15 15 15 15 16 17 21 21 22 22 22 23 23 27 29 25 27 28 30 30 28 28 31 32 34 34 35 34
16 14 14 12 12 11 12 13 15 16 15 13 14 15 16 15 16 16 15 22 24 26 26 26 25 23 26 28 28 28 29 29 29 27 25 25 28 30 31 32 32 33 32

GFSMW_sfc_dewp_012.txt.gz
Dewpoint
36 39 41 42 44 44 44 42 43 44 53 57 57 57 57 58 58 58 57 57 56 55 55 55 55 55 55 54 53 52 52 52 52 51 52 52 52 52 52 52 51 50 48
37 39 40 41 42 42 44 43 42 43 49 54 56 57 57 58 58 59 59 59 58 57 56 56 55 55 55 55 55 53 53 53 53 52 52 51 51 52 52 53 52 51 51
37 39 40 42 42 41 40 41 42 45 46 52 56 56 57 57 57 58 58 59 59 59 59 58 57 57 56 56 56 55 54 54 55 53 53 51 50 49 49 51 53 52 52
39 40 41 41 42 41 41 41 42 42 42 47 48 49 52 52 54 56 56 55 56 57 59 59 59 58 58 57 57 57 56 55 55 56 54 54 54 52 51 51 49 51 51
39 40 41 42 42 42 42 42 42 42 42 41 43 44 44 49 50 50 48 49 51 53 54 55 57 59 59 58 58 58 58 57 57 57 56 56 55 55 54 52 52 51 50
40 41 42 42 42 43 43 43 42 42 42 42 42 42 41 42 42 43 44 45 47 50 47 46 48 52 56 59 60 60 60 59 59 59 58 57 55 54 54 53 53 53 53
39 40 40 42 42 42 42 42 42 42 42 42 42 42 42 42 42 43 43 43 44 44 44 44 44 44 45 47 51 57 60 60 60 60 59 59 59 58 57 55 55 54 54
39 39 40 41 41 42 41 41 42 42 42 42 42 43 43 44 44 43 43 44 44 45 44 44 44 44 44 44 45 48 51 54 57 58 58 57 57 58 59 58 56 54 54
38 39 40 41 41 41 41 41 42 42 43 43 43 43 43 43 43 43 44 44 44 43 43 44 44 44 44 45 45 46 46 48 49 51 53 55 55 56 57 57 58 56 53
38 39 40 40 41 41 40 41 42 43 44 44 43 43 43 43 43 42 42 41 41 42 41 41 42 42 42 42 43 44 45 45 46 48 48 49 51 53 55 55 55 55 54
37 39 40 40 40 40 42 43 43 43 42 43 42 41 43 42 41 40 41 40 40 39 39 39 40 39 38 39 40 40 41 43 44 43 45 46 48 49 50 51 51 52 52
37 39 39 39 40 42 43 42 42 40 40 41 40 39 41 40 38 36 35 35 34 34 35 36 34 32 34 37 38 38 40 38 39 41 44 45 46 46 47 48 48 49 49
38 39 36 38 42 43 43 41 39 37 37 38 37 36 38 35 32 31 31 31 31 30 31 30 29 29 34 29 33 38 35 38 41 43 45 44 44 42 44 46 46 46 48
38 36 35 41 43 42 41 38 36 34 35 35 34 35 33 30 30 29 28 28 28 27 26 24 24 30 25 26 34 30 36 41 40 43 37 37 38 39 42 43 44 46 48
37 35 41 42 42 40 37 33 31 30 32 31 32 31 30 28 28 26 25 25 24 23 23 20 20 27 19 23 27 28 34 39 31 31 29 34 39 42 44 42 36 41 44
35 42 41 39 38 36 32 30 29 29 29 29 27 26 23 21 22 21 21 21 19 21 19 18 20 19 15 33 34 34 34 27 27 27 26 31 36 38 39 35 38 41 40
41 39 39 37 36 31 29 28 28 27 25 25 20 18 16 17 17 17 17 17 16 17 15 17 15 13 19 28 33 38 27 21 21 26 25 26 31 37 30 32 35 37 38
38 37 35 33 32 29 28 27 26 20 20 17 14 14 15 13 14 14 13 14 13 13 13 13 13 14 13 26 31 32 20 18 20 26 26 29 33 33 33 31 32 33 34
36 34 33 32 29 26 24 21 16 12 13 13 12 13 13 13 12 12 12 12 12 12 13 13 13 13 14 26 27 26 20 22 24 25 27 31 31 33 35 31 30 31 34
33 32 31 28 23 19 14 10 10 9 10 12 13 13 14 13 12 12 12 12 13 13 14 14 14 18 14 24 26 25 22 23 24 26 31 32 30 33 33 30 30 33 35
31 30 28 21 14 10 9 9 9 8 10 13 13 14 13 13 12 13 13 13 14 14 15 14 14 15 18 20 28 29 25 25 25 26 27 26 31 32 33 34 33 37 37
27 23 20 15 10 10 9 8 8 10 11 13 13 14 13 13 13 13 14 14 15 15 15 15 17 19 20 26 27 30 30 29 28 28 25 27 31 33 33 32 36 37 37
22 18 17 14 12 11 10 9 10 12 12 13 13 13 13 13 14 15 15 15 15 15 15 17 20 21 22 22 28 29 30 32 28 25 28 30 30 30 30 32 34 35 33
17 17 14 12 10 11 10 11 12 13 13 13 14 14 14 16 15 16 16 15 15 16 18 21 21 22 22 24 24 25 27 29 30 29 25 28 28 28 28 29 31 31 33
17 15 13 12 11 11 11 12 13 14 14 14 14 14 15 15 15 15 15 15 17 21 21 21 22 22 24 23 27 26 25 30 26 24 25 22 22 24 25 27 29 30 32
15 13 13 12 12 12 12 13 15 15 15 14 15 16 16 16 16 15 15 21 24 25 25 25 24 21 25 28 26 28 31 30 26 22 22 22 22 24 25 27 28 29 31

GFSMW_sfc_dewp_015.txt.gz
Dewpoint
38 40 41 41 41 42 43 42 44 45 52 55 55 56 56 57 57 57 57 56 56 55 54 54 54 54 54 54 54 53 52 52 52 52 52 52 52 52 52 52 52 52 51
38 40 41 41 40 40 40 41 43 46 49 55 56 57 57 57 58 59 59 59 59 58 57 56 56 56 55 55 55 54 54 53 53 52 53 52 52 53 52 53 52 52 52
38 40 40 41 41 40 41 41 41 41 45 50 55 56 55 55 54 55 55 54 54 55 57 58 58 58 57 56 56 56 55 54 55 53 53 52 51 51 51 51 53 52 53
40 40 41 41 41 41 42 42 42 42 42 43 44 47 48 48 49 51 49 48 49 50 48 49 51 53 57 58 57 57 56 56 55 56 55 54 55 53 52 53 52 52 52
40 40 41 42 42 42 42 42 42 42 42 42 42 43 43 44 45 45 44 45 45 47 45 45 45 46 46 47 50 56 58 59 57 57 57 57 55 55 54 52 53 54 52
40 41 42 42 42 42 42 43 42 42 43 43 43 43 42 42 43 43 43 44 44 45 44 44 44 44 45 45 46 48 49 52 57 58 57 57 56 55 55 53 53 53 54
40 40 41 41 41 41 42 42 42 42 43 43 43 43 43 43 43 43 43 42 43 43 43 44 44 44 44 44 45 47 48 48 50 50 52 54 54 54 54 53 52 52 55
39 39 41 41 41 41 41 42 43 43 43 43 43 43 43 43 43 42 43 42 43 43 41 42 42 43 43 42 42 45 46 47 48 48 49 49 51 53 53 53 51 49 49
39 39 41 41 40 40 41 42 43 43 43 43 43 43 42 41 41 41 41 41 40 38 39 40 40 40 40 38 40 41 41 43 45 47 47 46 47 50 50 51 51 50 45
38 39 40 40 40 41 42 43 43 43 42 41 41 42 41 40 39 39 38 38 37 37 37 37 37 36 33 34 37 37 38 40 43 40 42 43 46 47 48 48 48 48 48
38 39 40 40 40 42 43 42 40 39 39 39 38 39 39 37 37 35 35 35 34 33 31 32 29 27 28 33 28 29 34 38 34 38 41 42 45 45 43 43 43 44 46
38 39 40 40 42 43 41 39 37 37 37 37 36 36 34 32 30 29 29 28 28 28 27 26 21 21 25 29 21 24 34 27 33 37 40 43 38 36 37 39 39 43 43
38 39 38 41 42 42 40 37 35 34 35 34 34 31 30 28 28 27 26 24 25 22 22 21 19 19 23 24 16 27 23 25 29 38 38 30 31 31 36 35 37 42 41
38 36 40 42 42 40 36 33 31 31 31 32 30 28 27 26 25 25 23 22 22 18 20 18 18 18 21 15 17 24 24 26 31 28 29 28 27 28 33 35 38 33 32
36 36 42 41 40 36 33 30 29 29 29 27 25 24 23 22 22 20 20 18 18 16 17 16 15 17 15 12 20 22 25 30 24 20 17 21 29 33 30 31 36 34 32
35 42 40 38 37 34 30 28 28 27 26 20 19 20 18 17 17 16 16 15 15 14 15 14 15 14 13 24 27 27 26 24 19 18 20 26 28 28 34 36 36 34 33
41 39 38 37 34 29 28 27 24 19 19 16 15 16 16 16 15 15 14 14 13 13 13 13 14 13 14 25 28 29 22 20 20 21 23 24 24 30 32 33 33 34 34
39 37 35 33 29 28 26 22 15 12 14 14 13 14 15 14 14 13 13 13 13 12 13 13 14 14 14 25 27 28 21 22 22 23 24 25 27 30 28 27 28 29 29
36 34 32 31 25 23 19 13 10 10 11 12 12 13 14 13 13 12 12 13 13 13 13 14 15 15 15 25 26 26 23 23 24 25 26 27 26 30 30 27 28 28 28
33 32 29 26 22 15 10 9 8 8 9 12 13 13 14 14 13 13 13 14 14 14 15 15 15 19 16 23 28 27 24 24 25 28 29 30 28 30 31 27 28 32 33
31 29 27 17 10 9 9 9 9 8 10 13 14 14 14 14 13 13 14 14 15 15 15 15 16 17 20 22 28 29 24 24 27 31 25 25 30 31 30 29 29 31 33
27 24 18 12 10 11 10 9 8 10 12 13 14 15 14 14 13 14 15 15 15 15 15 16 17 20 21 26 26 29 28 28 27 24 25 28 29 28 28 27 28 30 33
21 18 16 13 12 12 10 9 10 12 13 13 14 14 14 14 14 15 15 15 15 15 15 17 20 21 21 22 27 28 30 30 25 25 31 27 27 27 25 27 29 30 28
18 16 13 11 10 11 10 11 12 13 14 13 14 14 14 16 16 16 16 15 15 16 17 20 21 21 22 22 22 26 27 27 27 34 23 24 24 26 25 25 26 26 27
17 15 13 11 10 11 11 12 13 14 14 14 14 14 15 16 16 16 15 15 16 20 20 21 21 21 21 21 25 26 22 24 32 24 21 19 20 20 20 22 23 25 25
14 13 12 11 11 12 12 13 14 15 15 14 14 15 17 17 17 15 15 21 23 25 25 25 23 20 24 26 26 26 27 29 25 21 19 19 20 21 21 21 22 25 25

GFSMW_sfc_dewp_018.txt.gz
Dewpoint
38 40 40 40 40 40 41 42 46 48 53 55 55 55 55 56 57 57 57 57 56 56 55 54 54 55 54 54 55 54 53 53 54 52 53 53 53 53 52 53 52 52 52
39 40 40 40 40 40 41 41 42 44 50 55 56 56 56 57 57 54 51 52 52 52 52 55 56 56 56 55 55 54 55 55 55 53 54 53 53 54 53 53 53 53 53
39 39 40 41 41 41 41 42 42 42 43 47 51 51 51 49 48 48 46 47 47 46 45 46 47 49 53 55 55 56 56 55 56 55 54 52 51 53 54 52 53 53 53
40 40 41 41 41 41 42 42 42 42 42 43 44 44 44 44 45 46 44 44 45 45 44 44 44 45 46 45 45 46 52 54 54 56 56 56 55 51 50 54 55 52 52
40 41 41 42 42 42 42 42 43 43 43 43 43 43 43 43 43 43 42 43 43 44 43 43 44 44 45 44 45 45 46 47 48 50 52 53 53 53 52 50 51 53 55
40 41 41 41 41 42 42 43 43 43 43 43 43 43 42 41 40 41 40 41 42 43 42 42 42 43 43 43 43 45 45 46 47 48 47 48 48 48 49 48 48 49 49
40 41 40 40 41 41 42 43 43 43 43 43 42 42 42 41 41 41 40 39 38 39 39 40 40 41 41 41 40 42 44 45 45 45 46 47 47 47 47 47 46 46 47
39 40 40 41 41 41 42 43 43 42 43 43 42 41 41 41 40 39 39 38 38 39 37 38 38 38 37 34 35 39 41 41 43 44 45 44 43 45 47 47 46 43 42
39 40 41 40 40 41 42 43 42 41 41 41 41 40 38 37 37 36 37 36 36 33 32 35 35 32 28 29 34 31 30 34 40 40 40 41 42 44 47 47 45 42 37
39 39 40 40 40 42 43 42 41 40 39 39 39 37 35 34 33 32 31 32 31 31 30 28 27 21 23 23 32 23 21 31 30 27 37 38 41 43 44 39 39 39 39
38 39 40 40 41 42 40 38 38 38 36 37 35 33 31 30 28 28 28 27 27 27 25 24 21 19 19 19 27 16 18 25 22 28 30 39 39 32 33 33 37 36 34
38 39 40 41 42 40 38 36 35 35 34 35 31 29 27 26 24 25 24 24 23 22 20 21 18 17 18 20 17 15 23 23 24 26 31 29 27 29 29 32 31 32 34
38 39 40 42 41 38 35 32 32 32 32 31 27 24 23 22 21 21 21 20 20 18 17 17 17 16 18 16 14 16 19 21 24 28 25 21 20 19 25 27 28 30 32
38 38 41 41 40 36 32 30 29 29 29 25 22 20 19 19 18 18 18 18 18 17 15 15 15 15 16 15 14 19 21 23 25 25 21 19 19 23 26 25 27 29 33
36 41 41 40 37 33 29 28 27 27 23 18 18 17 18 17 17 17 17 17 17 15 15 14 14 14 15 11 19 21 22 23 22 21 21 22 26 29 28 27 29 30 30
36 41 40 38 34 30 28 27 23 23 17 15 14 16 16 17 17 16 16 15 15 14 14 14 14 14 13 24 27 26 23 22 21 22 22 23 26 27 32 32 32 30 27
40 40 38 36 30 28 27 24 15 15 14 14 14 15 16 16 16 15 14 14 14 14 13 13 14 14 15 25 27 28 22 22 23 23 23 23 24 28 28 30 31 30 31
39 38 35 31 29 27 25 16 12 11 13 13 12 14 15 15 15 14 13 14 14 13 13 14 15 15 15 25 27 28 23 23 24 24 25 25 28 29 27 25 28 31 31
37 34 32 30 25 21 16 10 9 9 10 12 12 13 14 14 14 13 13 13 14 14 14 15 15 15 16 25 27 26 23 23 23 25 25 29 26 28 30 31 30 27 27
33 31 28 25 17 11 9 8 8 8 9 12 13 13 14 14 13 13 13 14 15 14 15 15 15 19 17 24 27 26 22 23 23 25 30 28 25 30 31 24 24 26 23
30 29 23 14 10 9 9 8 9 9 11 13 14 14 15 14 14 14 14 15 15 15 15 15 15 17 19 22 27 27 22 22 26 29 22 22 29 35 27 27 24 24 25
28 22 15 11 10 10 9 9 8 11 12 14 14 14 14 14 14 14 15 15 16 15 14 15 16 19 20 25 25 27 27 27 25 22 22 25 33 26 26 25 27 28 27
21 18 15 13 11 11 10 9 10 12 13 13 13 14 14 14 14 15 16 16 15 14 14 16 18 20 20 21 26 27 29 28 23 23 29 29 26 25 23 25 26 25 22
18 17 13 11 10 11 10 11 12 13 14 13 13 14 14 16 16 16 17 16 15 15 16 19 20 20 20 21 21 25 25 26 26 31 26 24 23 24 23 21 21 21 22
17 15 12 10 9 10 11 12 13 14 13 13 14 14 15 16 17 17 16 15 16 19 19 20 20 21 21 20 24 25 21 23 28 21 19 18 18 18 18 19 19 20 22
14 12 11 10 10 12 12 13 14 14 14 14 14 15 16 17 17 16 16 21 23 24 24 24 23 20 24 26 27 25 26 28 23 18 18 19 18 18 19 19 19 20 22

GFSMW_sfc_dewp_021.txt.gz
Dewpoint
39 40 41 41 42 42 43 45 49 53 55 55 55 56 57 55 51 49 48 47 49 49 50 50 49 51 52 53 53 55 55 54 56 55 54 55 55 55 55 55 55 54 54
38 40 41 41 41 42 43 43 45 48 55 57 57 56 50 49 47 46 45 44 43 43 42 44 44 44 45 44 44 47 48 50 52 53 54 51 51 52 55 55 55 55 55
38 39 40 41 43 42 43 43 44 45 46 49 48 47 47 46 44 43 43 44 42 41 42 43 43 43 43 43 43 43 45 43 45 47 50 48 46 50 51 52 54 54 55
40 40 41 41 42 43 44 44 44 44 44 45 45 44 43 42 43 42 42 41 42 41 40 41 42 41 42 40 41 40 42 44 43 44 42 47 47 44 43 43 48 49 51
40 41 42 42 42 44 44 44 44 44 44 44 44 43 42 41 41 40 39 39 40 40 38 39 40 39 38 38 39 39 40 41 41 42 43 44 45 45 46 43 42 44 45
41 41 42 43 43 44 44 45 44 43 44 43 42 41 40 39 38 38 36 36 36 37 34 35 35 35 33 34 34 37 37 37 41 42 43 44 42 41 43 42 42 43 43
41 41 41 41 42 43 44 44 43 42 42 41 41 40 39 38 36 35 33 31 30 31 30 30 29 27 27 28 30 36 36 35 38 40 43 36 38 38 40 42 40 41 42
41 41 41 42 42 43 44 43 43 42 41 40 38 37 36 35 32 30 28 27 27 28 28 26 24 22 19 22 24 31 29 31 35 40 31 33 33 37 40 43 42 35 35
40 41 41 41 42 43 43 42 40 40 40 38 35 32 30 28 27 25 24 25 24 19 21 23 21 19 18 19 22 26 18 22 32 28 28 32 35 40 40 39 35 34 30
40 41 41 41 42 43 42 40 39 38 37 34 31 27 24 23 22 21 20 21 20 20 19 18 18 16 16 17 19 18 17 19 23 22 26 31 33 33 34 34 31 32 34
39 40 40 41 43 40 39 37 36 36 33 30 25 22 21 19 18 17 18 18 18 17 16 15 15 14 14 14 15 14 15 18 21 24 26 30 26 26 25 25 28 31 29
39 40 40 42 40 37 36 34 33 33 31 26 21 19 19 17 15 15 16 16 15 15 15 14 13 12 13 14 13 14 16 19 21 22 27 25 20 21 21 21 25 28 28
39 40 41 41 38 35 32 31 30 31 26 21 17 16 15 14 13 13 14 14 14 14 13 13 13 12 14 14 13 15 19 21 22 22 23 22 21 21 23 25 27 29 28
39 39 42 40 36 32 30 28 28 26 21 17 15 14 14 14 14 14 14 14 14 14 13 13 13 13 13 14 14 20 21 22 22 23 23 21 22 22 25 25 28 28 30
38 40 41 39 34 30 28 26 26 19 15 14 14 14 15 15 15 15 15 14 14 14 14 13 13 13 14 10 21 22 23 23 22 23 22 23 26 29 28 26 28 29 29
38 41 40 36 32 29 28 24 21 18 14 12 12 15 15 15 16 15 14 14 14 14 14 13 13 13 12 23 27 26 24 23 23 23 23 23 27 27 30 32 31 29 27
40 41 39 35 30 28 27 19 13 13 11 12 12 13 14 15 15 15 14 14 14 14 13 12 13 13 14 24 27 28 24 23 23 22 23 24 24 28 30 30 30 32 35
41 39 36 30 28 27 20 12 10 10 11 11 11 13 14 14 14 14 13 14 14 13 12 12 14 14 14 24 27 28 23 23 22 22 23 24 27 28 25 25 32 29 24
39 36 31 29 25 20 13 9 8 9 10 11 11 13 14 14 13 13 13 14 14 14 13 14 14 14 15 24 27 26 22 22 22 22 23 27 24 26 29 33 29 23 24
33 31 27 23 15 10 9 8 7 8 9 11 13 13 14 13 13 13 13 15 15 14 15 14 14 18 16 24 27 25 22 22 22 25 26 26 23 27 34 24 22 24 23
29 27 22 14 10 9 9 8 8 8 11 13 14 14 14 13 13 14 15 15 15 15 15 14 14 16 19 21 26 27 21 22 26 28 22 21 27 36 27 26 22 23 24
29 18 13 11 10 10 9 8 7 10 12 13 14 13 13 13 13 14 15 15 15 15 14 14 16 18 19 24 25 26 26 26 24 22 21 25 31 25 25 24 26 26 25
23 19 14 12 11 11 9 8 9 12 13 13 12 12 13 13 14 15 15 16 15 15 14 16 18 19 20 21 25 26 28 28 22 22 28 26 23 23 22 23 24 24 21
19 17 14 11 10 10 10 10 12 13 13 12 12 12 13 16 15 16 16 16 16 16 16 18 19 21 21 21 22 26 26 25 25 31 20 21 21 23 21 20 20 20 21
19 15 13 10 9 10 11 12 12 14 12 12 12 13 13 15 16 16 16 16 17 20 19 20 20 21 22 21 25 24 20 23 28 20 18 16 17 18 17 18 19 20 20
16 13 11 9 9 11 11 12 13 14 13 12 12 13 15 16 16 15 16 21 23 23 23 24 22 20 23 25 25 24 25 28 24 18 16 16 19 18 17 18 19 20 21

GFSMW_sfc_dewp_024.txt.gz
Dewpoint
39 40 42 43 45 47 49 52 54 55 54 55 55 56 53 51 48 46 44 44 44 43 44 43 42 42 42 41 40 41 41 40 42 40 42 43 45 50 47 50 54 51 51
37 40 41 42 42 44 46 50 54 57 57 57 53 51 48 46 45 44 42 40 39 40 39 41 40 40 40 40 40 40 40 39 40 40 40 37 38 40 43 42 41 45 45
37 38 40 42 44 44 44 47 51 50 51 49 47 46 45 44 42 41 41 40 38 38 39 40 39 39 39 38 39 38 40 38 39 39 39 40 36 40 38 39 38 40 43
38 39 41 42 44 45 46 45 45 45 45 46 45 44 42 40 40 39 39 39 38 36 35 35 35 34 34 33 33 31 34 33 33 34 33 39 38 37 36 35 37 37 39
38 40 42 43 44 46 46 46 44 44 43 43 42 40 40 40 39 38 38 37 36 33 30 30 30 28 26 27 27 30 30 27 27 31 33 35 37 36 33 35 30 32 32
39 41 43 43 44 46 46 45 43 42 42 41 41 41 40 38 37 36 33 32 30 28 26 23 23 22 22 24 22 27 30 26 27 29 33 37 34 29 30 30 32 34 33
40 41 42 42 43 44 45 43 42 40 40 40 39 38 38 36 33 30 27 25 23 23 22 20 18 18 19 20 20 27 30 26 27 32 33 27 25 26 27 30 34 33 35
40 41 42 43 43 44 43 42 41 40 38 37 36 34 33 30 26 24 22 19 18 17 19 18 17 15 15 16 17 22 26 23 23 29 25 24 25 27 31 34 35 33 28
41 41 42 42 43 43 42 42 40 39 37 35 32 28 25 24 22 18 17 16 16 12 14 15 15 15 14 14 17 18 16 16 19 21 22 23 24 30 29 28 26 27 24
40 41 41 42 42 42 41 40 39 37 35 31 28 24 20 16 14 14 14 14 12 13 12 12 12 12 12 12 13 14 14 14 17 18 20 22 23 27 25 23 21 20 21
40 40 41 42 43 41 39 37 37 34 31 27 23 21 16 12 11 11 11 11 10 11 11 10 10 9 10 10 11 11 12 14 17 19 20 22 23 23 21 21 20 21 22
40 41 41 42 40 39 37 35 35 32 28 23 19 16 14 12 10 10 10 10 10 10 10 9 9 8 9 10 10 11 13 16 17 19 20 20 18 21 20 20 21 23 24
40 41 41 41 39 37 35 33 33 29 24 19 16 13 12 11 10 9 10 10 10 10 10 10 10 10 11 11 11 11 15 17 18 19 20 20 20 19 21 21 23 24 23
39 40 41 40 38 35 32 30 29 26 20 16 14 12 12 11 11 11 11 11 11 11 11 11 11 11 10 12 10 16 18 19 19 21 21 20 20 20 22 22 23 25 29
39 40 41 40 37 33 30 29 26 20 16 13 13 13 13 13 12 13 12 12 12 12 12 12 10 10 12 7 18 21 21 21 21 21 19 20 23 27 27 24 27 28 28
38 40 41 39 35 32 29 28 24 17 13 11 11 13 12 13 14 13 12 12 13 12 13 11 10 10 9 20 25 26 23 21 20 19 19 19 23 23 29 30 29 27 26
38 40 41 38 34 31 29 24 18 13 10 9 9 10 12 12 13 12 12 13 13 13 12 10 10 10 11 21 26 28 23 21 19 19 18 18 17 25 25 27 28 28 32
40 41 39 36 32 29 25 17 13 10 9 9 8 11 12 11 11 10 10 12 11 11 10 10 11 12 10 22 25 28 22 20 19 19 19 19 22 25 23 23 27 33 26
40 40 37 32 29 26 18 13 9 8 8 8 8 10 10 10 10 10 11 11 11 11 10 11 12 11 12 22 25 25 20 19 18 18 19 24 22 24 27 29 29 23 23
39 35 31 29 25 17 13 11 7 6 6 9 10 10 10 10 9 10 11 12 12 12 12 10 10 15 14 22 25 25 21 20 19 21 23 25 22 26 30 25 22 24 21
33 30 28 24 18 12 11 8 7 6 9 10 11 10 10 9 10 11 12 12 12 12 11 9 10 14 17 19 25 26 21 20 24 26 22 20 26 30 26 25 21 21 22
30 27 22 18 14 11 9 7 5 9 11 11 11 10 10 10 9 12 12 11 11 10 9 10 13 15 16 22 23 26 26 26 24 22 21 23 30 24 24 23 24 25 24
26 23 21 16 12 11 7 6 8 10 10 10 10 10 10 10 11 11 11 10 10 10 11 13 15 16 17 17 24 25 27 27 22 21 26 28 23 23 21 23 23 23 20
24 22 19 15 11 10 10 9 10 11 11 9 9 10 10 12 11 12 11 10 10 12 13 15 16 18 17 18 19 23 26 25 24 28 27 21 21 21 20 19 19 19 21
23 21 18 13 10 8 9 10 11 11 10 9 9 10 11 11 11 10 10 12 14 18 19 19 19 20 19 19 24 24 20 23 26 25 18 16 15 16 17 18 19 20 21
21 18 14 9 8 8 9 10 11 12 12 10 10 11 13 11 10 10 10 17 21 22 23 24 22 20 23 25 26 24 26 28 25 18 15 15 18 18 17 17 18 21 23

GFSMW_sfc_dewp_027.txt.gz
Dewpoint
38 40 42 44 46 49 52 53 53 54 54 54 55 55 51 49 46 44 42 41 41 40 41 41 40 41 40 40 39 40 41 41 41 40 41 41 41 42 43 40 39 40 42
37 39 41 42 43 48 52 54 55 56 54 54 52 50 47 46 44 43 40 38 38 39 39 40 39 39 39 38 37 37 38 38 38 37 37 35 36 39 37 35 38 38 40
36 39 41 43 44 46 50 50 51 51 50 50 48 46 45 44 41 40 40 39 36 35 35 36 34 35 35 34 34 33 37 33 34 33 33 32 29 34 35 36 35 33 33
36 38 41 43 44 45 46 46 46 46 46 46 45 43 41 39 39 39 39 39 36 32 29 29 29 27 28 27 30 25 32 31 29 30 26 35 33 33 32 30 29 30 28
37 39 42 43 45 47 46 45 44 43 42 41 41 41 40 40 39 38 37 35 34 30 25 24 25 23 23 24 26 26 29 27 27 29 29 31 34 33 27 24 25 28 28
38 41 43 44 46 47 45 45 41 40 41 41 40 41 40 38 37 36 33 31 28 27 24 21 20 20 21 23 22 24 29 29 29 29 29 32 30 26 26 25 26 28 30
39 41 42 43 44 44 44 42 40 39 39 39 38 38 37 35 33 31 28 25 23 21 20 19 17 17 20 21 22 27 31 32 30 27 26 29 26 26 26 26 28 31 28
39 40 41 43 43 43 42 41 40 38 37 36 35 34 33 31 27 24 22 19 18 17 17 16 15 15 15 15 19 24 27 28 25 25 24 24 24 25 26 27 30 26 24
39 40 41 42 43 42 42 41 39 38 36 33 31 28 26 24 22 19 17 17 15 11 13 14 13 14 13 13 18 20 17 18 20 21 23 22 23 26 25 29 28 26 21
39 40 41 42 42 42 41 41 38 36 34 31 28 25 21 17 16 15 14 14 11 11 12 11 11 11 11 11 13 15 16 15 17 18 20 21 22 23 25 27 25 24 22
39 40 40 42 42 41 40 39 36 34 31 28 26 23 18 14 13 12 10 10 9 9 9 9 9 9 10 10 11 12 13 13 16 19 20 21 21 22 22 24 23 23 23
40 40 40 42 41 40 38 37 35 32 29 26 23 20 17 15 11 10 10 9 9 9 9 9 9 9 10 10 10 11 12 13 16 18 20 20 18 22 22 22 22 23 23
40 40 40 41 40 39 37 36 34 30 27 23 20 17 15 13 11 10 10 9 10 10 10 11 11 10 12 11 10 10 10 15 18 19 20 20 21 20 22 22 22 23 23
39 40 40 41 39 38 35 34 31 28 24 20 18 16 14 13 12 11 11 11 10 11 12 12 12 12 11 12 11 12 17 19 19 21 22 21 20 20 21 22 23 26 27
39 40 40 40 39 36 34 32 29 24 20 17 16 15 14 13 12 13 13 11 12 13 13 13 13 12 13 8 15 18 20 21 21 21 20 20 24 26 25 21 25 25 29
38 39 40 40 38 35 33 31 26 21 17 15 13 13 12 12 14 13 12 12 13 14 14 14 13 12 10 21 23 23 22 22 21 20 19 19 23 22 26 28 29 27 23
38 40 41 40 37 34 31 30 24 18 14 11 9 10 10 11 12 11 11 13 14 13 14 13 12 11 13 21 23 25 22 23 21 19 19 18 17 24 24 28 28 28 30
38 40 41 39 36 33 30 23 18 14 11 10 9 9 9 9 10 10 10 13 12 12 12 12 12 13 11 21 23 25 22 21 20 19 19 19 21 25 24 22 28 30 27
40 41 40 36 33 30 23 17 13 11 10 9 7 8 8 9 9 10 11 12 12 12 11 13 13 11 10 21 23 24 21 21 20 19 20 22 22 25 27 27 30 23 21
41 39 35 32 29 23 18 16 11 9 8 7 8 8 8 8 9 10 11 12 12 12 12 11 10 14 11 21 24 23 21 21 20 22 25 26 23 27 30 25 20 21 19
36 33 32 29 22 18 17 13 10 7 7 9 9 9 9 9 10 11 12 13 12 13 11 9 9 11 15 17 24 25 21 21 22 27 23 22 26 31 28 25 19 19 22
32 30 27 21 18 17 15 10 7 8 9 9 9 10 10 10 10 12 12 11 11 10 9 9 12 15 15 22 23 25 25 25 24 23 22 21 32 25 24 22 23 24 23
29 27 23 19 16 12 10 9 8 9 9 9 9 9 11 11 11 11 11 11 10 8 8 11 14 16 18 18 24 25 26 26 22 21 24 31 24 23 20 22 23 23 18
27 25 22 19 14 12 9 8 9 9 9 8 9 11 11 12 11 13 11 9 8 11 13 16 18 19 19 19 20 20 24 25 24 28 28 21 21 21 20 19 19 18 20
26 25 23 19 14 9 7 8 10 10 10 10 11 11 12 11 12 11 9 8 11 16 18 20 20 20 19 19 23 23 21 23 26 22 19 15 15 15 16 17 17 19 22
26 24 22 16 10 7 7 9 10 11 11 11 12 12 12 11 12 9 9 17 20 21 21 22 21 19 23 25 25 24 25 27 24 18 15 15 17 17 16 17 19 21 22

GFSMW_sfc_dewp_030.txt.gz
Dewpoint
38 40 43 45 49 51 52 53 54 54 55 55 56 51 48 45 44 42 40 40 40 41 41 43 41 41 41 38 36 37 37 37 38 37 33 33 35 35 35 31 30 37 33
38 40 42 45 49 53 55 55 55 54 53 52 50 48 46 44 43 42 39 38 37 37 35 36 37 34 36 34 32 32 35 35 34 33 30 32 31 33 29 32 36 32 33
38 40 42 45 48 50 51 51 51 50 49 47 45 44 45 44 42 42 41 37 33 32 32 31 30 30 31 31 29 29 31 33 32 28 29 31 30 28 31 32 33 25 23
38 40 42 44 45 47 47 47 48 48 48 47 46 43 41 40 41 41 41 37 32 28 26 28 27 25 28 26 27 24 28 30 29 30 28 30 30 29 30 31 24 24 23
38 41 43 45 46 46 46 44 42 42 41 41 41 42 41 41 41 39 36 33 31 27 24 24 24 23 26 24 24 24 26 30 29 29 29 28 31 32 25 22 21 24 25
39 42 45 46 46 46 44 42 41 41 42 41 41 40 39 38 36 33 32 31 29 28 24 22 21 21 22 23 23 24 25 29 30 29 27 27 29 26 25 23 22 22 23
40 42 44 45 44 44 43 41 40 39 39 38 37 36 34 32 28 28 25 23 23 23 20 19 17 19 20 20 21 25 26 28 28 27 26 27 24 25 24 23 22 22 22
41 42 43 44 44 43 41 40 39 37 36 34 32 31 30 29 25 21 21 20 19 18 17 17 16 16 16 17 17 23 26 22 23 19 22 24 23 25 24 24 24 21 22
40 41 43 43 43 41 41 40 38 36 34 31 28 24 22 21 20 17 17 18 16 11 13 14 14 14 14 14 16 20 17 17 18 19 21 21 22 24 25 25 24 23 21
40 41 42 42 42 42 41 39 36 34 31 29 25 21 17 16 15 15 13 12 11 12 12 12 12 12 13 13 13 16 17 14 17 16 17 18 21 22 23 25 24 23 22
39 41 41 42 41 41 40 37 34 32 30 27 24 19 16 15 13 11 11 10 11 10 11 11 11 11 12 12 12 13 13 12 14 15 17 19 20 21 22 23 23 22 22
39 40 41 41 40 40 38 36 34 30 28 25 21 19 17 13 12 11 11 11 10 11 11 12 12 12 13 13 12 12 12 13 15 17 19 19 19 20 21 22 20 22 22
40 40 41 41 40 39 37 35 32 29 26 23 19 17 15 14 11 11 12 12 12 12 13 13 14 14 16 14 13 12 13 16 18 20 21 21 21 20 21 20 21 21 21
40 40 41 41 40 38 36 34 30 26 23 21 19 17 14 13 13 13 14 14 13 13 14 15 15 16 15 14 13 14 17 19 20 22 22 22 21 20 20 20 20 22 25
39 40 40 40 39 36 34 31 27 23 20 19 19 17 15 14 14 15 15 14 15 15 16 16 16 15 14 10 15 17 18 20 21 22 22 22 24 27 24 20 22 23 23
39 40 41 39 37 35 33 29 25 21 19 17 16 15 14 14 15 15 14 14 15 15 15 15 15 14 12 22 24 22 19 21 21 22 21 20 23 23 27 28 28 27 26
39 40 40 39 36 34 31 26 21 18 15 13 12 12 12 13 14 13 13 14 14 14 14 13 13 12 13 22 24 24 19 21 21 21 20 19 18 23 22 27 29 33 32
39 40 41 37 35 32 30 22 17 14 14 12 11 11 12 11 11 11 11 12 13 13 12 12 13 13 12 21 23 25 20 21 21 21 21 20 21 23 25 24 28 29 30
41 41 38 35 32 25 19 16 13 13 13 11 9 9 10 10 11 11 11 12 13 13 13 13 12 11 10 21 23 22 19 20 20 21 22 23 24 27 28 25 30 24 23
39 36 33 31 25 20 17 14 12 11 10 9 10 9 10 10 9 10 12 13 13 12 13 11 10 15 10 21 24 23 19 20 20 22 25 28 24 26 30 26 21 22 17
34 33 31 26 20 19 17 12 11 9 9 10 10 10 10 10 10 12 13 13 12 13 12 9 9 11 14 17 25 26 20 20 22 26 23 23 26 31 29 25 18 18 22
32 30 22 19 18 18 14 11 8 9 10 11 11 11 11 11 11 12 12 12 12 11 9 9 12 15 17 24 24 26 26 26 24 22 20 21 29 25 24 22 24 25 23
29 23 20 18 15 13 11 10 9 10 10 9 9 10 12 12 12 12 12 11 11 10 9 12 15 17 19 20 25 26 27 27 23 21 25 30 24 22 20 22 23 23 17
26 22 19 16 13 11 9 10 11 10 10 9 10 12 12 14 12 14 13 11 9 11 11 15 17 18 18 19 19 20 22 24 23 28 27 21 20 21 20 18 18 18 21
27 23 21 17 13 10 9 11 10 11 11 11 12 13 14 13 13 13 10 9 11 16 16 17 17 17 17 18 23 22 19 22 25 23 18 14 15 15 16 17 18 19 22
27 25 22 15 11 8 9 11 12 12 12 12 14 15 14 13 14 11 10 18 20 21 22 22 20 18 22 24 24 24 25 26 24 18 14 15 16 17 17 17 19 20 22

GFSMW_sfc_dewp_033.txt.gz
Dewpoint
39 41 43 46 50 51 52 53 54 56 56 52 48 44 42 40 39 39 38 37 38 36 36 38 35 35 35 31 29 33 33 34 33 33 25 31 33 30 27 20 32 33 32
39 42 45 49 53 54 54 53 52 51 52 50 47 45 42 41 40 38 34 33 33 34 30 32 31 29 31 28 27 28 32 34 32 29 29 29 31 30 22 29 31 30 22
39 41 45 49 50 50 50 49 48 47 46 45 43 42 42 42 40 39 36 30 27 29 29 27 26 27 28 28 26 25 28 31 31 27 28 27 27 24 30 28 30 21 23
40 42 46 46 47 47 48 48 47 46 45 44 43 41 40 40 41 40 36 31 25 24 26 25 24 24 26 23 25 24 26 29 29 30 28 28 29 28 28 30 23 24 22
41 43 44 45 45 44 42 41 41 41 41 41 41 41 40 40 40 36 33 29 24 23 23 23 23 21 25 22 22 24 23 25 29 29 29 25 27 30 27 19 21 22 23
42 44 45 45 44 42 41 41 41 40 40 40 40 38 36 33 30 28 28 27 26 24 21 19 19 19 21 21 21 23 22 25 27 28 27 26 24 24 21 20 20 20 20
43 44 44 43 42 40 40 40 38 37 36 35 33 31 28 25 24 24 21 21 20 20 18 17 16 17 18 19 19 22 23 24 24 22 22 24 26 25 22 22 20 19 21
43 44 44 43 41 40 39 38 36 34 32 30 29 27 25 25 22 20 19 18 17 16 15 14 14 14 15 15 16 21 23 20 20 17 18 23 22 24 23 22 23 20 19
43 44 44 42 41 39 38 36 34 32 29 27 24 21 20 18 17 15 16 16 14 12 13 12 12 13 14 14 15 19 16 16 17 18 20 20 19 23 25 25 23 23 20
42 43 43 42 41 39 38 36 33 30 28 23 20 17 15 15 14 12 11 11 11 11 11 11 12 12 13 13 13 15 16 15 17 17 18 18 20 21 22 25 25 23 22
41 42 42 41 41 39 36 34 31 29 26 22 18 16 14 13 11 11 10 10 10 11 11 12 12 13 13 13 13 13 13 14 16 18 18 20 20 22 22 23 23 24 22
41 42 42 41 40 37 34 32 30 27 24 20 18 16 14 12 11 10 11 12 11 11 12 13 14 14 15 15 14 13 13 15 17 19 21 21 21 22 22 22 22 21 21
41 41 40 40 39 36 34 31 28 25 22 20 17 15 14 12 11 11 12 12 12 12 14 14 15 16 17 17 15 13 13 17 19 21 22 21 22 22 22 21 21 21 21
40 41 40 39 38 37 34 29 27 24 21 18 17 15 14 13 12 14 14 14 14 14 15 16 17 18 17 16 15 14 18 19 19 23 22 22 23 22 21 20 21 23 23
40 41 40 39 37 36 31 27 23 21 19 19 18 16 15 14 15 15 15 14 15 15 17 17 16 16 15 11 17 18 19 19 21 21 22 22 24 27 25 21 21 21 23
39 41 40 39 36 34 29 24 22 20 19 17 16 16 15 14 15 14 14 14 15 15 15 15 14 14 12 23 25 22 18 19 20 21 21 22 24 24 27 28 28 27 24
40 40 40 38 35 31 26 21 19 17 14 14 14 14 13 13 14 13 13 13 13 14 13 13 13 13 14 23 24 25 18 20 21 21 21 21 20 24 23 28 29 30 32
40 40 38 36 33 27 23 18 15 14 14 14 12 13 12 11 12 11 11 12 13 12 13 13 13 13 12 23 23 25 19 20 21 21 21 21 23 26 24 23 24 29 30
40 39 36 32 29 22 17 14 14 14 14 12 11 10 10 10 10 10 11 12 12 13 13 13 13 12 11 22 24 23 20 20 20 20 21 25 23 26 27 27 29 25 24
36 33 29 24 19 16 14 13 12 12 11 11 10 9 10 10 9 10 11 12 13 13 14 12 12 16 12 22 25 24 21 20 20 25 26 26 22 26 32 24 22 19 17
31 27 23 19 17 15 14 12 11 9 10 11 11 11 10 10 10 12 12 12 12 13 12 11 10 12 16 20 26 26 21 21 26 25 22 20 26 34 26 24 17 18 23
27 23 20 18 17 15 13 10 8 10 11 11 11 11 10 12 12 12 12 12 12 11 10 10 13 15 17 23 24 26 26 27 21 22 20 22 30 24 23 21 24 25 25
22 20 18 17 15 13 10 9 9 11 10 9 9 10 12 12 13 12 12 12 12 10 10 11 15 17 18 19 24 26 27 25 22 23 27 27 23 22 20 22 24 24 19
21 18 16 13 11 11 10 10 11 11 10 9 10 12 13 16 12 14 13 11 10 12 13 15 16 17 17 18 19 20 21 24 26 27 22 20 20 21 20 19 19 19 22
21 19 16 13 10 9 10 11 11 11 10 11 12 13 15 14 14 14 12 13 13 17 17 17 17 17 17 18 23 22 20 23 24 21 16 14 15 15 16 17 18 19 20
23 21 18 14 10 9 10 12 13 13 12 12 14 15 15 14 14 12 12 18 20 21 21 22 20 18 22 24 24 25 26 25 24 17 14 15 17 17 16 17 18 19 20

GFSMW_sfc_dewp_036.txt.gz
Dewpoint
38 41 43 46 49 50 51 51 55 54 50 47 44 41 40 39 38 37 36 35 33 33 33 32 30 32 29 27 26 28 31 32 30 28 25 29 32 27 20 25 32 29 22
39 41 45 50 52 52 53 53 54 54 50 46 43 41 40 38 35 33 30 30 30 29 27 28 27 27 27 25 24 26 28 31 30 26 28 27 29 27 16 29 29 24 22
39 42 47 51 52 51 50 49 48 47 45 41 40 39 38 38 34 32 29 26 26 27 25 25 25 25 26 25 24 25 25 28 30 28 25 19 23 23 26 20 26 18 25
40 44 49 49 49 49 48 47 46 45 43 41 40 38 37 36 38 35 29 25 23 24 24 24 22 23 25 22 23 24 23 25 28 29 28 27 26 24 23 28 20 23 19
41 46 48 48 46 46 45 44 44 43 43 41 40 40 39 39 38 33 26 22 21 21 22 22 21 20 23 20 20 21 21 24 28 27 28 26 25 26 27 18 18 19 20
44 46 45 44 41 41 41 42 42 41 41 40 40 39 36 33 31 29 26 24 22 22 19 18 18 18 19 19 20 20 20 22 23 24 23 24 22 23 20 16 17 18 19
44 44 43 40 40 40 40 39 39 37 37 35 33 31 28 25 23 23 21 19 18 19 16 16 14 16 17 17 18 20 21 21 20 18 19 22 24 25 20 20 19 18 19
44 43 41 39 39 39 38 37 35 33 31 29 26 24 23 23 22 20 19 17 17 16 14 13 12 13 14 15 16 20 21 19 18 15 17 21 21 22 21 22 21 20 19
43 42 40 39 39 38 36 34 32 29 27 25 22 20 19 18 17 15 15 15 13 12 12 12 12 13 14 14 15 18 15 16 16 17 18 19 21 22 22 23 23 23 19
43 41 40 39 38 37 35 32 29 26 23 20 18 17 15 14 13 12 10 11 11 11 12 12 13 14 14 14 14 16 16 14 16 18 18 19 21 21 23 24 23 23 22
43 41 40 39 38 36 33 30 27 23 20 17 16 15 13 12 11 11 10 10 11 11 12 13 13 14 14 14 15 14 14 14 16 18 20 21 22 22 22 23 24 23 23
43 41 40 39 36 34 31 28 26 22 19 17 15 14 13 11 11 11 11 12 11 12 13 14 14 15 16 16 16 14 14 14 17 19 21 21 20 22 23 23 23 22 22
42 41 40 38 36 33 30 28 25 21 19 17 16 14 13 12 11 12 12 13 13 13 14 15 16 16 18 18 16 15 14 16 18 20 21 22 21 21 23 23 22 22 21
41 40 39 38 35 32 30 27 23 20 18 17 16 14 13 12 13 14 14 14 14 14 15 16 17 17 16 16 15 17 18 19 19 21 23 22 22 22 22 21 21 23 21
41 40 39 38 35 32 28 25 22 19 18 18 18 16 15 15 15 15 14 14 15 15 16 15 15 15 15 11 19 20 20 19 19 21 21 22 24 27 25 22 22 22 25
40 40 39 37 35 31 27 22 20 20 19 18 17 17 15 14 15 14 13 13 14 14 14 14 14 14 12 23 25 23 19 19 19 20 20 21 24 24 28 28 28 27 24
40 40 39 37 35 29 23 21 19 18 17 16 15 14 14 14 13 12 12 12 13 13 13 13 13 13 14 23 25 26 21 20 20 20 20 20 20 25 25 27 27 28 32
41 40 39 36 32 26 22 18 16 15 15 15 13 14 13 11 11 11 11 12 12 12 12 12 13 14 11 23 26 27 22 21 21 21 21 21 24 24 22 21 25 29 25
41 40 38 32 26 21 17 15 14 14 14 13 12 11 11 10 10 10 11 11 12 13 12 13 13 11 13 23 25 25 21 21 21 21 22 26 23 25 27 29 25 21 18
37 34 31 26 21 17 15 14 13 12 12 12 11 10 11 9 10 11 12 12 12 12 14 12 11 16 12 21 25 24 21 21 21 25 27 27 23 28 32 21 19 18 16
29 27 25 21 16 15 14 12 12 11 11 12 11 11 10 10 11 12 12 12 12 13 12 10 10 11 14 18 25 25 21 21 27 23 21 20 28 29 25 24 18 19 25
24 22 19 16 15 14 14 11 9 11 12 12 11 11 11 12 12 12 12 12 12 11 11 11 13 15 16 23 24 26 26 26 20 22 22 25 27 24 23 22 25 27 24
22 20 18 15 14 13 10 9 10 11 11 10 10 11 12 13 12 12 13 12 12 12 12 14 16 17 17 18 24 26 26 25 23 24 25 25 23 22 20 23 24 23 18
20 18 16 13 11 11 10 10 11 11 9 9 11 13 13 16 13 14 13 12 13 14 16 16 17 17 17 18 19 20 20 25 26 26 21 20 20 21 20 18 18 17 18
18 17 14 11 10 11 11 11 11 11 10 11 12 13 15 14 14 13 12 15 16 19 18 18 18 17 18 18 23 22 21 22 23 21 16 14 15 15 16 16 17 18 18
19 17 13 10 10 10 10 12 13 12 12 12 13 15 16 14 14 13 14 19 20 21 21 22 20 18 23 24 24 25 25 24 23 17 14 15 16 16 16 17 18 18 19

GFSMW_sfc_dewp_039.txt.gz
Dewpoint
38 38 41 43 48 47 49 50 53 50 49 46 44 42 41 39 37 35 33 32 31 30 29 30 28 28 26 24 23 27 28 31 29 25 26 28 30 27 19 25 27 23 21
37 40 42 47 49 50 51 54 52 50 48 45 41 40 38 35 33 31 28 27 27 26 25 26 26 24 25 23 23 24 25 28 30 27 27 23 22 25 16 24 28 20 24
37 40 43 49 51 52 52 53 50 46 43 41 39 36 33 31 28 26 26 25 25 25 24 23 24 24 24 24 24 23 23 25 28 27 21 17 16 23 24 19 25 18 24
37 40 46 50 51 51 50 49 46 42 41 40 38 36 34 32 33 28 24 23 22 23 23 22 22 22 23 20 23 21 21 25 25 27 26 26 24 20 20 25 19 21 15
38 42 48 51 50 48 47 45 44 42 41 40 38 37 36 33 29 24 21 20 20 20 21 21 20 20 22 19 19 19 19 23 25 25 26 24 24 24 24 15 16 14 16
39 45 48 47 44 44 44 44 43 41 40 40 39 37 33 30 27 26 23 22 21 21 18 17 17 17 19 18 19 18 18 20 20 21 20 21 21 22 19 16 14 15 16
45 46 46 44 42 42 42 42 41 39 39 38 37 35 31 29 25 23 22 18 17 18 15 14 14 16 16 17 18 19 19 20 18 17 17 21 21 23 20 19 17 16 18
45 46 45 43 42 41 40 39 38 35 33 31 28 26 25 25 22 20 19 17 16 16 13 13 13 13 14 15 16 19 20 18 17 15 16 19 20 22 22 21 21 19 18
45 45 41 41 40 38 37 36 34 30 28 25 23 21 20 19 17 15 15 16 14 12 12 13 13 14 14 15 16 18 15 15 16 16 18 19 21 23 23 23 23 22 19
44 41 40 39 38 36 33 32 30 26 23 20 18 17 15 13 13 12 11 11 11 12 13 13 13 14 15 15 15 16 16 15 16 17 18 19 22 22 24 25 24 23 22
41 39 39 37 36 33 30 27 24 21 19 17 15 14 13 12 11 11 11 11 11 12 13 14 14 14 15 15 16 15 15 14 15 17 19 20 22 23 22 23 24 24 23
40 39 38 36 34 31 28 24 21 19 17 16 14 13 13 11 11 11 12 12 11 13 14 15 15 16 16 16 15 15 15 15 16 18 19 20 19 22 22 23 22 23 23
39 38 37 35 33 30 26 23 19 17 16 15 14 13 12 12 12 12 13 13 13 14 15 16 16 16 17 16 15 14 15 17 18 19 20 20 21 21 22 22 22 23 23
39 38 37 35 32 29 26 22 19 18 16 16 14 14 13 12 13 14 13 14 14 14 15 15 15 16 15 15 15 17 19 20 19 20 21 21 22 22 22 21 22 24 21
39 38 37 35 31 28 25 21 19 17 17 16 17 16 16 16 15 15 14 14 15 14 15 14 14 14 15 11 20 21 20 20 19 20 20 21 24 26 25 22 21 22 24
40 39 37 34 31 27 24 20 18 18 18 17 17 17 16 15 15 14 13 13 13 13 14 13 13 13 12 23 26 25 23 21 20 20 20 21 24 24 28 28 28 26 23
40 39 37 34 31 27 22 20 18 19 17 17 16 16 15 15 14 12 12 12 12 13 13 13 13 13 13 22 26 27 23 21 21 21 21 21 20 25 25 27 28 31 32
40 39 37 35 30 25 21 19 18 17 16 16 14 15 15 12 11 11 11 11 12 12 12 12 13 13 11 24 25 27 22 22 21 21 21 21 22 26 23 24 31 24 22
40 40 37 32 26 22 19 17 16 15 15 13 13 12 12 11 10 11 11 12 12 12 12 13 12 11 12 23 25 25 21 21 21 21 22 26 23 25 28 27 23 19 18
40 36 31 27 23 19 17 15 14 13 13 12 12 11 11 10 10 11 12 12 12 12 13 11 11 16 13 22 25 24 21 21 21 26 25 26 23 27 30 21 19 19 17
34 30 27 24 19 16 15 14 13 12 12 12 11 11 10 11 12 12 12 12 12 12 12 11 12 13 16 20 25 26 21 21 22 20 22 21 28 28 25 25 19 20 25
29 25 21 17 16 16 15 13 11 12 12 12 12 11 12 12 12 12 13 12 12 12 12 13 15 17 17 23 23 26 26 25 20 23 22 23 27 25 24 22 25 26 24
23 20 17 15 15 16 13 11 11 12 11 10 11 12 13 13 13 13 12 12 13 14 14 15 17 17 18 18 24 26 26 25 24 23 24 25 24 23 20 23 24 23 17
20 19 17 15 12 11 11 11 11 11 10 10 12 13 14 15 14 14 13 14 15 16 17 17 17 18 17 18 19 20 21 26 23 24 21 21 20 21 20 18 17 17 18
19 18 16 13 10 10 10 11 11 10 10 12 12 14 15 14 14 13 13 17 17 19 18 19 18 18 18 19 23 22 21 22 22 21 17 14 15 15 15 16 16 17 17
17 15 13 11 11 10 10 11 12 12 12 12 13 16 16 14 14 14 15 19 20 22 22 22 20 18 22 24 24 25 25 24 24 18 14 15 16 16 15 16 17 17 18

GFSMW_sfc_dewp_042.txt.gz
Dewpoint
41 40 38 40 43 44 47 53 55 55 50 48 46 45 42 39 37 36 38 32 31 28 27 27 25 26 23 23 21 25 24 30 28 24 25 26 26 29 22 24 27 21 21
39 38 39 43 47 46 48 53 51 50 50 49 44 43 45 40 33 34 34 35 25 25 24 24 24 23 24 23 21 21 22 25 29 25 25 19 18 22 16 22 26 19 24
40 38 40 44 48 49 50 53 50 46 44 41 38 39 37 33 29 30 31 25 23 24 23 23 23 23 24 24 22 21 23 22 25 27 21 13 13 22 22 21 26 17 21
39 39 40 46 49 50 51 51 46 43 41 41 39 39 42 38 29 26 24 24 22 22 22 22 21 21 23 20 21 20 21 23 23 24 24 23 23 17 17 22 18 19 13
40 39 41 46 50 50 49 46 42 41 41 40 39 36 36 32 26 22 20 19 20 20 20 20 20 20 22 19 18 18 18 21 22 22 23 22 22 23 22 13 16 15 15
40 39 43 49 48 47 46 43 42 41 40 38 37 33 26 23 23 21 20 21 21 21 18 17 18 18 19 17 18 18 17 18 18 19 18 20 20 20 18 17 16 16 15
39 44 47 48 46 45 44 43 41 40 39 38 35 29 25 24 23 21 19 18 17 18 14 14 15 16 16 17 18 18 18 18 17 16 17 21 20 22 21 20 18 16 17
41 45 47 47 46 44 43 42 40 38 37 35 31 29 26 25 23 20 18 17 16 16 13 14 14 14 15 15 16 19 19 17 16 14 15 19 20 21 22 21 20 18 16
44 46 47 46 44 43 41 40 37 34 31 29 26 24 22 20 17 15 15 16 15 13 13 14 14 14 15 15 16 18 15 15 15 16 17 18 21 23 23 24 23 21 18
44 46 45 43 42 40 37 35 33 29 26 23 21 18 15 14 13 13 12 12 12 13 14 14 14 15 15 15 15 16 16 14 16 17 17 18 21 22 23 24 24 24 22
44 43 41 39 37 35 33 29 26 23 20 18 15 13 12 11 11 11 11 12 13 13 14 14 15 15 15 15 15 14 14 15 17 17 18 19 20 22 23 24 23 23 23
41 39 38 35 34 31 28 25 22 19 17 15 13 12 12 11 11 11 12 13 13 14 14 15 15 15 16 15 14 14 15 16 18 18 19 19 19 20 22 22 22 23 23
38 37 36 34 31 28 24 21 19 17 15 14 13 12 12 12 12 12 13 13 14 14 15 15 14 15 16 15 14 14 16 18 19 20 20 20 20 21 22 22 22 23 23
38 37 34 32 28 25 21 18 17 15 15 14 13 13 13 13 13 13 14 15 14 14 14 14 14 15 14 14 14 18 20 20 20 20 21 21 21 21 22 22 22 22 21
37 36 33 30 27 23 19 17 16 16 15 15 16 15 16 16 15 15 15 15 15 14 14 14 14 14 14 11 20 22 22 22 20 21 21 21 24 27 26 23 22 22 23
37 35 33 29 26 22 19 17 16 17 17 16 16 18 16 15 15 14 14 14 14 13 13 13 13 13 12 22 25 25 23 23 21 21 21 21 24 24 28 28 28 27 28
37 35 32 29 26 22 19 17 17 17 17 16 16 16 15 15 15 14 13 13 12 12 12 12 12 12 13 23 26 27 23 22 22 21 21 21 21 25 23 28 29 32 30
38 36 33 30 26 22 20 18 18 17 17 16 15 16 15 13 13 12 12 12 12 12 12 12 12 12 12 25 25 27 22 22 21 21 21 21 22 25 24 24 31 25 22
39 36 34 29 24 21 19 18 17 16 15 14 14 13 13 12 12 11 11 12 12 12 12 12 12 12 14 24 25 25 22 21 21 21 22 24 23 25 28 28 23 20 19
39 36 31 26 23 20 18 17 15 14 13 13 12 12 12 12 11 12 12 12 12 12 13 12 13 17 15 23 26 24 22 21 21 22 22 26 23 27 30 21 20 19 18
35 31 28 25 20 18 17 15 14 13 13 12 12 12 12 12 12 12 12 12 12 12 13 13 15 15 17 20 25 26 22 21 22 20 21 22 27 28 26 25 19 20 24
31 28 23 19 18 17 17 14 13 13 12 13 13 13 13 12 12 12 12 12 13 13 14 15 16 18 18 23 24 26 26 25 20 22 22 22 26 25 24 22 25 26 24
25 23 19 17 17 17 16 13 12 12 12 12 13 13 14 13 13 12 12 13 14 15 16 16 17 17 18 18 24 26 26 25 23 22 24 26 24 23 20 22 24 23 16
21 20 18 16 13 14 13 11 11 11 11 12 13 14 17 14 13 14 13 15 15 16 17 18 18 18 18 18 19 21 21 25 23 24 21 22 20 21 20 18 17 16 17
21 20 17 14 11 11 11 11 11 11 11 12 13 15 15 13 13 14 14 16 18 19 19 19 19 18 18 18 23 23 21 22 22 22 17 14 15 15 15 15 16 16 17
18 16 13 11 10 10 10 11 12 13 12 12 14 17 14 14 14 14 15 19 20 22 22 21 20 18 22 24 25 25 25 25 24 18 14 15 15 15 15 15 16 16 18

GFSMW_sfc_dewp_045.txt.gz
Dewpoint
39 42 43 42 42 43 46 49 56 60 59 55 53 51 49 48 48 41 40 38 39 30 27 28 25 26 23 21 20 25 24 24 26 23 22 25 25 30 28 19 27 23 23
38 41 41 41 41 44 46 51 57 57 56 55 52 48 49 48 47 43 38 36 32 28 24 25 24 24 22 21 22 23 23 23 28 21 23 19 17 22 19 26 24 21 20
31 36 40 41 45 47 47 52 54 53 51 47 45 43 43 44 42 39 37 32 25 24 24 24 23 24 24 23 23 24 25 21 25 24 19 15 13 18 19 21 25 18 17
31 32 35 42 46 48 50 53 51 48 45 46 45 45 46 44 40 38 35 33 27 23 22 23 22 22 23 22 21 20 22 24 19 22 19 23 20 13 11 19 18 18 14
30 31 35 41 45 50 52 51 47 46 44 44 46 47 45 42 37 32 29 27 21 21 21 22 23 21 21 20 20 19 20 19 21 21 20 20 20 23 19 10 13 15 16
30 33 38 43 47 51 51 48 45 43 43 43 43 44 40 34 26 27 23 21 19 20 20 20 21 20 20 20 20 19 20 18 20 20 19 19 17 15 15 14 16 16 14
33 37 42 46 48 50 48 46 44 41 40 39 36 34 27 26 22 23 19 18 16 17 18 18 17 18 20 20 20 22 23 22 20 18 17 21 19 20 19 19 17 16 17
35 39 43 47 48 49 46 44 42 40 38 35 30 27 27 25 21 20 19 16 15 16 17 17 16 17 18 18 19 22 21 22 20 17 17 19 19 21 21 20 19 19 15
32 41 45 47 48 47 46 43 41 39 36 32 28 25 23 22 20 18 16 16 15 15 16 17 17 17 17 17 19 19 17 17 18 18 19 19 20 22 22 22 22 20 17
30 41 46 47 47 46 43 41 38 35 32 28 25 21 18 16 16 15 15 15 14 15 16 16 16 17 16 16 16 16 17 16 19 19 19 19 21 21 22 23 22 22 21
36 44 46 45 43 40 39 35 32 29 26 22 18 17 15 13 12 12 13 14 15 15 15 15 15 15 15 14 13 14 16 17 19 20 20 20 21 21 21 22 22 22 21
42 44 42 39 38 35 33 31 28 24 21 18 15 14 13 12 12 12 13 14 14 15 15 15 14 14 15 14 12 14 17 18 20 20 21 21 19 20 20 21 21 22 22
41 38 37 36 34 31 28 26 22 18 16 15 13 13 13 12 12 13 14 14 15 15 15 14 14 13 14 13 13 16 19 21 21 21 21 21 20 19 20 22 23 23 22
38 37 35 32 29 26 24 20 17 16 15 14 14 14 13 13 13 14 15 15 15 15 14 14 14 14 13 13 15 20 22 23 22 22 22 21 21 21 22 23 23 23 22
37 35 31 28 25 22 19 17 15 15 15 15 16 16 15 15 15 16 16 15 15 14 14 13 13 13 13 10 21 23 24 24 23 22 21 21 24 28 27 24 23 22 25
36 33 29 26 23 20 18 17 16 16 17 16 16 17 16 15 16 15 15 15 14 14 14 13 13 12 10 22 26 26 23 23 22 21 21 21 25 25 28 28 28 27 27
34 31 28 25 22 19 17 16 16 17 16 16 16 15 15 15 15 15 14 14 13 13 13 12 12 12 13 23 26 26 23 22 22 21 21 21 21 25 24 27 29 31 31
34 31 28 24 21 19 18 17 17 17 17 16 15 15 14 14 14 14 13 13 13 12 12 12 12 13 13 25 25 27 23 22 22 22 22 22 22 24 24 24 32 28 22
34 31 28 23 21 19 18 18 17 17 15 14 14 13 13 13 13 12 12 12 12 12 12 12 13 14 17 24 25 25 22 21 21 22 22 22 22 26 27 29 27 20 19
35 30 27 23 20 18 18 17 16 14 14 13 12 12 13 13 13 12 12 13 12 12 12 12 15 18 16 23 25 24 21 21 21 22 20 24 24 27 30 23 21 20 17
33 29 26 22 20 18 18 16 15 14 13 12 12 13 13 13 12 13 12 12 12 13 13 15 16 17 18 20 25 25 22 22 22 21 21 21 26 29 26 25 19 20 25
31 28 23 20 19 19 18 16 14 12 12 13 14 14 13 12 12 12 12 12 14 14 15 17 17 17 18 22 23 25 26 25 21 21 22 22 27 25 24 23 25 26 24
27 24 21 19 18 19 17 14 12 12 12 13 14 13 13 13 12 12 13 13 15 15 16 17 17 17 18 18 24 26 26 25 24 23 24 26 25 23 20 22 24 23 16
23 21 19 18 17 17 15 12 12 12 13 13 14 14 14 14 13 14 13 15 15 16 17 18 17 18 17 18 19 21 22 24 24 24 22 22 21 21 20 17 17 15 17
22 21 18 14 13 12 11 11 12 13 12 13 14 16 14 13 13 14 14 17 18 19 18 19 18 17 17 18 23 23 21 23 22 22 18 14 14 14 14 14 15 16 16
19 16 14 12 11 10 10 12 13 13 13 14 15 15 14 14 14 14 14 19 20 21 21 20 19 18 22 24 25 25 25 25 24 18 13 13 14 14 14 15 16 16 19

GFSMW_sfc_dewp_048.txt.gz
Dewpoint
36 38 40 42 45 45 45 45 47 52 57 59 60 62 62 58 57 55 51 48 41 36 30 30 29 29 27 24 23 25 25 25 24 21 21 25 25 30 29 25 23 24 22
23 30 36 40 41 44 45 46 48 53 58 59 59 58 56 52 52 51 47 44 39 32 34 29 29 26 24 24 23 24 24 23 25 21 24 21 19 23 27 21 23 19 20
22 20 22 36 42 43 45 46 49 55 58 58 58 53 49 45 44 43 42 38 31 27 28 29 26 26 25 25 25 26 26 23 24 22 21 19 18 16 18 21 17 18 16
26 26 24 24 36 42 47 47 50 55 57 56 52 51 52 47 43 42 39 34 29 28 26 25 24 25 24 23 22 21 21 23 21 23 17 22 17 13 12 16 16 16 14
26 27 29 31 29 42 48 50 52 54 53 53 53 53 52 45 40 36 33 31 29 28 26 23 24 23 22 22 22 21 20 18 21 21 20 19 18 19 18 14 14 15 17
25 28 30 33 34 40 50 52 52 52 52 53 53 53 47 40 35 33 32 31 31 29 22 21 22 22 22 22 21 21 21 19 21 20 19 18 17 15 16 15 16 17 15
22 27 29 33 37 40 50 52 50 50 50 51 51 49 44 38 36 32 31 27 22 21 21 20 19 20 22 22 22 24 26 24 22 20 17 18 18 18 18 18 17 15 16
24 26 27 33 39 45 49 50 49 48 48 49 49 44 36 33 30 26 23 20 19 19 20 18 18 19 19 19 21 23 23 25 22 19 19 19 19 19 20 20 19 16 14
26 29 30 38 40 45 49 49 48 46 46 45 42 35 29 26 21 19 18 18 18 17 18 19 18 18 18 17 20 20 17 17 19 19 20 20 20 21 21 21 21 19 16
34 36 33 35 43 46 49 48 46 44 42 39 36 31 24 20 19 18 17 18 16 16 17 17 17 17 16 15 15 15 16 16 19 19 20 20 20 20 21 22 21 20 19
38 38 38 34 43 47 48 46 43 40 38 35 31 27 21 17 17 16 17 16 15 16 15 15 15 14 13 13 12 13 15 17 19 20 20 20 20 20 18 19 19 19 19
37 38 37 41 46 46 45 42 39 37 34 29 24 20 17 17 16 16 15 14 14 15 14 13 12 12 12 11 10 12 16 18 19 20 21 20 17 19 18 18 19 20 21
37 37 42 43 43 42 40 38 35 30 26 23 18 16 16 17 16 15 15 14 14 15 14 13 12 11 13 11 10 14 17 20 21 21 21 21 19 18 19 19 21 22 21
39 40 40 41 40 39 36 32 25 21 20 18 17 17 17 16 15 14 14 15 15 14 14 13 12 12 11 12 14 19 21 21 21 22 22 20 19 19 20 21 21 20 22
39 39 39 37 35 30 26 20 18 17 17 17 19 18 17 16 15 16 16 15 15 14 14 13 12 13 14 9 20 22 22 21 21 21 20 19 22 26 27 23 23 22 23
36 36 34 32 27 23 19 18 17 18 19 19 18 18 16 16 17 16 16 16 15 14 14 13 12 13 9 21 25 26 22 21 20 19 18 19 22 23 27 27 28 27 27
35 32 30 27 23 21 19 18 17 18 18 18 16 15 15 16 16 16 15 16 15 14 13 12 13 11 13 22 26 26 22 21 20 19 19 18 18 23 21 25 27 28 32
35 31 27 24 22 20 19 18 18 19 18 16 14 14 14 14 15 15 15 15 14 13 12 12 12 14 12 23 25 26 22 20 20 20 20 20 20 21 22 22 30 30 22
32 30 27 24 22 20 19 19 19 18 17 15 13 13 13 14 14 14 13 13 13 13 12 13 13 13 14 20 25 25 20 19 20 20 20 21 20 24 27 27 30 20 19
32 28 26 23 20 19 19 19 18 17 15 13 12 11 13 14 14 14 14 14 13 13 13 13 13 15 14 19 24 24 20 19 19 20 19 23 23 26 28 25 21 20 16
29 25 23 21 20 19 19 18 17 15 13 11 11 13 14 13 13 14 14 13 14 14 12 13 13 14 15 17 23 25 22 20 20 20 18 19 25 27 27 26 20 19 23
30 27 23 20 19 19 19 18 16 13 12 13 14 14 13 12 13 14 13 13 14 13 12 13 13 13 13 17 20 25 26 25 21 19 20 21 26 26 25 23 24 26 26
29 26 23 21 20 20 19 15 12 13 14 14 14 14 14 14 14 13 14 13 13 11 12 12 12 12 13 13 20 24 25 25 23 23 24 26 25 24 20 21 24 23 16
27 24 22 20 19 18 15 12 12 13 14 14 13 14 14 14 14 15 14 13 13 13 14 13 13 13 13 13 16 19 20 23 23 24 23 21 21 20 19 17 17 16 17
24 24 22 20 16 14 12 12 13 14 14 14 15 16 16 14 13 14 13 14 15 19 16 14 14 14 14 16 23 24 21 23 23 23 17 13 12 13 13 15 16 17 17
22 20 19 16 13 12 11 13 14 14 14 14 14 14 14 13 14 13 12 18 19 20 19 19 19 17 21 24 25 25 25 25 24 18 13 12 14 15 14 16 17 18 21

GFSMW_sfc_dewp_051.txt.gz
Dewpoint
33 33 37 39 40 42 43 43 45 47 49 55 59 60 60 64 63 64 63 60 57 48 40 37 37 37 36 31 29 29 29 29 26 28 32 32 30 32 32 32 27 28 26
25 29 34 37 39 42 45 46 45 47 51 56 59 59 61 57 58 57 53 50 45 40 41 39 38 32 31 28 27 28 29 28 28 26 32 30 27 28 30 30 25 24 24
24 23 24 33 41 42 43 45 46 47 52 56 59 58 53 51 50 49 47 45 42 40 41 37 36 34 32 32 30 31 32 30 29 26 25 26 26 22 26 24 24 21 24
26 26 26 25 31 40 45 47 47 48 53 58 58 55 52 50 47 46 42 40 36 36 35 33 30 29 31 30 30 25 25 28 25 29 19 27 21 19 17 24 22 21 17
26 26 29 31 29 35 46 49 48 49 54 57 58 55 52 51 45 40 36 34 33 33 33 34 34 28 30 28 28 25 23 20 25 25 23 21 21 20 20 20 20 20 21
21 23 27 31 33 38 45 51 50 51 55 58 54 53 54 45 39 35 33 34 35 34 31 28 28 27 27 27 25 25 24 22 25 22 20 20 20 19 20 19 20 20 19
20 21 25 29 31 36 40 47 50 51 54 54 53 54 48 43 39 35 34 33 33 31 27 27 24 25 27 25 25 28 30 29 27 22 19 19 20 21 20 21 20 19 19
22 24 24 27 29 37 40 43 49 51 51 53 53 52 46 43 38 34 30 26 26 26 25 22 22 22 21 22 24 27 28 29 26 23 22 21 21 22 22 22 22 20 19
27 28 27 30 31 32 38 45 49 50 51 52 52 48 42 37 34 28 24 23 22 22 23 22 20 20 19 19 24 23 17 18 19 21 23 22 23 24 24 24 23 22 18
33 33 34 35 37 36 39 46 48 48 50 51 47 41 36 29 25 21 19 21 18 19 21 19 19 18 17 16 16 16 16 15 19 20 20 21 22 22 24 24 23 22 20
31 32 36 37 37 37 42 47 47 48 48 45 39 34 26 22 21 20 20 19 19 19 17 17 16 15 14 12 12 12 14 16 19 20 21 21 21 22 21 21 21 21 21
39 38 40 40 38 37 45 47 46 45 43 39 34 28 22 20 19 19 18 18 18 16 15 14 13 12 12 10 9 11 14 17 18 20 21 21 18 21 20 20 20 21 21
40 39 38 37 37 41 46 45 42 40 37 34 28 22 20 19 18 17 17 16 16 15 14 13 12 11 13 11 10 13 15 18 20 21 21 21 21 19 20 21 21 23 21
39 40 40 39 43 44 44 41 38 34 30 25 22 21 20 18 17 16 17 17 15 15 14 13 13 13 11 12 13 18 20 21 20 22 22 21 21 19 20 22 23 22 23
38 39 40 41 41 41 39 34 30 28 24 22 23 21 19 18 17 18 18 17 16 15 14 14 13 13 15 10 19 22 22 21 20 21 20 20 24 25 25 23 24 24 24
37 38 38 39 38 34 29 25 23 21 22 24 21 20 19 18 20 19 18 17 16 15 15 14 13 13 9 21 25 26 23 21 20 20 19 19 23 22 26 27 27 25 25
36 36 35 31 28 24 22 20 20 22 23 20 18 18 19 19 19 18 18 18 17 16 15 14 13 12 14 21 25 26 23 21 20 19 19 19 18 23 21 24 26 27 29
33 32 28 25 22 21 21 21 21 20 19 18 18 18 18 17 17 17 17 17 16 15 13 13 13 14 13 20 24 26 22 19 19 19 20 20 20 22 22 23 27 28 27
32 29 25 23 23 23 23 21 19 18 18 17 16 16 16 16 16 16 15 14 14 14 13 14 14 13 13 19 23 25 20 19 19 20 19 21 21 24 26 25 27 25 21
30 28 27 27 27 27 29 27 25 22 19 16 15 14 15 15 16 15 15 15 15 15 15 13 14 14 13 17 21 23 20 19 19 21 21 24 22 26 27 24 22 22 20
31 32 33 33 34 34 32 27 24 17 14 14 14 15 15 15 15 16 15 15 15 17 14 14 13 13 14 15 20 23 22 21 22 22 20 20 25 27 27 27 22 21 23
26 24 22 22 22 22 21 18 15 13 13 15 16 15 15 14 15 16 15 15 14 15 13 12 14 13 12 16 18 22 25 25 21 20 21 23 26 27 26 24 24 25 25
30 27 24 22 21 21 19 16 14 15 15 15 15 15 15 15 16 15 15 14 14 12 11 13 13 13 14 12 19 21 24 25 22 22 24 26 26 24 21 21 23 22 17
29 26 23 22 21 19 16 14 14 15 14 14 15 15 15 14 14 17 16 14 13 12 14 12 13 14 13 14 17 20 22 23 23 25 24 23 22 19 18 17 17 17 18
26 25 23 20 16 14 13 13 14 14 14 14 15 16 16 14 14 15 14 13 15 18 16 15 14 14 15 16 23 24 22 23 24 23 20 16 13 14 15 16 17 18 18
26 24 20 15 14 13 13 14 16 16 16 15 17 17 16 14 15 14 12 19 19 18 20 19 18 18 21 23 25 25 25 25 25 19 15 13 15 16 16 16 17 19 21

GFSMW_sfc_dewp_054.txt.gz
Dewpoint
31 31 34 35 35 37 44 44 46 46 50 55 60 61 61 64 64 65 63 62 57 45 42 40 38 37 35 33 30 30 30 29 28 27 28 29 30 30 29 30 27 26 24
28 30 33 34 37 39 40 44 44 46 47 51 58 61 60 57 56 57 58 54 47 46 40 39 38 34 32 29 29 30 29 28 27 24 28 27 26 28 27 31 24 23 22
27 26 27 33 36 38 40 44 45 46 48 52 57 55 54 52 50 48 47 45 44 45 45 42 42 42 42 39 33 30 30 29 27 23 25 23 24 21 24 24 25 18 22
27 28 27 25 31 37 40 43 46 46 49 55 56 56 56 54 51 48 46 42 41 40 40 40 40 37 35 30 28 27 25 29 26 27 22 24 21 18 17 22 21 19 17
27 27 29 30 31 33 40 43 45 46 48 54 57 55 53 49 47 41 38 38 37 36 38 34 31 32 33 26 26 24 22 23 26 25 23 21 22 19 19 20 20 21 22
20 23 27 33 33 33 36 44 46 48 50 56 56 53 49 45 40 36 33 33 34 35 33 32 33 31 31 27 27 25 24 23 24 23 22 22 22 21 20 19 19 19 20
21 23 24 26 30 31 36 38 48 47 52 57 55 53 46 43 39 36 34 32 33 33 34 33 31 33 31 27 28 29 28 26 26 21 21 22 22 22 21 21 21 21 20
22 24 26 28 30 36 36 38 45 49 54 54 53 47 43 41 38 36 33 31 30 30 30 27 27 27 26 26 28 29 28 27 27 21 21 23 22 23 23 23 22 20 20
26 27 28 28 30 33 38 39 46 50 53 53 49 45 43 40 37 34 31 30 27 25 24 22 23 23 22 22 25 26 20 19 20 20 21 22 23 24 24 24 23 22 19
32 33 33 35 35 35 36 40 47 50 51 52 47 43 38 35 31 28 26 26 23 22 23 21 21 20 18 18 19 19 16 16 20 21 19 21 23 22 23 24 24 23 21
38 39 40 39 35 37 38 43 47 50 52 45 39 34 30 28 26 23 22 20 20 20 21 19 18 17 16 15 14 14 16 16 18 20 21 22 21 22 22 22 22 22 22
41 41 41 41 39 39 39 45 47 50 42 37 29 26 24 23 21 19 19 21 18 18 18 17 15 14 14 11 10 12 15 17 18 20 21 21 20 21 21 21 20 21 21
40 40 40 41 41 40 39 47 47 41 36 30 25 24 24 22 20 19 19 18 17 18 15 15 15 14 15 13 12 14 16 18 20 21 21 21 21 21 21 21 22 23 22
38 38 44 46 40 39 46 45 40 36 29 26 24 25 24 21 18 17 17 17 16 15 16 15 16 16 14 14 16 19 21 22 21 22 22 21 21 20 20 21 22 23 23
37 38 45 46 45 43 41 36 32 27 25 23 24 23 19 18 18 18 18 18 16 16 16 16 15 15 16 17 24 25 24 22 21 21 21 20 24 26 25 22 23 24 24
37 37 43 44 39 33 31 28 24 23 24 24 25 22 20 19 19 18 18 18 17 17 17 16 15 17 11 23 25 26 25 23 21 21 20 20 24 23 26 27 27 25 24
36 36 31 28 26 25 24 23 22 23 22 22 22 21 20 20 19 18 17 17 17 16 15 15 14 14 19 23 24 26 24 23 22 20 20 19 19 24 22 26 26 27 28
34 29 26 23 23 21 21 22 23 22 21 22 23 22 20 19 19 18 18 17 17 15 14 14 14 15 18 21 22 26 23 21 20 20 20 20 20 22 23 22 24 26 26
29 26 23 22 21 22 23 23 22 21 20 20 20 20 19 18 17 16 15 15 15 14 14 15 14 13 16 20 21 24 22 20 19 20 21 22 22 25 27 25 25 24 23
25 23 25 27 25 24 24 26 27 27 26 23 19 17 17 16 16 15 16 17 17 15 16 14 14 19 13 18 20 22 22 21 21 22 22 27 23 27 27 24 23 22 20
31 30 31 31 35 35 34 31 30 27 25 22 20 17 16 16 16 16 16 16 16 16 14 13 13 12 14 15 19 22 21 22 22 23 21 21 26 27 28 27 22 21 22
37 36 35 36 38 38 37 33 31 29 22 18 16 16 15 15 16 16 15 15 15 14 13 13 14 14 12 19 19 21 23 25 22 21 21 23 27 27 26 24 23 25 24
33 35 36 37 37 32 22 13 15 16 15 15 15 16 16 16 16 15 15 14 14 13 12 13 14 14 15 14 21 24 25 26 23 22 25 27 26 25 22 21 23 22 17
24 23 21 20 19 16 15 15 15 15 15 15 17 16 15 15 15 17 16 14 14 14 14 13 14 15 15 16 19 22 23 25 24 26 24 24 23 21 19 18 18 17 18
26 24 21 16 14 14 14 15 15 15 16 16 16 17 17 15 15 15 15 14 19 18 18 18 17 16 17 18 24 24 22 23 24 24 20 17 14 15 16 17 17 18 18
25 20 16 14 13 14 14 15 16 16 16 17 18 18 16 15 15 14 15 18 19 17 18 18 18 18 21 24 25 25 26 26 25 18 15 14 16 16 16 17 17 18 20

GFSMW_sfc_dewp_057.txt.gz
Dewpoint
32 31 32 32 33 38 43 45 51 56 61 64 64 64 63 62 63 62 59 60 55 50 47 44 39 37 35 33 30 31 28 27 27 25 26 30 30 28 29 30 26 26 25
30 31 32 33 34 34 37 45 46 50 57 62 64 64 60 57 58 61 60 56 49 48 42 39 38 33 31 30 28 29 29 28 27 24 29 26 25 28 29 31 27 24 23
27 28 29 31 34 36 38 40 44 46 48 54 58 56 55 54 52 49 47 46 44 46 43 40 40 39 40 38 35 30 30 29 27 24 25 21 24 22 24 27 25 19 22
27 28 28 27 29 35 37 40 44 46 46 56 57 58 59 57 53 49 48 47 44 42 40 40 41 40 41 39 33 28 27 30 27 26 23 24 21 15 11 21 22 21 19
28 28 29 29 29 29 37 39 42 46 47 53 56 58 58 51 48 47 45 42 44 44 44 41 37 37 38 31 28 26 24 26 27 27 24 21 22 20 19 17 21 21 21
23 26 27 30 31 31 35 39 44 45 47 50 56 57 52 49 48 43 40 42 42 39 38 34 36 35 36 34 34 27 23 23 24 24 23 23 22 21 20 19 20 19 21
21 21 23 23 27 31 32 36 39 45 47 55 56 54 51 50 47 43 40 39 38 36 34 33 31 34 36 36 35 31 28 27 25 21 22 23 22 23 22 21 20 20 21
22 22 24 26 28 30 31 35 35 45 53 55 52 50 48 47 44 43 42 39 39 36 32 30 31 32 33 34 32 30 29 28 26 21 21 23 23 23 23 22 21 20 20
35 35 35 32 28 29 33 34 36 47 54 51 47 46 45 44 43 41 40 37 35 31 29 29 28 29 29 29 28 26 20 22 21 21 21 23 24 24 24 24 24 21 19
37 38 39 39 38 36 33 37 39 48 53 48 45 44 43 42 40 38 35 31 28 26 26 27 26 26 23 23 23 21 18 18 21 22 19 21 23 22 23 23 23 23 21
39 40 40 41 41 41 38 37 41 50 49 45 41 39 38 37 34 31 29 26 24 24 23 23 21 23 18 18 17 19 17 17 18 19 21 21 21 22 22 22 22 21 21
40 41 42 41 40 41 41 38 45 50 42 38 35 32 30 30 28 27 25 22 22 22 20 19 18 17 15 13 13 13 15 17 18 19 21 21 20 21 21 21 20 21 21
40 39 38 39 40 42 42 40 48 40 34 32 29 28 25 24 23 21 21 21 21 21 20 16 16 14 16 14 14 16 17 19 20 21 21 21 22 21 22 20 21 22 22
38 38 40 45 42 44 45 45 38 33 31 28 27 25 24 22 20 20 20 24 24 24 17 18 17 17 15 17 20 22 23 22 22 22 22 22 21 21 20 20 21 22 23
37 37 44 40 35 40 40 35 33 31 29 28 27 26 23 22 22 23 24 23 21 17 17 15 16 16 18 19 24 25 25 24 22 22 21 21 24 26 25 22 23 23 23
37 31 33 37 36 28 30 30 29 31 29 27 25 22 24 24 24 23 21 20 17 16 16 16 16 14 19 28 28 26 25 24 22 22 22 21 24 24 26 26 27 26 24
34 26 23 22 27 35 31 29 27 25 22 21 21 23 24 26 27 26 21 21 16 16 17 16 15 17 22 26 26 26 24 23 22 20 20 19 19 24 22 26 28 27 28
27 24 22 21 22 23 23 22 23 22 22 23 24 28 31 29 27 20 18 20 20 17 14 14 15 18 22 25 24 25 22 22 20 20 20 21 21 23 24 23 25 26 25
24 23 22 22 23 22 22 21 22 23 23 24 27 30 30 27 24 25 26 22 16 15 16 17 15 14 22 22 21 23 22 21 21 22 22 24 23 27 28 25 25 24 24
24 25 24 24 25 25 26 25 26 27 27 27 27 30 28 25 21 16 16 17 17 17 17 15 14 18 13 18 18 20 21 21 21 22 23 27 24 27 28 25 24 22 20
29 32 33 32 30 31 32 32 32 32 32 30 26 26 25 21 16 17 18 19 17 15 14 13 13 12 14 15 19 21 19 20 22 23 22 21 27 28 28 27 22 20 22
34 34 33 34 35 35 34 34 32 33 33 30 29 27 23 20 19 18 16 16 16 14 12 13 14 14 13 21 21 24 25 26 23 22 22 23 28 27 26 23 23 25 24
35 35 34 35 36 36 35 33 33 32 30 27 22 19 17 17 16 15 15 14 14 13 13 14 14 14 16 15 23 25 26 26 24 23 25 27 26 23 21 22 23 23 17
36 37 37 36 34 30 26 23 18 17 15 16 17 17 16 16 16 17 15 14 15 15 14 15 15 15 16 17 19 22 23 25 24 26 24 23 20 20 20 19 18 17 18
30 30 26 21 19 17 16 16 16 18 19 20 19 18 17 15 15 16 15 17 18 16 14 18 17 17 18 19 24 23 22 23 24 22 19 15 15 16 16 16 17 17 18
22 19 17 15 15 15 15 16 18 19 19 17 17 17 16 15 15 15 15 22 21 19 19 18 17 17 19 22 24 25 25 25 23 16 14 14 16 16 16 16 17 18 20

GFSMW_sfc_dewp_060.txt.gz
Dewpoint
32 34 35 34 35 36 38 44 57 62 64 64 64 63 63 62 61 59 56 58 56 53 49 46 41 38 37 34 29 30 25 24 25 24 26 31 30 28 30 30 27 27 25
30 32 33 32 32 33 35 40 48 59 63 64 64 64 64 60 61 61 58 59 55 51 47 43 38 36 34 31 30 29 29 28 26 23 29 26 25 28 27 30 28 25 23
29 28 29 31 32 33 35 36 44 52 61 63 61 57 56 56 55 55 55 53 52 53 47 42 39 38 43 35 34 36 37 32 26 24 26 23 21 21 22 26 24 20 22
28 29 28 28 29 31 34 37 40 46 52 61 62 59 59 56 55 51 51 47 50 51 47 42 40 42 41 39 41 37 34 32 27 27 23 25 21 14 10 20 23 22 19
28 28 29 29 29 28 31 36 40 44 47 58 60 60 60 55 50 50 49 49 47 47 47 45 42 43 41 38 36 35 33 28 29 28 24 22 23 20 18 15 20 22 21
22 26 28 30 30 30 31 37 39 41 46 53 59 59 56 51 49 46 46 47 47 46 47 44 44 42 36 34 34 32 29 25 25 25 24 23 21 22 20 19 19 19 21
25 25 24 23 25 31 33 34 37 40 44 48 55 58 55 53 51 47 47 45 45 45 41 43 40 38 34 34 34 33 32 27 25 22 23 23 23 24 22 21 20 20 21
36 36 36 35 31 29 29 32 34 35 42 50 55 56 53 53 51 48 46 45 43 43 41 40 39 36 33 32 32 32 33 32 25 21 21 23 23 24 24 22 21 19 20
36 37 38 39 38 38 35 33 34 35 48 52 51 50 51 48 46 45 45 44 43 41 39 39 37 33 32 31 31 30 27 25 23 22 22 23 24 25 24 24 24 21 18
37 38 39 40 40 40 40 39 38 36 50 48 47 47 47 46 45 44 43 43 42 38 38 35 31 30 29 27 26 22 21 21 22 23 20 21 23 23 23 23 23 24 21
37 39 41 42 42 42 42 41 40 41 47 46 45 44 43 43 43 42 41 40 36 33 30 27 28 25 25 26 21 19 18 18 19 20 20 21 21 22 22 22 22 21 21
40 41 41 40 40 40 40 41 41 45 47 44 43 42 41 41 40 39 37 33 31 29 26 23 22 21 21 19 17 15 17 18 18 19 20 21 21 21 21 22 21 21 21
41 39 38 40 41 40 41 41 41 46 42 39 37 37 36 34 33 30 29 29 26 24 21 21 20 18 17 15 16 17 18 19 21 21 21 21 21 21 22 21 21 21 21
39 38 42 39 31 32 42 43 42 39 37 35 33 33 31 30 28 24 24 24 23 23 22 18 17 17 18 20 21 23 23 22 22 22 22 21 21 21 20 20 20 21 22
38 35 37 38 31 30 31 33 33 34 34 34 31 29 29 27 24 25 26 24 21 19 19 17 17 20 21 22 25 25 24 23 22 22 21 22 24 27 25 23 23 23 23
34 27 25 34 35 31 30 32 33 35 34 31 30 28 26 27 28 26 24 23 24 24 24 25 25 24 26 30 30 27 23 23 22 21 21 20 23 23 27 28 28 26 24
28 23 22 24 32 35 36 35 35 36 33 31 28 27 27 27 27 27 27 28 26 26 28 26 23 24 26 29 29 29 22 21 20 19 20 20 20 25 23 27 28 28 29
26 22 21 23 24 25 27 25 24 26 30 30 30 31 32 32 32 31 30 27 29 27 25 20 19 23 24 27 26 27 21 21 21 21 21 21 23 24 25 24 25 25 26
23 23 23 23 23 22 24 25 28 28 30 31 32 33 34 33 32 32 31 30 28 23 17 18 17 22 23 24 23 24 21 20 20 21 22 24 24 27 28 26 26 25 24
25 24 25 26 25 25 27 27 28 29 30 32 33 33 33 33 32 29 28 27 25 22 20 16 14 18 14 21 19 21 21 20 20 22 23 26 25 27 28 25 23 22 20
32 32 30 30 31 30 30 30 31 31 33 33 33 33 32 30 25 24 23 22 19 17 15 14 13 13 15 15 20 22 20 21 23 23 22 22 28 29 28 26 21 20 22
33 33 34 34 35 35 34 33 31 33 33 32 32 32 32 31 28 24 20 19 17 14 13 14 15 15 14 22 23 24 25 26 23 22 23 23 28 27 25 22 24 25 24
34 34 34 35 35 35 33 32 32 33 32 32 32 32 31 30 27 22 17 14 14 14 13 14 14 14 16 17 23 26 26 26 24 24 26 27 25 22 21 22 23 23 17
34 33 33 34 34 35 34 33 33 33 32 32 31 31 28 18 16 16 15 15 15 14 14 14 13 15 17 18 21 23 23 25 24 26 21 20 19 20 20 19 18 17 18
36 36 35 33 28 26 27 26 25 21 19 19 18 19 18 16 15 16 15 16 14 13 13 16 16 16 16 18 23 24 22 23 23 21 15 14 15 15 16 16 17 17 17
35 29 23 19 17 17 16 18 19 21 24 24 18 17 16 15 16 17 18 22 21 20 20 22 18 17 20 23 24 25 24 24 23 16 14 14 15 16 16 16 16 17 19

GFSMW_sfc_dewp_063.txt.gz
Dewpoint
32 33 35 36 36 36 39 45 60 63 65 64 64 64 63 63 62 60 59 57 57 57 55 52 46 43 40 36 32 29 25 24 26 26 28 30 31 28 29 29 28 28 26
30 30 32 33 33 34 35 39 56 60 64 64 64 64 64 63 62 61 59 58 57 56 54 49 45 41 38 32 30 30 29 26 25 23 28 25 25 28 27 30 27 25 24
30 30 30 30 32 33 33 33 42 57 62 64 63 59 59 58 56 57 58 57 57 56 55 49 44 41 42 40 37 34 33 32 33 28 27 24 21 23 22 26 24 22 22
29 29 30 29 29 30 32 34 36 45 59 63 62 61 61 60 61 61 57 52 56 55 52 48 46 43 44 42 45 44 38 35 33 30 25 24 22 14 9 20 21 21 19
28 29 29 30 30 30 29 31 35 40 50 61 62 61 60 60 54 52 52 48 52 52 51 47 45 47 48 47 46 45 37 33 34 30 24 22 23 20 15 11 18 22 21
31 32 30 28 28 30 31 32 35 37 44 55 61 62 60 53 53 51 51 48 48 49 49 48 47 46 45 44 44 43 37 29 32 28 27 25 23 21 20 18 18 18 20
36 37 37 37 36 33 30 32 34 38 41 48 56 59 58 54 54 53 53 48 46 46 46 47 47 46 44 41 40 37 31 30 29 26 25 26 24 25 22 20 19 18 21
36 38 38 39 40 40 39 34 33 33 34 45 51 55 56 55 53 52 52 51 49 47 45 45 45 43 40 37 37 34 33 30 27 23 24 25 24 23 23 22 20 18 20
36 37 39 40 41 41 41 40 40 38 37 43 50 53 52 51 50 49 49 48 47 45 44 44 42 40 37 32 33 31 30 24 26 24 24 25 25 25 24 24 23 20 16
35 38 40 41 42 42 42 42 42 41 40 47 48 49 49 47 46 46 46 44 45 43 43 42 38 36 34 30 28 25 24 23 25 25 22 23 24 23 24 24 24 23 20
37 40 41 41 41 41 41 41 41 41 43 47 46 45 44 44 44 44 44 43 42 42 40 39 35 30 27 26 24 23 21 21 22 22 21 22 22 23 23 23 23 22 22
41 41 39 39 41 39 37 37 40 42 44 45 43 42 42 43 42 41 42 42 39 38 35 31 28 27 26 23 20 18 20 20 20 21 21 21 21 22 21 22 21 21 21
41 38 39 41 35 30 31 34 40 41 45 43 42 41 40 41 42 41 41 38 34 29 27 27 25 22 20 17 17 18 21 23 25 24 22 22 22 21 22 21 21 21 20
40 37 37 37 31 30 31 32 35 41 39 39 38 36 36 37 35 33 33 31 26 25 24 22 19 20 22 23 26 28 29 28 24 24 23 22 21 21 20 20 21 21 21
37 29 32 35 34 32 33 34 33 33 34 33 34 34 34 29 29 27 26 25 21 18 17 18 21 24 26 26 29 29 27 23 22 22 22 22 25 26 25 24 24 23 23
30 25 26 33 35 34 34 35 33 31 31 29 28 28 27 28 26 24 23 23 24 25 26 29 32 34 35 37 35 29 24 22 21 20 20 20 22 25 27 28 28 27 25
26 23 23 27 29 34 35 35 34 33 31 30 29 28 29 29 29 29 29 29 30 30 31 31 32 33 34 35 34 29 23 21 20 20 20 20 21 26 24 27 29 28 30
24 22 23 24 26 28 27 30 32 33 34 33 33 33 32 32 32 32 32 31 32 32 33 33 33 32 33 33 31 27 21 20 20 21 21 21 22 25 26 25 26 26 26
23 24 24 24 25 28 29 31 32 33 33 33 34 34 34 33 33 32 32 33 32 32 31 31 30 28 25 27 28 24 20 20 20 21 22 24 24 27 28 27 26 25 24
25 26 26 26 26 26 28 29 30 31 32 33 33 34 34 33 33 32 32 32 32 31 29 24 20 24 19 22 19 24 21 20 20 23 23 26 25 28 29 25 23 21 19
31 30 31 30 31 31 31 32 33 33 34 34 33 33 33 32 33 32 32 30 25 19 15 13 14 15 16 18 21 26 22 22 24 23 23 23 28 28 27 26 20 20 22
33 33 33 34 35 34 33 32 32 34 34 33 33 32 33 33 32 27 23 20 17 14 13 14 14 15 15 22 22 25 26 26 23 23 23 24 28 26 24 22 24 25 24
33 33 34 34 35 34 33 32 33 34 33 32 32 32 33 32 31 25 18 14 14 14 13 14 14 13 16 17 25 25 25 26 24 24 25 25 23 22 20 22 23 23 17
33 33 34 34 35 34 35 33 33 33 32 32 32 33 32 26 17 16 15 15 14 14 14 13 12 14 16 18 20 22 23 25 24 24 18 19 19 20 19 18 18 17 17
33 34 34 33 32 33 33 33 33 32 31 30 30 25 19 16 15 16 14 11 11 12 12 14 14 15 16 18 23 24 23 23 22 20 15 14 15 15 15 16 17 17 17
35 35 33 25 26 26 25 24 22 22 20 19 19 18 16 17 19 19 20 23 22 22 22 22 18 17 21 23 24 25 24 23 22 16 14 15 15 16 16 16 17 17 18

GFSMW_sfc_dewp_066.txt.gz
Dewpoint
35 35 34 36 36 37 39 41 60 64 65 64 64 64 63 63 62 61 59 57 58 58 58 57 53 49 46 43 36 31 27 25 25 27 28 29 31 28 30 32 28 29 26
32 31 31 32 33 34 37 39 46 60 64 64 64 64 64 64 63 62 61 58 58 58 58 55 52 48 43 38 33 31 28 26 27 24 27 24 27 29 28 30 27 26 24
30 31 30 31 32 32 33 35 40 52 62 64 64 61 62 59 59 59 60 59 58 57 57 54 52 48 46 42 37 35 37 37 32 31 33 26 25 25 22 27 27 24 22
28 30 30 30 30 30 31 33 35 42 57 63 63 62 62 61 61 62 61 59 58 58 56 55 51 48 47 44 41 44 48 46 40 35 31 29 28 20 13 20 21 21 20
28 28 28 29 30 31 30 30 32 37 44 59 62 62 61 61 57 56 59 52 56 57 55 52 50 47 47 47 45 46 44 43 42 39 39 29 27 19 16 12 18 22 22
37 38 38 38 38 36 32 33 34 36 38 49 60 61 61 57 54 53 53 51 53 54 53 49 49 48 47 48 46 44 42 39 39 37 30 31 26 22 21 17 18 18 18
37 38 39 40 41 41 41 38 35 33 36 43 53 60 60 57 56 56 55 52 51 49 50 49 48 48 48 47 45 43 42 37 36 35 34 32 26 26 24 20 19 17 20
36 38 39 41 41 41 41 41 41 41 38 36 44 51 57 56 56 55 56 54 53 53 50 50 48 47 46 44 43 42 37 35 32 26 27 27 26 25 24 23 21 17 19
36 38 40 41 41 41 41 41 41 41 41 41 43 47 52 53 54 51 51 50 49 48 49 49 47 45 43 39 38 38 33 29 28 26 25 26 26 27 27 26 23 19 14
38 40 41 40 40 41 41 40 40 41 42 41 44 47 49 50 49 47 47 46 46 46 46 45 45 43 39 33 30 28 25 25 26 26 24 25 26 25 26 26 24 23 20
40 41 40 39 41 38 35 34 35 37 40 42 45 46 46 46 45 44 43 44 44 44 43 42 41 39 35 28 26 25 23 23 23 23 23 24 23 25 24 25 24 23 22
41 41 38 40 35 31 31 32 34 38 41 42 44 43 45 45 44 45 44 43 42 41 39 37 33 28 25 24 23 22 23 24 23 24 24 23 22 23 23 23 23 22 22
40 38 38 37 32 30 31 32 33 36 42 42 41 42 43 43 42 42 42 41 39 36 33 30 27 26 25 25 25 26 26 27 29 30 30 29 28 26 24 22 22 22 21
38 32 33 36 33 32 33 34 33 35 38 39 39 39 40 40 39 38 38 35 33 31 29 25 23 22 22 25 27 30 31 31 29 29 29 27 24 22 21 21 22 21 21
34 28 30 36 34 34 34 34 32 31 33 35 36 34 34 33 31 29 27 26 25 23 23 24 26 27 29 30 31 31 31 29 28 28 27 27 28 27 26 25 25 24 23
30 25 25 33 34 33 34 34 32 30 30 29 28 28 27 24 24 24 23 23 25 27 30 31 33 35 36 37 35 31 30 29 28 27 25 22 22 26 27 27 28 28 26
26 23 24 26 27 34 35 33 33 33 31 30 30 30 30 30 30 29 28 29 30 32 33 35 35 35 36 38 36 34 31 29 27 22 21 21 21 25 24 27 29 29 30
23 22 24 26 28 28 31 32 33 33 33 33 32 33 32 33 34 33 33 32 33 33 33 34 34 33 36 38 34 32 29 24 21 21 21 22 23 24 26 25 26 27 26
23 24 24 25 28 29 32 32 32 33 33 33 33 33 33 33 33 32 33 34 33 32 32 33 32 33 34 36 33 26 20 20 20 21 23 24 24 26 29 27 26 23 23
25 25 27 27 27 28 30 31 32 33 33 33 34 34 34 33 33 33 32 32 32 32 32 32 32 33 30 31 26 25 21 20 22 23 23 26 25 29 28 25 22 20 19
29 30 30 30 31 32 33 33 33 33 34 34 33 34 34 33 33 33 32 32 32 31 27 24 20 18 18 22 27 27 23 24 24 24 23 23 28 28 27 26 20 20 22
32 33 33 34 34 34 34 33 32 34 34 34 33 33 33 34 33 31 28 22 19 15 14 15 15 15 15 24 25 26 26 26 24 23 23 24 27 24 23 22 24 25 24
33 34 34 34 33 33 33 32 33 34 34 33 33 33 34 34 33 24 19 15 15 14 13 14 14 13 17 19 26 26 26 26 24 24 25 24 22 22 20 22 23 22 17
32 33 34 33 33 34 34 34 34 32 32 32 32 32 29 20 16 16 15 14 14 14 14 11 11 14 16 18 20 22 23 25 23 24 17 18 19 20 19 18 17 17 17
33 34 34 34 33 33 33 33 33 32 32 32 31 24 18 15 15 15 12 10 11 13 11 13 13 15 16 18 23 24 23 23 22 20 15 15 15 15 15 16 17 17 17
34 34 32 32 32 33 32 32 31 31 29 23 19 17 16 17 19 20 20 24 24 24 23 22 19 17 21 23 24 24 24 23 22 15 14 15 15 15 16 16 16 17 18

GFSMW_sfc_dewp_069.txt.gz
Dewpoint
36 37 38 38 39 39 40 43 60 65 66 65 64 64 63 63 63 63 61 61 60 61 60 60 59 58 57 54 49 41 37 32 30 31 31 32 34 32 37 39 35 35 32
34 35 35 35 36 37 39 41 46 59 65 64 64 64 64 64 64 64 62 60 60 60 60 60 59 57 55 52 46 39 34 32 31 32 32 31 29 32 31 33 32 32 29
30 31 32 33 36 36 36 38 41 47 62 65 65 64 64 62 63 63 63 60 60 60 60 59 58 56 55 51 46 42 42 38 32 32 35 31 32 30 28 31 31 29 28
28 29 30 31 33 34 36 37 38 41 53 64 64 62 61 61 62 63 63 63 60 60 59 59 58 56 54 52 48 44 45 45 40 35 30 32 32 30 24 24 27 27 25
37 37 37 37 37 36 35 35 35 37 40 56 63 62 61 62 63 62 62 62 60 60 59 58 58 56 54 52 48 45 46 46 44 42 35 32 30 23 23 23 25 24 24
38 39 41 42 42 43 43 41 37 37 38 42 56 62 61 61 61 60 60 59 59 60 59 58 57 56 53 51 49 48 46 46 44 42 36 32 29 26 25 19 22 24 21
39 40 41 42 42 42 43 43 43 42 40 40 45 56 61 61 61 61 59 56 56 56 57 56 55 54 53 52 50 49 48 46 44 40 35 32 28 29 31 29 23 20 20
39 40 41 41 41 42 42 41 41 42 42 42 42 44 53 59 60 60 59 58 57 56 57 55 53 52 51 50 49 49 48 46 43 38 33 29 26 28 26 25 22 19 20
39 41 41 40 41 40 39 39 38 39 41 43 43 44 47 52 58 58 58 58 56 54 53 53 52 51 50 49 47 46 42 37 34 32 29 28 27 28 30 31 29 27 19
40 41 40 40 40 36 35 35 35 36 38 41 43 44 46 49 53 55 54 53 51 51 51 50 49 48 46 45 44 40 33 28 27 27 26 27 28 28 28 28 26 24 22
40 41 39 41 36 32 33 33 34 36 39 42 42 44 46 49 50 50 48 48 47 47 47 47 46 43 40 38 33 29 26 24 24 25 26 26 26 28 27 28 27 27 28
41 40 39 37 33 32 33 34 34 35 40 43 43 45 46 47 47 47 46 46 45 45 43 42 39 34 29 28 24 24 23 23 25 28 28 28 31 32 31 30 28 25 25
41 37 35 36 34 33 34 33 33 34 39 42 43 43 44 44 45 44 43 43 41 40 38 33 29 27 26 25 26 28 29 30 31 31 31 31 32 32 32 29 26 24 22
37 31 32 35 35 34 34 32 31 32 36 39 40 41 41 42 42 41 38 35 33 31 29 27 26 26 26 28 29 30 31 31 31 31 31 31 31 31 30 29 27 27 27
34 28 32 35 35 34 33 32 30 30 31 32 33 35 34 32 31 32 30 29 28 27 28 29 29 29 30 30 30 31 31 31 31 32 32 32 31 32 31 31 30 28 26
31 26 28 31 34 34 33 33 32 31 31 29 29 28 27 26 25 25 26 27 28 31 33 36 34 35 35 37 36 33 32 32 32 30 29 30 31 31 31 30 28 28 27
28 25 26 26 29 34 34 33 33 33 33 32 32 31 31 31 30 30 31 32 34 35 36 38 37 37 37 38 37 35 32 30 29 28 24 25 25 28 25 26 28 28 29
25 24 25 27 28 30 33 34 33 33 34 34 33 33 33 33 33 33 33 34 35 35 35 35 36 36 37 36 34 32 30 29 24 26 27 24 24 24 26 26 29 28 26
24 25 25 29 29 31 32 32 33 34 34 33 33 33 34 34 33 33 33 34 33 33 33 33 33 33 33 33 33 28 23 22 23 25 24 24 24 27 28 28 28 23 22
25 25 26 27 29 30 32 33 33 33 33 33 34 34 35 34 33 33 33 33 33 33 34 33 34 34 33 33 33 27 22 25 23 24 23 26 26 28 28 25 23 20 18
28 29 29 30 32 33 33 33 33 33 34 34 34 34 34 34 34 33 33 33 32 31 31 30 29 28 23 30 31 28 24 24 24 23 23 23 28 26 25 24 20 20 23
31 33 32 33 33 34 34 33 32 34 34 34 34 34 34 35 34 33 33 30 22 18 16 17 16 15 19 26 26 26 26 26 24 23 23 24 24 23 23 21 24 25 23
33 33 33 33 33 34 34 32 33 34 34 34 33 33 34 33 28 20 19 16 15 14 13 13 12 13 17 21 26 26 26 26 23 22 23 22 21 21 20 22 23 21 17
32 33 32 32 32 34 35 34 33 33 33 33 33 33 29 18 15 16 15 14 14 14 13 9 11 15 17 20 21 23 23 24 22 22 17 18 19 19 19 18 17 17 18
33 33 33 33 34 33 33 33 32 33 33 33 31 24 18 15 14 13 11 10 12 13 10 12 14 15 18 21 24 24 22 23 21 20 14 14 15 15 16 16 17 17 17
33 34 33 33 33 33 33 33 32 33 32 27 22 17 16 17 20 21 22 26 24 23 23 23 19 19 21 23 24 24 23 22 21 14 14 15 16 16 16 16 17 17 19

GFSMW_sfc_dewp_072.txt.gz
Dewpoint
34 35 37 38 39 40 40 41 48 58 63 65 64 65 64 64 65 64 63 62 60 59 60 59 59 59 59 58 56 54 51 47 45 39 38 36 35 34 36 39 38 38 36
32 34 36 38 37 38 40 41 42 49 58 63 64 65 64 65 64 65 64 63 62 61 60 59 59 58 59 59 57 54 50 49 43 45 45 42 35 33 33 37 36 36 34
31 31 32 34 38 38 38 39 40 42 49 59 61 63 64 65 64 64 63 64 63 62 62 61 60 58 58 59 59 55 52 48 43 43 47 44 44 35 34 33 35 33 34
28 29 30 32 35 37 38 39 39 40 42 51 57 60 60 61 62 63 64 63 64 63 62 62 62 61 59 58 58 55 53 52 46 39 36 39 37 36 32 30 32 31 30
36 38 40 41 41 40 39 38 37 37 39 42 53 58 59 60 62 62 62 63 63 63 62 62 62 61 60 59 58 54 53 52 51 45 39 36 34 30 32 37 27 28 29
39 41 43 43 43 45 45 45 38 37 38 40 45 55 57 59 61 62 62 63 62 62 62 61 61 61 60 58 58 56 54 53 52 47 44 40 38 36 33 32 29 27 26
40 41 42 42 43 44 44 43 43 42 42 41 42 42 53 58 59 59 60 60 61 60 60 61 61 60 60 59 58 56 55 54 53 50 45 39 35 33 35 33 28 24 21
41 41 41 42 42 42 41 41 41 41 42 43 43 43 45 52 58 59 59 60 60 60 60 60 60 59 59 58 57 56 55 54 54 49 42 34 32 33 31 34 33 30 28
41 42 41 42 41 39 38 38 39 40 41 42 44 44 44 46 51 56 59 60 60 60 59 59 57 56 55 54 54 53 52 50 48 42 34 31 31 34 35 34 32 33 30
41 42 40 41 38 37 37 38 38 38 40 42 44 44 45 46 47 50 54 56 57 55 55 55 54 52 52 51 50 50 46 43 39 34 29 29 30 31 32 32 30 31 28
39 42 40 39 37 36 37 37 37 38 41 44 44 44 45 46 48 50 51 52 52 51 52 52 51 49 48 47 42 38 34 32 33 34 33 31 28 29 28 31 32 32 32
40 41 39 37 36 35 36 36 36 38 42 44 45 46 47 47 48 48 49 49 49 48 48 48 46 43 40 35 31 27 27 28 29 30 30 31 33 33 34 34 33 32 33
41 39 36 36 36 35 35 34 34 36 40 42 43 44 44 45 46 45 46 46 46 44 43 39 35 31 29 27 26 27 28 30 31 33 33 33 33 33 33 33 32 32 31
40 37 34 36 36 36 34 32 32 34 37 38 39 39 40 42 41 40 38 37 34 32 30 29 28 29 29 30 30 32 33 33 33 33 33 33 33 33 32 33 31 29 29
38 34 35 36 36 36 33 33 32 32 32 32 31 31 31 32 32 31 30 29 29 28 29 30 31 32 32 33 33 34 33 33 33 33 34 34 34 33 32 31 30 29 27
36 30 32 33 35 36 33 33 33 33 33 32 31 30 29 29 29 30 30 31 31 32 34 34 35 35 35 37 37 35 34 33 33 32 31 31 33 33 32 31 31 31 30
33 29 29 29 33 35 35 34 34 33 33 32 32 32 31 31 32 32 33 34 35 36 36 37 37 37 38 39 39 36 33 32 31 28 27 26 26 30 27 27 28 29 30
30 28 28 28 31 34 34 33 33 33 34 33 33 33 33 33 34 35 36 36 36 36 36 36 36 36 37 38 35 32 30 28 27 28 28 27 26 25 25 26 29 29 27
27 27 29 29 32 33 34 34 34 34 33 33 33 33 34 34 35 34 34 35 35 34 33 33 33 33 34 34 30 25 23 25 26 27 26 25 23 25 29 27 29 24 22
25 26 29 29 30 31 33 33 33 33 33 33 33 35 36 35 34 34 33 33 34 34 34 34 35 36 31 33 30 27 28 24 22 23 22 24 26 27 27 24 21 20 17
27 27 28 30 32 33 33 33 34 34 34 34 35 35 36 35 34 35 35 35 34 33 33 32 30 28 31 30 29 26 24 23 22 22 21 22 26 25 24 23 20 18 22
30 31 31 32 33 34 34 34 33 35 35 34 35 35 36 35 35 34 34 32 26 23 22 21 21 21 24 27 27 27 27 26 22 20 21 22 23 22 22 21 23 25 24
30 31 31 32 33 34 34 34 35 36 36 35 35 34 34 33 31 26 21 17 16 15 14 13 12 12 17 22 26 26 26 25 22 21 23 21 20 20 18 20 23 23 18
31 31 30 30 32 34 34 35 35 35 35 34 34 33 26 18 16 16 14 14 13 13 12 10 9 13 17 21 22 23 23 23 21 22 18 17 18 19 19 18 18 18 19
31 31 30 30 33 35 33 34 34 33 33 33 30 24 19 15 14 14 13 11 13 13 8 10 11 14 17 22 23 24 22 22 20 20 12 12 14 15 16 17 18 18 19
31 32 31 32 33 34 33 33 34 33 33 31 24 17 16 14 15 17 18 24 22 22 23 22 18 20 22 23 24 24 23 21 21 12 11 13 16 17 17 18 19 20 21

GFSMW_sfc_dewp_075.txt.gz
Dewpoint
28 30 32 35 40 41 42 44 52 60 63 65 66 66 65 66 64 64 62 61 60 59 59 58 57 57 57 57 56 56 56 54 54 49 45 45 42 40 40 42 42 41 41
30 30 32 35 37 38 39 41 41 44 54 60 64 64 65 65 65 67 65 63 62 62 60 60 59 58 58 58 58 56 55 54 53 48 48 46 43 40 38 39 40 40 39
26 27 32 34 39 39 39 39 41 41 44 54 62 64 64 66 65 65 64 64 64 63 62 61 61 60 59 58 59 58 56 53 52 50 51 49 48 42 40 38 39 38 39
31 32 31 32 36 39 41 40 40 41 41 45 52 59 61 62 63 63 63 64 63 64 64 63 62 61 60 59 59 59 57 54 52 48 48 50 44 44 37 37 36 37 35
30 31 34 37 38 41 41 41 40 39 40 41 44 51 56 59 60 60 60 63 63 63 63 62 62 62 62 60 59 59 59 54 54 48 47 45 43 41 39 39 33 35 35
37 40 42 43 44 46 46 45 39 37 37 39 41 46 52 55 58 59 59 60 63 63 62 63 62 62 62 61 61 60 59 57 56 52 51 45 45 41 38 39 36 34 31
39 40 41 42 43 44 44 42 43 42 41 41 40 40 45 53 56 57 58 59 61 62 61 61 62 62 62 61 61 60 59 57 56 55 52 48 46 41 41 41 32 28 25
40 40 42 43 42 42 42 41 41 41 42 43 43 43 43 44 48 56 57 58 59 58 60 60 61 61 61 61 60 59 59 58 57 56 54 48 40 39 37 37 34 33 33
41 41 41 42 40 40 40 40 40 40 41 42 43 43 43 44 46 49 56 59 59 60 60 60 59 60 60 59 58 58 56 55 54 47 42 38 37 38 39 39 40 40 37
41 41 40 41 39 38 39 39 39 39 41 43 44 44 44 45 45 46 48 53 57 57 56 57 57 56 55 54 54 52 49 45 43 42 39 39 37 36 36 36 33 33 34
40 41 41 39 38 38 38 38 38 39 42 44 45 45 45 46 47 47 49 51 52 52 53 53 53 52 51 51 49 47 43 41 39 39 36 35 36 35 35 35 35 34 34
37 41 40 38 37 37 37 36 37 38 42 43 44 45 46 47 47 48 48 48 49 50 50 50 49 47 46 41 37 37 37 36 34 35 35 34 34 35 35 36 35 34 34
37 40 38 37 36 37 36 35 35 37 41 41 42 42 44 44 44 45 46 46 46 45 43 41 39 36 34 31 29 31 32 33 33 34 34 35 35 35 34 34 33 33 33
36 39 37 37 36 37 35 34 34 35 36 36 36 36 37 37 36 34 34 33 33 32 31 31 30 30 30 31 31 33 34 34 34 35 35 35 35 34 33 33 32 30 29
37 38 37 37 36 36 34 34 34 34 34 33 32 31 31 32 31 31 31 31 31 31 32 32 33 33 34 33 34 34 34 34 34 34 34 35 35 35 32 30 30 29 28
38 37 35 35 36 36 34 34 34 35 34 33 32 31 31 32 32 33 34 34 35 35 35 35 35 36 37 38 38 35 34 34 33 32 32 33 33 33 32 31 30 30 29
38 34 33 33 36 36 36 35 35 35 34 33 32 32 32 33 35 35 35 35 36 36 36 36 36 36 37 39 38 36 32 32 32 32 32 29 30 29 26 25 28 30 30
35 32 31 31 34 35 34 34 34 34 34 34 33 33 34 35 36 36 36 36 36 36 36 35 35 36 36 37 36 33 31 31 29 28 27 25 24 24 25 26 30 30 29
32 31 30 31 33 34 35 35 34 34 33 33 33 33 35 35 35 35 35 35 34 33 33 34 34 33 32 31 30 27 26 27 28 29 29 24 23 26 28 28 30 26 24
28 29 30 32 32 32 34 34 34 34 33 33 34 35 36 35 35 35 34 34 35 34 35 35 33 32 30 31 29 29 28 27 24 23 22 25 26 27 27 24 22 21 19
27 28 30 30 32 33 33 34 34 35 35 34 35 36 36 35 35 35 35 35 34 33 32 31 30 30 30 29 29 27 24 23 23 22 21 22 25 25 24 24 22 19 22
29 30 31 32 33 34 35 35 34 36 35 35 35 35 35 36 36 34 35 33 31 26 22 22 22 24 25 27 28 28 27 26 22 20 21 22 24 22 23 22 21 25 25
30 31 31 32 33 34 34 34 35 36 35 35 35 35 35 35 35 31 25 18 17 16 15 15 14 15 21 23 26 26 26 25 22 22 23 22 20 20 19 17 23 24 20
31 30 30 30 32 33 34 35 35 36 35 35 35 33 29 25 19 17 16 15 14 13 15 13 13 15 18 21 23 23 24 25 22 24 22 16 18 18 19 19 19 19 20
31 31 30 30 32 34 34 34 35 35 35 34 31 25 19 15 15 16 15 13 16 19 12 15 15 17 19 23 24 24 23 24 22 22 14 13 13 15 17 19 19 20 20
32 31 30 30 33 34 34 34 34 34 33 31 25 20 17 13 15 17 19 26 24 25 25 23 20 22 24 23 24 24 23 23 21 16 10 12 16 18 19 19 20 21 22

GFSMW_sfc_dewp_078.txt.gz
Dewpoint
29 30 37 39 42 44 46 56 63 65 65 65 65 66 64 64 65 63 62 61 59 59 57 56 55 55 55 55 55 56 55 54 51 48 44 44 42 40 41 43 43 42 42
28 29 30 32 35 41 42 43 46 55 64 65 65 64 64 65 65 65 65 63 61 60 58 57 56 56 56 56 56 55 55 54 54 49 44 43 43 42 39 40 41 41 41
29 30 31 34 38 39 39 41 41 43 44 59 65 64 64 63 64 64 64 65 64 62 61 59 58 58 57 57 57 56 55 54 53 49 49 47 46 40 40 38 40 39 39
31 32 33 33 36 40 42 42 42 42 42 44 59 63 63 63 64 63 64 64 64 64 63 62 61 60 60 58 58 58 56 54 52 50 48 50 44 41 36 37 37 38 37
30 30 35 39 42 43 42 41 41 40 40 41 43 47 60 62 63 63 63 63 63 63 63 64 63 61 61 60 59 58 58 56 54 51 49 48 43 40 38 34 33 35 35
37 40 42 43 45 46 45 45 41 38 38 39 40 41 43 49 57 59 59 59 62 62 62 63 62 62 62 62 61 60 59 58 55 52 50 48 46 45 41 39 34 34 32
39 41 42 43 44 44 43 42 42 42 42 42 42 40 40 42 47 54 58 58 59 60 61 62 62 62 62 62 62 60 59 59 56 56 50 51 50 46 46 46 38 33 26
40 41 42 43 42 42 41 41 41 41 41 42 43 44 44 44 45 46 53 57 58 59 59 60 60 60 61 61 61 60 60 59 57 56 55 48 42 45 43 42 36 34 35
41 41 42 41 40 39 40 40 39 40 41 42 43 43 44 44 45 45 47 53 57 60 59 59 59 60 60 60 59 58 58 57 56 50 45 42 41 42 42 41 42 41 37
41 41 42 39 38 39 39 39 39 39 42 44 45 45 45 44 45 46 46 49 54 55 55 56 57 57 56 55 55 53 49 46 44 43 42 40 40 39 39 40 40 41 39
41 40 40 38 38 38 38 37 38 39 43 44 44 45 46 47 47 48 49 49 50 51 52 53 52 52 51 50 49 46 45 43 41 41 39 38 37 37 38 39 38 36 36
41 41 39 38 37 37 36 36 37 39 42 43 43 44 44 45 46 47 47 48 48 49 49 49 47 44 40 39 40 39 39 38 37 36 36 36 37 37 38 37 36 35 35
40 40 38 37 36 36 35 34 35 37 39 39 39 39 38 38 37 36 34 35 35 34 33 33 32 30 30 31 32 34 34 34 35 36 36 36 36 36 36 34 34 33 33
37 39 37 36 36 35 34 34 34 35 35 34 33 33 33 33 32 31 31 32 32 32 32 32 32 32 32 33 34 34 35 35 35 36 36 36 35 35 34 33 33 31 30
37 39 38 37 37 35 34 34 35 34 34 32 31 32 32 32 33 33 33 33 33 33 34 34 34 34 34 33 34 34 34 34 34 34 35 35 36 35 33 31 30 30 28
37 37 37 36 36 35 34 34 35 35 34 33 32 33 33 34 35 35 35 35 35 36 36 36 37 36 36 38 37 35 34 33 32 32 32 33 35 35 34 33 33 31 30
39 34 34 35 36 36 36 35 35 35 34 33 32 33 35 36 36 36 36 36 36 36 36 36 36 36 36 38 38 36 31 31 32 32 32 32 31 31 30 27 27 29 30
35 33 32 33 35 36 35 34 34 34 34 34 33 35 36 36 36 36 36 36 36 35 35 35 36 36 37 37 36 33 30 31 30 29 28 27 27 27 27 28 29 29 29
33 32 31 33 34 35 35 34 34 34 33 33 34 35 36 35 36 35 34 34 34 33 33 33 31 30 31 31 30 29 28 28 27 28 28 26 24 27 28 28 26 23 22
30 30 32 33 33 34 35 35 34 33 33 34 34 35 36 35 34 34 33 34 34 34 34 33 30 31 29 30 30 29 28 27 27 25 25 26 26 27 27 24 22 20 19
31 31 32 32 33 34 34 35 35 35 35 35 35 35 35 35 35 35 35 34 34 32 30 29 30 29 29 28 29 28 25 23 23 21 21 22 25 24 23 24 21 20 22
31 32 32 34 35 35 36 35 34 36 35 35 35 35 35 35 35 34 33 33 32 27 24 23 23 25 26 29 29 28 27 26 20 19 21 23 24 22 22 21 22 24 25
30 32 32 33 35 35 36 34 35 35 35 34 35 35 35 35 35 33 31 25 21 19 18 18 18 19 25 25 27 25 24 24 22 22 23 22 19 20 20 20 22 23 19
31 31 31 32 32 34 35 35 36 35 34 35 35 35 35 34 31 23 18 16 15 14 15 14 14 15 18 21 23 23 23 25 23 24 22 17 16 16 17 18 19 19 19
32 31 30 31 32 34 34 35 35 35 34 34 33 30 25 17 17 22 19 16 19 18 13 14 15 17 19 24 25 24 23 23 22 22 16 12 13 15 18 19 19 20 21
32 31 30 30 33 34 34 34 35 35 34 33 29 21 18 16 17 20 23 25 25 26 26 24 21 23 25 24 24 23 23 23 21 18 12 12 16 18 19 20 20 21 23

GFSMW_sfc_dewp_081.txt.gz
Dewpoint
32 37 41 45 59 61 61 64 64 64 64 64 64 63 63 64 64 62 60 59 59 58 57 55 54 54 54 55 55 55 55 53 51 47 45 44 43 42 44 43 44 45 46
31 30 37 39 42 48 55 59 62 64 64 65 65 64 64 63 63 64 64 63 60 59 58 57 55 54 54 54 55 55 55 54 51 48 43 41 42 43 41 41 42 42 42
30 29 31 34 36 41 42 43 47 58 65 65 64 63 63 63 62 63 63 64 64 61 59 57 56 56 55 55 55 55 55 54 53 49 46 45 43 42 41 39 41 41 41
31 32 32 35 39 39 40 40 41 41 42 64 64 63 63 62 62 63 62 62 63 63 63 60 58 57 58 57 57 57 55 54 53 52 49 50 48 42 39 38 38 39 39
31 32 37 41 43 42 42 41 40 39 39 40 53 62 61 62 61 62 62 62 62 62 63 62 61 60 59 59 58 58 57 55 55 53 50 49 46 41 39 37 37 41 41
39 41 43 44 45 44 44 43 40 39 40 40 39 40 42 44 51 59 60 60 61 61 61 62 61 62 62 61 61 60 59 58 56 54 51 51 50 48 43 39 36 39 37
41 41 42 44 43 42 42 42 42 41 42 43 43 43 42 41 41 46 55 57 59 59 60 60 62 62 62 62 62 61 60 59 58 56 54 53 51 51 49 47 40 38 35
40 41 43 43 42 41 40 40 40 40 41 42 42 43 43 44 44 45 47 53 57 58 61 61 61 61 61 61 61 61 60 59 58 57 56 53 50 48 49 49 44 38 36
41 42 43 41 40 39 40 39 39 40 43 44 45 45 44 44 44 45 46 49 54 58 59 59 59 59 59 59 59 58 58 58 56 55 52 47 45 45 44 44 45 44 37
41 41 40 39 39 39 39 39 39 42 44 44 45 45 46 47 47 47 49 50 51 52 53 54 56 56 55 55 55 52 50 48 45 44 43 41 42 41 42 43 43 43 42
40 41 39 38 38 38 37 37 39 42 43 44 44 44 45 46 47 47 48 48 49 50 50 51 50 50 49 49 48 46 44 42 41 41 39 38 39 39 39 39 39 39 38
40 39 38 37 37 36 36 36 39 41 42 42 42 41 42 41 41 38 39 44 44 46 45 42 39 38 36 39 40 39 39 39 38 37 37 37 38 37 38 37 37 37 36
40 38 37 36 36 35 34 35 36 38 37 36 36 35 35 33 32 32 33 33 33 32 32 32 31 32 34 34 35 36 36 36 36 37 37 36 36 36 36 35 34 34 34
40 38 37 36 36 34 34 34 35 34 33 32 33 33 32 32 32 32 33 33 33 33 33 33 33 34 35 35 35 35 36 36 36 36 36 36 35 35 34 34 33 32 30
39 38 37 36 35 34 34 34 34 33 32 32 32 33 33 33 34 34 34 34 35 35 35 34 34 34 34 34 35 35 35 34 34 35 36 36 36 36 35 33 32 31 31
37 37 37 37 35 34 34 35 34 34 33 32 33 34 35 35 35 35 36 36 36 37 37 36 36 36 36 38 37 34 32 32 33 32 33 34 36 36 36 35 34 32 29
38 37 36 36 36 35 35 35 34 34 33 33 34 35 36 36 36 36 36 36 36 36 36 36 36 36 36 38 38 36 31 30 31 31 32 32 31 30 28 27 28 29 30
36 36 35 36 36 36 35 35 34 34 34 34 35 36 37 37 37 36 36 36 36 35 36 36 37 37 38 38 37 34 30 30 29 29 28 28 27 27 27 28 28 28 28
33 33 35 35 36 35 34 34 34 34 34 34 35 35 36 36 36 35 34 34 34 33 32 32 29 29 31 32 32 29 27 27 26 26 26 25 25 27 28 25 23 21 20
31 32 33 35 35 35 34 34 33 33 33 34 35 36 36 35 34 34 34 34 33 32 31 29 29 32 29 31 31 28 26 25 26 26 25 27 26 26 24 23 21 20 18
32 33 34 33 34 34 36 35 34 33 35 35 35 35 35 35 35 35 34 34 33 31 29 28 28 27 28 28 30 29 24 23 22 21 21 22 24 24 23 23 20 21 21
33 33 33 34 35 36 36 36 34 36 35 35 35 35 35 35 35 33 33 32 29 27 26 26 26 27 27 30 29 28 27 25 20 19 22 23 23 21 22 21 21 23 24
31 33 33 34 35 36 36 35 35 35 35 35 34 34 34 34 34 32 31 30 24 22 21 21 21 23 26 25 27 26 25 24 22 22 23 23 18 20 19 20 21 22 19
31 32 33 33 32 35 35 35 35 34 34 34 34 35 34 34 34 31 27 21 19 17 17 16 15 16 19 22 24 23 23 25 23 23 21 20 17 17 18 18 19 19 20
31 32 32 32 32 34 35 35 35 34 34 34 34 34 34 30 21 21 17 16 17 18 15 14 15 16 19 23 26 24 23 23 22 21 18 12 13 16 18 19 20 21 22
32 31 31 32 33 33 34 35 35 34 34 33 33 29 21 18 21 21 22 25 27 25 24 23 22 24 24 27 26 24 23 23 22 18 13 11 16 18 19 20 20 21 22

GFSMW_sfc_dewp_084.txt.gz
Dewpoint
34 34 41 60 61 62 63 64 64 64 64 63 63 62 63 63 61 59 59 59 59 59 57 55 54 54 55 55 55 55 55 54 51 48 46 45 44 43 45 45 49 53 51
32 32 36 41 59 61 62 64 64 64 64 64 64 63 63 63 63 62 61 60 59 59 58 57 55 53 54 54 55 55 54 55 51 48 44 44 44 44 43 43 43 45 49
31 30 30 38 43 54 60 63 64 64 64 64 64 62 62 62 62 62 62 63 63 60 59 58 57 54 54 54 54 55 55 53 53 49 48 44 44 43 43 41 41 42 43
30 31 33 37 39 40 41 44 47 57 60 64 63 62 62 62 62 62 62 63 63 63 61 59 57 57 55 54 55 55 55 54 53 52 51 49 47 44 43 39 43 41 41
32 31 35 40 41 40 40 40 40 39 40 61 63 62 61 61 60 61 61 61 61 62 63 62 60 58 57 57 57 57 56 55 55 54 52 50 48 43 42 43 41 44 43
32 36 42 44 44 43 42 41 40 41 39 39 42 57 60 56 53 58 60 60 60 61 61 62 62 61 59 59 59 59 58 57 57 56 55 53 51 50 45 43 42 43 42
39 42 43 43 42 41 41 42 42 41 43 43 43 43 41 40 41 45 53 56 58 59 61 60 60 61 61 62 61 61 59 59 59 57 56 55 54 53 51 50 44 43 41
41 42 43 42 41 40 40 40 40 41 42 43 43 43 44 44 44 44 46 51 55 57 59 59 60 60 62 62 61 60 60 59 59 58 57 55 53 52 51 51 47 39 39
41 42 42 41 40 39 39 39 40 43 44 44 45 45 45 45 44 45 46 48 53 57 57 58 59 59 60 60 59 58 58 57 54 53 52 48 45 46 46 46 47 47 42
42 42 40 39 39 39 39 39 42 43 43 44 44 44 45 46 46 47 49 50 50 51 53 54 55 54 55 56 56 52 50 48 45 44 43 42 42 43 44 44 45 45 43
41 39 38 38 38 37 37 39 42 43 43 44 43 43 44 44 44 45 46 47 48 49 49 49 48 48 48 48 47 45 44 43 41 41 40 40 40 40 40 40 40 39 39
41 38 37 37 36 36 36 38 41 42 42 42 41 39 37 37 36 36 37 42 43 42 41 39 37 37 40 41 41 41 41 40 39 38 38 38 38 37 38 38 36 36 35
39 37 37 36 35 35 35 36 39 38 37 37 36 35 34 33 33 33 34 34 33 33 33 33 34 35 36 37 37 37 37 37 37 37 37 37 37 36 36 35 35 34 33
39 37 36 36 35 34 34 35 35 34 33 34 34 33 32 32 33 34 34 34 34 34 34 35 35 35 36 36 36 36 36 36 36 36 36 36 35 35 35 34 33 31 30
39 37 37 36 34 34 34 34 33 33 32 32 33 33 34 34 35 35 35 35 35 35 34 34 34 35 35 35 35 35 35 35 35 36 36 36 36 36 35 33 32 31 30
40 38 37 37 34 34 34 34 33 33 33 33 33 35 35 36 36 36 37 37 37 36 36 36 36 36 37 38 37 34 33 34 33 33 33 36 36 36 36 35 34 31 28
33 39 37 36 34 35 35 34 34 34 33 34 35 36 36 36 36 36 36 36 36 37 36 36 36 36 37 38 37 35 30 31 31 32 32 31 30 28 27 28 29 29 30
35 38 36 36 35 35 35 34 34 33 34 35 36 37 37 37 37 36 36 36 36 36 37 37 37 38 38 38 37 35 28 28 28 28 26 26 26 27 28 27 27 26 26
37 36 37 36 36 35 35 34 34 34 34 35 36 36 37 36 36 35 34 35 34 34 33 34 33 32 33 35 33 29 26 25 25 26 25 24 25 29 30 24 23 20 20
33 35 36 36 35 35 34 34 34 34 34 34 35 36 37 35 34 34 33 34 31 31 29 29 29 31 29 32 30 27 25 24 25 24 25 28 26 26 25 22 21 19 18
33 34 35 35 35 35 35 34 34 34 35 36 36 36 36 35 35 34 34 33 30 29 27 27 26 26 27 29 30 28 23 22 22 21 21 22 25 23 22 24 20 19 21
34 35 34 35 35 37 36 35 34 36 36 36 35 35 35 35 35 34 34 31 28 27 26 26 26 27 27 30 29 28 27 25 20 19 21 22 23 20 21 21 21 23 24
33 34 34 34 34 37 36 35 35 35 35 35 35 35 35 34 34 33 31 28 26 25 25 25 24 25 26 25 26 26 26 25 21 21 23 24 20 19 19 20 21 22 19
31 32 33 33 33 35 36 35 35 35 34 34 34 34 34 33 33 32 30 25 22 21 21 21 21 22 23 23 23 23 24 26 23 24 21 21 18 18 19 18 19 19 19
31 32 32 32 32 33 34 35 35 34 34 34 34 34 34 34 32 30 26 21 19 20 18 17 16 16 18 21 25 24 23 23 22 21 17 12 13 15 18 19 20 21 22
32 32 32 32 32 33 34 35 35 34 34 33 34 34 33 26 23 20 20 24 25 26 25 23 19 18 22 27 29 26 24 24 23 18 13 11 14 17 18 19 20 21 22

GFSMW_sfc_dewp_087.txt.gz
Dewpoint
36 36 50 62 62 62 63 64 64 64 64 63 63 62 62 60 59 59 61 62 61 59 55 55 54 55 56 56 56 55 55 54 53 50 49 47 46 44 45 46 51 54 54
34 34 34 47 60 61 62 63 64 63 64 64 63 63 62 62 61 60 59 59 60 59 58 56 54 54 54 55 55 55 54 55 52 50 46 48 49 45 44 44 45 47 52
33 33 32 36 51 59 61 63 64 64 64 63 63 62 62 62 62 61 61 60 60 59 59 58 57 54 54 54 54 55 54 54 53 49 51 45 46 44 44 42 42 43 45
32 31 31 31 40 52 55 60 62 63 63 63 63 62 62 62 62 62 62 62 63 62 60 59 58 58 55 54 54 54 54 54 53 52 51 49 47 46 46 42 41 41 41
32 31 35 38 40 40 41 46 51 53 54 62 63 62 61 61 60 61 61 61 62 63 63 61 59 58 57 56 55 55 55 55 54 54 53 52 48 45 47 50 48 43 43
33 32 41 43 43 42 41 39 40 40 42 56 61 61 62 59 58 59 59 60 60 61 61 62 61 59 58 57 57 56 56 56 56 56 55 53 52 51 47 46 48 45 43
33 38 42 42 41 41 41 42 42 42 42 43 42 44 49 53 53 53 53 56 58 59 60 60 61 61 61 60 59 58 57 57 57 57 56 55 55 54 51 51 48 45 42
37 40 42 41 40 40 40 41 41 42 43 43 43 44 44 44 43 43 44 49 54 56 58 60 60 60 60 60 60 59 60 59 58 58 56 56 54 53 52 52 48 42 40
40 41 42 40 40 39 40 40 42 44 44 45 45 45 45 45 44 45 46 47 51 56 56 57 57 58 59 59 58 57 57 55 51 50 50 49 46 47 47 48 48 48 43
41 42 40 39 39 39 39 41 43 43 43 44 44 44 45 45 47 48 48 49 50 51 52 54 55 55 55 55 55 51 50 48 46 45 45 43 43 44 44 44 45 45 45
41 40 39 39 38 38 39 42 42 43 43 43 43 43 43 43 44 45 46 47 48 49 49 48 48 48 49 49 47 46 45 44 42 42 41 41 41 41 41 41 40 39 40
40 38 38 37 37 37 38 41 42 42 42 42 40 38 38 37 37 37 40 44 42 40 40 39 40 41 42 43 43 42 41 40 40 39 39 39 39 38 38 38 37 36 36
38 37 37 36 36 35 37 40 39 38 38 37 37 35 34 34 34 34 34 34 34 34 34 35 36 37 38 38 38 39 38 39 39 39 38 38 37 36 36 36 35 34 34
38 37 36 36 35 35 35 37 35 35 35 35 34 33 33 33 34 34 35 35 35 35 35 36 36 36 37 37 37 37 37 37 37 37 37 36 36 35 34 34 33 31 31
38 37 37 36 34 34 34 34 33 33 33 34 33 33 34 35 35 36 36 36 35 35 35 35 35 36 36 36 36 36 36 35 35 35 35 35 36 36 35 32 31 31 30
39 38 37 36 34 34 34 34 33 32 33 33 34 35 35 36 36 37 37 37 36 36 36 37 37 37 38 39 38 36 35 35 34 34 34 35 35 36 36 35 34 30 27
40 39 37 36 35 35 34 34 33 33 33 34 35 36 36 36 37 37 36 36 36 37 36 36 36 36 37 39 38 36 33 33 33 33 32 29 28 28 27 30 31 31 32
32 39 37 36 35 35 35 34 34 33 34 35 36 37 37 37 37 37 36 36 37 37 37 37 38 37 37 38 37 35 29 29 28 26 25 25 25 27 27 27 26 24 23
37 37 38 37 35 35 35 34 34 34 34 36 36 37 37 36 36 35 35 35 35 35 34 35 35 35 36 37 34 29 26 25 25 25 24 25 26 30 28 24 23 20 20
35 37 37 36 35 35 35 34 34 34 34 35 36 37 37 36 35 35 34 34 34 32 32 31 29 32 30 31 30 26 24 24 24 25 25 28 26 25 26 22 21 18 17
34 36 36 35 35 35 35 35 34 34 35 36 36 36 36 35 35 34 34 33 31 30 28 27 27 27 29 29 30 28 23 23 23 22 21 22 25 23 22 25 21 18 20
35 36 36 36 37 36 36 35 35 36 36 36 36 36 36 36 35 34 33 30 28 27 26 26 27 27 27 31 29 28 26 25 20 19 21 22 24 20 21 21 23 22 25
33 34 35 35 36 37 36 35 35 36 36 36 35 35 35 35 34 33 32 29 27 26 25 26 25 25 26 25 27 27 27 25 21 21 23 25 24 19 19 20 21 23 19
35 35 33 33 33 35 36 36 35 35 35 35 35 35 34 34 33 32 30 27 26 25 25 24 24 24 24 24 24 24 25 26 24 24 22 20 20 19 19 19 20 19 19
32 32 33 33 33 34 34 35 35 35 34 34 34 34 34 33 33 32 29 25 24 25 23 22 22 21 21 21 25 24 22 22 22 22 16 12 12 14 17 19 20 21 21
32 32 32 32 32 33 33 34 35 34 34 34 34 34 34 33 32 29 24 29 26 28 28 25 20 17 20 24 28 29 27 26 25 19 14 11 13 15 16 18 19 20 21

GFSMW_sfc_dewp_090.txt.gz
Dewpoint
39 37 47 63 63 63 64 65 64 64 64 64 63 62 62 61 60 62 64 64 63 60 57 57 56 56 57 57 56 55 55 54 53 52 52 50 49 47 46 46 48 54 54
36 36 37 46 61 62 63 64 64 64 64 64 64 63 62 61 60 60 60 63 62 61 58 57 55 54 55 55 55 55 53 54 53 52 48 50 51 48 46 45 45 46 52
35 35 34 36 47 61 62 63 64 64 64 64 63 62 62 62 61 60 59 59 61 61 60 57 56 54 54 54 55 55 54 53 52 50 52 47 48 46 46 43 43 43 45
33 33 33 33 33 49 60 62 63 63 64 63 63 62 62 61 62 61 61 60 60 59 59 59 58 56 55 54 55 55 55 54 53 52 51 50 49 48 48 44 42 42 41
34 34 32 32 36 43 52 58 61 62 62 63 63 63 61 61 60 61 61 61 61 61 61 61 60 59 59 58 55 55 55 55 55 54 53 53 49 47 50 51 52 44 43
35 34 35 41 41 41 41 45 51 46 55 62 62 61 60 59 59 59 59 59 60 60 61 62 61 60 58 58 58 56 55 55 55 55 55 53 52 49 48 48 51 49 47
34 33 40 41 41 40 40 41 43 42 46 51 54 57 59 61 61 59 58 58 58 59 60 60 61 61 60 59 58 56 56 56 56 56 56 55 55 54 52 51 50 48 45
33 35 40 41 40 40 41 41 41 42 45 44 43 44 44 44 44 43 44 48 52 55 56 58 59 60 60 60 59 58 57 56 56 57 57 57 55 54 53 52 50 44 43
34 37 41 40 40 40 40 41 42 43 44 45 45 45 45 44 44 44 45 46 48 54 54 55 56 57 58 59 59 58 58 56 54 52 52 51 47 48 48 49 50 49 43
38 40 40 40 39 39 40 43 43 43 43 44 44 44 44 45 45 46 47 48 49 50 51 55 56 56 56 57 56 53 52 49 47 47 47 45 44 44 45 45 46 46 46
39 39 39 39 38 39 42 42 42 43 43 43 43 43 42 42 43 44 45 46 47 47 47 49 49 49 50 50 49 48 47 45 43 43 43 42 42 42 42 42 41 40 41
39 39 38 37 37 39 40 41 41 42 41 41 40 39 38 38 38 39 41 42 41 39 40 41 42 43 44 45 45 44 44 43 42 41 41 39 40 39 39 39 38 37 38
38 37 37 36 36 37 39 39 39 39 39 38 37 36 35 35 35 35 35 35 35 35 36 37 38 39 39 40 40 40 40 40 39 39 38 39 38 37 37 36 36 35 35
38 37 36 36 35 36 38 37 36 36 36 36 35 34 34 34 34 35 35 35 35 36 36 37 37 37 37 37 38 38 37 37 37 37 37 37 36 36 35 33 31 31 31
37 37 37 36 35 34 36 35 34 33 34 34 34 34 34 35 35 36 36 36 35 35 36 36 36 36 37 37 37 37 36 36 36 35 35 35 36 37 35 32 30 29 28
39 37 37 36 35 34 34 34 33 33 34 34 34 35 35 36 36 37 37 36 36 36 37 37 38 38 39 40 39 37 36 36 35 34 34 35 36 37 36 35 33 29 26
40 38 37 37 35 35 34 34 33 33 34 34 35 35 36 36 36 37 37 36 36 37 37 37 37 38 39 40 39 37 34 33 33 33 31 28 29 29 28 32 34 33 33
38 40 38 37 36 35 35 34 34 33 34 34 35 36 36 36 37 37 37 37 37 37 37 37 37 37 37 38 37 36 32 31 29 26 24 25 26 28 27 27 25 24 23
35 34 40 38 36 35 35 34 33 34 34 36 36 37 37 36 36 36 36 36 36 35 35 36 36 37 37 37 36 29 25 25 25 24 25 26 27 31 27 23 22 20 20
35 37 38 36 35 35 34 34 33 34 34 36 36 37 37 36 35 35 34 34 35 34 33 33 33 35 32 34 31 27 25 24 25 26 27 29 26 26 28 21 19 17 15
35 36 36 35 35 35 35 34 34 35 35 36 37 37 37 36 35 35 34 34 33 31 30 29 29 28 29 28 29 27 23 23 24 23 22 23 26 23 22 25 21 18 19
35 37 37 36 36 36 36 36 35 36 36 36 36 36 36 36 35 34 33 31 30 28 27 27 27 28 28 31 30 28 26 26 21 19 20 21 24 20 20 22 23 22 27
34 35 36 36 37 37 37 36 36 36 36 36 36 36 36 35 35 33 31 29 27 26 25 26 26 27 27 25 30 28 28 26 20 21 22 26 25 21 20 19 21 24 19
34 35 34 35 35 36 36 36 35 35 35 35 35 35 35 35 34 33 30 28 27 25 25 25 24 24 25 24 24 25 26 27 24 25 22 20 20 21 20 19 20 19 19
40 37 36 34 34 35 35 35 35 35 35 35 35 35 34 35 33 32 30 28 27 26 24 24 24 23 23 23 26 24 23 23 23 22 17 12 12 13 15 18 19 20 21
33 32 33 32 33 34 34 34 35 35 34 34 34 34 34 33 33 31 30 32 30 31 30 29 25 22 24 26 28 29 28 27 26 20 15 12 12 14 14 16 18 20 21

GFSMW_sfc_dewp_093.txt.gz
Dewpoint
45 40 42 62 63 65 65 66 67 67 67 66 65 65 65 65 65 66 66 65 63 61 60 60 59 60 59 59 59 59 58 58 57 56 56 55 55 55 54 52 50 51 54
45 41 39 49 62 63 64 65 65 65 66 66 66 65 65 65 66 65 65 65 64 63 61 60 59 58 58 58 58 57 57 57 56 56 54 54 53 53 51 51 49 49 50
42 40 37 39 49 60 63 64 64 64 65 65 64 63 64 63 62 61 62 63 64 64 62 60 60 58 58 57 57 57 57 55 56 55 55 52 51 51 51 47 48 47 47
35 36 36 36 41 43 59 63 64 64 64 64 64 63 63 62 63 63 62 61 61 62 62 61 60 59 58 57 58 57 57 57 56 55 54 54 52 50 50 50 46 44 44
36 35 37 37 36 42 51 61 63 64 64 64 64 63 62 63 63 63 63 62 62 61 61 61 61 60 59 59 59 58 58 57 56 55 55 54 52 50 51 52 54 48 45
37 37 39 38 40 43 45 55 61 62 63 63 64 63 63 62 61 62 62 63 63 63 62 62 61 61 60 60 60 58 57 56 56 56 56 55 53 52 51 50 52 53 50
37 37 37 40 41 42 43 47 54 52 56 62 63 63 62 62 62 61 61 61 61 61 62 62 63 63 62 60 60 59 58 58 58 57 57 57 56 55 52 52 52 50 48
35 36 37 41 41 42 42 43 46 45 47 50 51 51 52 55 54 53 53 54 55 56 57 59 61 62 62 62 61 60 59 58 59 58 57 57 57 56 55 53 52 46 46
34 35 38 41 41 41 41 42 43 44 44 45 45 45 46 46 45 45 46 47 48 52 55 57 58 58 60 61 61 61 60 59 59 59 58 56 51 51 51 52 53 51 45
37 37 40 40 40 40 42 43 43 44 44 45 45 45 46 46 47 47 48 50 51 52 54 55 55 56 57 59 60 58 56 55 51 51 51 49 48 48 48 49 49 49 49
39 40 40 39 39 41 42 43 43 43 43 44 44 44 43 44 45 47 48 49 49 49 50 50 51 52 52 53 52 51 49 49 47 47 47 46 46 46 45 45 44 44 46
39 39 38 38 39 41 42 42 42 42 42 42 41 40 40 40 41 42 43 44 42 42 43 45 46 46 46 48 49 48 47 46 46 44 43 42 42 41 43 42 41 41 41
38 37 37 37 38 40 41 41 41 41 40 39 38 37 37 38 37 37 38 38 38 38 39 41 42 42 43 43 44 43 43 42 42 42 42 41 40 40 40 39 38 38 37
38 37 37 36 36 38 39 39 38 38 38 37 37 36 36 36 36 36 36 36 37 37 38 39 39 39 40 40 40 40 40 39 39 39 39 39 39 38 37 35 34 34 34
38 37 37 36 36 36 38 36 36 36 36 36 36 35 35 36 36 36 36 36 36 36 37 37 37 38 39 38 39 38 38 38 37 37 37 37 37 36 35 34 32 31 30
38 38 37 37 35 35 36 36 34 34 35 35 35 36 36 36 37 37 37 36 37 37 37 38 38 39 39 40 40 38 37 37 37 36 36 37 38 37 36 34 33 30 28
40 39 38 37 36 36 35 35 34 34 35 35 35 36 36 36 37 37 37 37 37 37 38 38 39 40 40 41 40 39 35 34 34 34 34 31 31 32 33 35 35 34 33
41 40 39 38 37 36 35 35 34 34 35 35 35 36 36 37 37 37 37 37 37 37 37 37 38 38 39 40 39 37 35 34 31 28 26 26 27 28 27 26 27 26 26
35 36 40 40 38 36 35 34 34 34 34 35 36 36 37 37 37 37 37 37 37 37 37 37 38 37 37 38 38 33 30 26 24 25 28 30 30 30 28 25 24 21 21
35 37 38 38 37 36 35 34 34 34 34 36 36 37 38 37 37 36 35 35 36 36 36 35 36 37 36 36 33 28 24 23 24 28 29 30 28 29 26 19 17 15 14
36 37 37 36 36 35 35 35 34 35 36 37 37 38 37 37 36 36 35 35 35 34 33 32 31 30 31 30 30 28 23 24 25 25 25 25 26 24 25 25 20 16 20
36 37 37 36 36 36 36 36 36 37 37 37 37 37 37 36 36 35 34 33 32 30 29 28 28 29 29 30 29 28 26 27 22 21 21 23 25 22 22 24 23 23 27
34 36 37 36 37 37 37 37 37 36 36 36 36 37 36 36 35 34 33 31 30 28 27 27 27 28 28 29 31 29 29 27 19 20 21 24 25 22 21 19 21 25 21
33 34 35 35 36 37 38 37 36 36 36 36 36 36 36 35 34 33 32 30 29 27 26 26 26 27 26 25 26 27 27 26 23 25 25 21 21 21 19 20 21 19 19
40 39 37 36 37 37 37 37 36 35 35 35 35 35 35 36 34 33 31 30 29 28 26 26 25 26 25 25 27 27 25 26 24 23 18 13 11 12 14 17 18 20 20
35 36 36 35 35 35 35 36 36 35 35 35 35 35 35 35 34 32 32 34 32 32 30 29 26 24 25 28 31 30 29 29 28 23 16 13 11 12 12 14 16 19 22

GFSMW_sfc_dewp_096.txt.gz
Dewpoint
41 43 44 48 58 63 62 62 65 66 68 68 67 66 66 67 67 66 65 64 62 62 62 61 60 60 60 60 60 59 58 58 58 57 56 56 56 56 56 57 56 55 55
41 43 43 45 51 61 62 64 62 66 67 67 66 66 66 66 67 67 67 66 65 64 62 62 62 61 60 61 60 59 58 57 58 55 56 53 54 55 55 55 55 55 54
41 43 45 45 47 57 64 64 64 65 66 66 66 65 65 64 64 64 66 67 66 66 64 63 62 62 61 61 60 59 59 57 57 57 55 54 52 54 53 53 53 52 52
45 45 43 42 43 46 63 64 63 64 64 65 65 63 63 62 63 64 64 66 66 66 65 64 63 63 62 61 61 60 59 58 57 57 56 57 55 53 52 53 49 48 47
42 44 43 43 45 47 49 61 64 63 64 62 63 64 63 64 64 65 64 63 63 63 64 64 64 64 63 62 62 60 60 58 57 58 58 57 56 54 53 53 54 52 48
38 41 44 42 42 44 44 50 60 63 64 64 64 63 64 62 63 63 64 64 63 62 62 62 63 63 62 62 61 61 60 59 59 59 58 57 56 55 53 53 55 54 55
38 38 39 39 39 43 44 45 50 57 63 64 64 64 64 64 63 63 63 63 63 63 64 63 62 62 62 62 61 61 61 61 60 59 58 58 57 57 55 54 54 54 53
37 38 38 41 41 42 44 44 48 55 59 61 62 64 64 64 63 64 63 62 62 62 62 63 64 64 63 63 63 63 62 61 61 60 60 59 58 58 57 56 55 50 50
34 35 38 39 40 42 42 44 47 51 52 56 53 52 54 55 54 53 54 54 53 53 55 57 58 59 60 62 62 62 62 61 61 61 60 59 59 58 57 56 55 54 50
32 34 36 39 41 41 43 44 45 46 47 47 49 48 49 48 48 47 47 48 50 51 53 54 54 55 56 57 59 61 61 61 59 58 59 55 52 52 54 55 54 52 52
36 36 38 39 41 42 43 43 44 44 45 45 45 45 45 46 47 48 48 49 50 51 52 52 52 53 53 54 56 57 55 55 52 51 51 50 50 49 49 51 50 50 50
39 39 39 39 40 41 42 42 43 43 44 44 43 43 43 44 45 45 46 47 46 47 48 49 49 49 50 51 52 51 50 49 48 47 49 46 45 46 45 46 46 47 46
39 38 38 39 40 41 41 42 42 42 41 41 41 41 42 42 42 42 43 43 43 44 44 45 46 46 47 47 47 48 46 46 46 46 45 44 44 43 44 44 44 43 41
38 38 38 38 39 40 40 40 41 41 41 40 40 40 40 40 40 40 41 41 41 42 42 42 43 43 44 45 45 44 43 43 42 43 43 42 43 43 42 40 39 38 38
38 38 38 37 38 39 39 39 39 39 39 39 40 39 39 39 39 39 39 39 39 39 39 40 40 41 42 41 43 43 43 42 41 41 40 40 39 38 37 37 36 36 35
39 38 38 38 37 38 39 38 38 38 38 38 39 38 38 38 39 39 39 39 39 39 39 39 40 40 39 40 41 41 40 39 39 39 39 38 38 37 36 35 33 32 34
39 39 39 39 38 38 38 38 37 36 37 38 37 37 38 38 39 39 38 39 39 39 40 40 40 41 41 41 41 40 36 35 35 37 37 35 34 35 34 36 35 34 33
40 41 40 40 39 38 37 37 36 36 37 38 37 38 38 38 39 39 39 39 39 39 39 39 40 40 40 41 40 39 37 36 34 33 32 32 31 30 30 27 28 27 26
40 40 41 42 41 39 38 37 35 36 36 37 37 38 38 39 39 39 40 39 38 39 39 39 39 38 38 40 39 36 33 31 28 27 27 27 27 30 29 27 26 23 26
37 38 39 39 39 40 38 37 36 35 35 36 37 38 39 39 39 39 39 39 39 37 38 38 37 38 37 38 37 34 30 26 24 28 30 31 27 27 23 17 16 14 17
37 38 38 38 38 39 38 37 37 37 37 37 37 38 39 39 39 39 38 38 37 36 36 35 35 35 35 34 34 29 24 23 25 26 25 26 28 28 27 21 18 15 17
37 38 38 38 38 38 38 38 39 39 38 38 38 38 38 38 38 38 37 36 35 34 33 31 30 30 30 31 31 28 25 26 23 22 24 26 27 24 25 25 24 26 26
35 36 37 37 37 38 38 38 39 38 37 37 37 38 37 37 36 36 35 33 33 32 30 29 28 28 29 27 30 29 29 27 19 20 21 25 25 23 22 20 22 26 23
36 35 35 36 36 37 38 38 38 37 36 36 37 37 37 36 36 35 34 33 32 31 29 28 27 27 28 28 28 27 28 26 21 24 25 25 24 23 20 19 23 21 20
41 41 38 36 36 37 38 38 37 37 36 36 36 36 36 37 35 35 34 33 32 32 29 28 27 27 26 27 29 27 25 23 22 25 22 18 17 17 17 16 15 17 18
36 37 38 38 38 38 37 37 36 36 36 35 36 36 36 36 35 34 33 35 34 35 34 31 28 27 27 29 31 31 29 29 28 20 15 13 12 12 10 12 14 16 20

GFSMW_sfc_dewp_099.txt.gz
Dewpoint
37 42 46 48 52 59 59 59 64 66 67 67 67 68 67 67 67 68 65 63 62 61 61 62 59 59 59 59 60 59 58 58 58 57 57 57 57 57 58 58 57 57 57
36 39 43 45 48 52 60 59 62 65 66 67 67 67 67 67 67 67 67 65 64 63 62 62 62 60 60 60 60 60 59 58 59 57 57 55 56 57 56 57 56 56 57
38 37 42 44 47 48 57 60 61 63 65 66 67 66 66 65 65 65 66 67 66 66 64 63 63 63 62 62 62 61 60 58 59 58 57 56 54 56 56 56 56 55 56
39 39 41 44 45 46 55 60 61 63 64 65 65 64 63 62 64 64 65 66 66 67 66 65 64 64 63 62 63 62 61 60 59 59 57 59 58 55 55 55 54 53 51
39 40 41 45 45 48 51 57 61 62 63 63 61 61 62 62 64 63 63 65 65 65 66 66 65 65 65 64 63 63 61 60 60 59 59 58 58 58 55 54 54 52 51
39 41 45 46 46 48 46 52 59 62 62 61 61 59 59 60 60 60 61 63 63 63 63 64 64 65 64 64 64 63 62 62 61 61 59 59 58 57 56 54 55 56 54
38 40 44 45 44 48 50 47 51 57 60 61 59 58 57 58 59 59 60 60 62 62 62 62 62 62 63 63 63 62 63 62 62 61 60 60 59 59 57 56 55 54 55
37 39 40 45 43 45 49 50 45 49 57 60 62 61 61 60 59 59 60 61 61 61 64 63 63 62 62 62 62 62 62 62 62 61 60 60 59 59 57 56 56 52 53
36 38 39 40 42 42 44 47 44 47 52 59 59 61 63 62 62 58 59 61 60 60 62 62 63 63 63 63 63 62 62 62 61 61 61 60 60 59 59 58 57 54 50
32 36 38 39 40 42 42 45 45 48 52 55 56 55 53 53 53 52 52 52 52 52 54 54 55 55 57 57 59 60 61 61 61 60 60 58 56 56 56 56 56 55 54
32 33 35 37 39 42 43 43 45 47 47 49 49 50 49 50 49 49 49 50 51 51 51 51 51 51 52 53 54 55 57 58 57 54 56 53 52 52 52 53 53 52 51
35 35 35 37 40 42 42 43 44 45 45 45 45 44 45 45 46 46 47 47 47 47 48 49 50 49 50 51 52 53 51 52 51 50 51 48 48 49 49 48 48 49 48
38 37 38 38 40 41 41 42 43 43 43 42 42 43 43 43 43 44 44 44 44 45 45 46 47 47 48 48 49 49 48 48 47 48 47 46 46 46 46 47 46 46 44
37 37 37 38 39 40 41 41 41 41 41 41 41 41 42 42 42 42 42 42 43 43 43 44 44 44 45 46 46 46 45 45 44 45 45 45 45 45 44 43 43 42 42
37 37 38 38 39 39 39 40 40 40 40 41 41 41 41 41 40 40 40 40 40 41 41 41 41 42 43 42 44 45 44 43 42 42 41 42 41 43 42 41 39 39 39
37 38 38 38 38 39 39 39 39 39 40 40 40 40 40 40 40 40 40 40 40 40 40 41 40 41 40 41 41 42 42 42 41 40 39 38 39 38 38 37 36 37 38
38 39 39 39 38 39 39 39 38 39 39 39 39 39 39 40 40 40 39 40 40 40 41 41 41 41 42 41 41 41 37 35 35 37 38 36 36 35 34 35 35 34 34
39 40 40 40 40 39 38 39 38 37 39 39 38 39 39 40 40 40 40 41 40 40 40 40 41 41 41 41 41 40 38 37 36 35 34 34 34 35 32 29 30 29 28
40 41 42 41 41 40 39 38 37 37 37 38 38 39 39 40 40 40 41 41 40 40 39 40 40 40 40 40 40 36 34 32 30 30 31 30 29 30 30 30 28 27 28
38 38 39 38 39 41 40 38 37 37 37 37 38 38 40 40 40 40 41 40 39 38 38 38 38 38 38 39 38 35 31 29 27 29 29 29 28 30 26 23 22 21 23
38 39 39 39 39 39 40 39 39 39 39 38 38 39 40 40 40 40 40 39 38 37 37 37 37 37 37 37 38 35 29 27 27 28 28 30 31 28 24 19 18 17 21
39 39 39 39 39 39 39 40 41 41 39 39 39 39 39 39 39 39 39 38 37 36 36 34 33 32 34 35 36 31 26 27 26 25 26 28 28 27 28 23 25 23 24
37 37 38 37 38 39 38 39 40 39 39 38 39 39 38 38 38 37 37 36 35 34 33 32 31 29 29 30 32 30 28 28 23 24 26 29 27 25 25 22 24 27 25
38 38 37 36 36 37 37 38 38 37 37 37 37 38 37 37 36 36 36 35 34 33 32 31 29 28 28 29 29 29 29 27 22 24 25 27 26 25 22 21 22 23 23
40 41 41 39 36 37 37 38 38 37 37 37 37 37 37 37 36 36 35 35 35 34 32 31 30 28 27 28 30 29 28 26 23 26 26 23 21 20 20 20 20 20 20
37 37 37 37 38 39 38 38 38 38 37 36 37 37 37 37 37 35 34 37 36 35 36 34 31 29 30 31 31 31 30 27 26 23 20 17 17 17 16 15 16 18 21

GFSMW_sfc_dewp_102.txt.gz
Dewpoint
40 45 47 50 52 57 60 61 65 66 67 66 65 66 66 66 66 67 67 64 60 59 60 61 58 59 59 59 59 59 57 57 57 56 55 55 56 57 57 58 57 56 57
35 44 46 49 54 59 58 62 65 66 66 65 66 67 66 66 66 66 67 67 64 63 62 62 61 58 59 59 59 59 58 58 58 56 55 54 55 56 56 57 57 56 56
34 42 44 47 48 55 60 60 64 64 66 66 66 65 65 65 64 65 65 66 67 66 64 63 62 61 60 60 60 60 59 57 58 57 56 53 52 55 56 55 56 55 55
36 37 42 47 47 54 60 61 62 63 64 65 65 64 63 62 63 63 64 65 66 66 66 64 63 63 63 62 62 61 60 59 58 58 58 57 56 54 53 54 54 52 50
38 39 42 46 47 51 57 60 63 63 63 63 63 62 61 61 62 62 63 64 64 64 64 65 65 64 64 64 63 62 61 60 60 59 58 58 58 58 56 53 52 50 49
36 40 43 46 48 49 51 58 61 61 62 61 61 60 60 60 59 59 60 61 62 62 62 63 64 64 64 63 63 62 62 62 61 61 60 59 57 56 56 53 53 53 50
35 40 44 46 47 46 46 51 59 59 60 59 60 59 60 60 59 58 58 59 61 61 61 62 62 62 63 63 63 62 61 61 61 60 60 60 60 59 57 54 53 53 50
34 41 44 46 47 49 47 45 46 52 60 58 58 58 58 58 58 58 58 58 60 61 63 62 62 62 62 62 62 62 62 62 61 61 61 60 60 60 57 56 55 51 52
36 39 41 46 43 47 49 47 48 46 51 59 58 59 59 58 58 58 58 59 59 60 61 62 62 62 62 62 62 61 61 61 61 61 61 60 60 60 59 57 56 54 48
34 38 40 41 43 43 47 47 46 45 50 59 58 58 56 58 57 56 54 54 54 55 58 59 59 59 59 59 60 60 60 60 60 60 60 59 58 58 57 56 55 55 52
33 37 39 40 41 43 44 44 46 48 50 52 53 52 53 51 52 52 53 53 53 53 54 54 55 54 54 54 53 53 54 54 54 55 56 56 55 54 53 54 53 52 52
33 33 35 39 41 42 43 44 46 46 47 47 47 47 47 48 48 49 50 50 48 48 49 50 49 49 50 50 51 51 51 50 51 52 52 51 50 49 49 49 49 48 49
37 37 38 40 40 41 42 44 44 45 44 44 44 44 44 44 45 45 45 45 45 45 46 47 47 48 48 48 48 49 48 49 49 49 49 48 48 47 47 47 46 46 46
37 37 38 39 40 41 42 42 42 42 42 42 42 42 43 42 42 43 43 43 44 44 44 44 44 44 45 45 46 46 46 45 45 45 46 46 46 46 46 45 45 43 42
36 37 38 39 40 40 41 41 41 41 41 41 42 41 41 41 41 41 41 41 41 41 41 41 41 42 42 41 43 45 44 43 42 42 42 42 43 45 44 42 40 40 40
37 38 38 39 39 39 39 40 40 40 41 41 41 41 40 40 41 40 40 40 40 40 40 40 40 41 40 42 42 42 40 41 41 39 39 40 41 41 41 41 40 39 36
38 38 38 38 39 39 39 39 39 40 40 40 40 40 40 40 40 40 40 40 40 40 40 40 41 40 40 41 41 42 37 35 35 37 38 37 37 37 36 38 38 37 37
39 39 39 39 39 39 39 39 39 39 40 39 39 39 40 40 40 40 40 40 39 39 39 39 39 39 40 42 41 41 38 38 37 36 35 35 35 35 31 31 29 28 29
40 40 41 41 40 39 39 38 38 38 39 39 39 39 40 40 40 40 39 39 38 37 37 38 38 37 40 41 40 37 35 33 33 33 34 33 32 35 32 29 28 27 28
39 39 39 39 41 40 39 38 37 37 37 39 39 39 40 40 39 39 38 39 39 38 38 37 35 37 37 40 39 35 32 30 29 29 32 32 30 32 31 25 25 26 26
39 39 39 39 39 39 40 38 38 37 38 38 39 40 40 39 39 38 37 37 39 38 37 36 34 34 36 38 39 36 30 30 29 30 29 29 31 28 23 23 19 20 25
40 40 39 39 39 39 39 39 39 39 39 39 39 39 38 39 39 37 37 38 38 37 36 35 34 34 35 37 38 36 32 30 28 27 27 30 31 29 25 24 24 25 25
37 38 37 38 38 39 38 39 39 39 38 38 38 38 38 38 38 38 37 37 36 36 35 33 32 31 31 32 36 35 30 29 25 25 28 31 29 27 28 25 27 26 24
39 39 37 36 36 37 37 37 37 38 37 37 37 38 38 37 37 37 36 35 35 34 33 32 31 30 30 29 30 31 29 30 25 27 27 30 28 26 25 22 23 26 25
39 41 40 38 36 36 38 38 38 37 37 37 37 37 37 38 36 36 36 35 35 35 33 32 31 30 29 29 30 30 29 27 24 26 25 25 24 24 22 20 22 23 21
37 37 37 37 36 37 38 38 38 38 37 37 37 37 37 37 37 36 35 37 37 37 38 36 33 31 33 34 33 33 32 31 28 25 24 22 22 21 20 19 18 19 22

GFSMW_sfc_dewp_105.txt.gz
Dewpoint
45 54 56 57 59 63 64 65 65 67 67 66 66 66 65 65 66 67 65 62 59 59 59 59 58 58 59 58 58 58 57 57 57 55 55 54 54 55 55 56 57 57 57
45 48 49 51 55 59 61 64 65 66 66 66 65 65 65 65 65 66 66 65 63 60 59 60 58 58 59 59 59 59 58 58 57 55 55 53 54 56 56 57 57 57 56
43 46 49 52 55 58 59 63 65 65 66 65 66 65 65 65 64 64 65 66 66 65 65 63 61 58 59 59 59 59 58 57 57 57 55 52 52 54 56 56 56 56 56
40 46 47 49 53 58 60 63 64 65 65 65 65 64 63 62 63 63 64 65 66 66 66 65 64 63 61 60 60 60 59 58 57 57 57 57 56 53 52 54 53 53 52
39 44 46 47 53 58 60 61 62 63 63 64 64 63 61 62 63 63 63 63 64 64 64 65 65 64 64 63 62 62 61 61 59 58 57 56 56 56 55 52 52 50 48
38 43 46 48 51 55 59 61 61 61 62 62 61 60 60 60 60 60 60 61 62 62 62 63 63 64 64 64 63 63 62 62 61 61 60 58 56 55 54 54 54 51 51
36 45 46 47 47 50 57 60 60 59 59 59 59 59 58 59 58 59 59 59 60 61 61 62 62 62 62 62 62 62 61 61 61 60 60 60 60 59 57 55 54 54 51
35 44 45 45 45 46 53 58 59 58 58 57 57 57 58 57 57 57 58 58 58 60 62 62 62 62 62 61 62 61 61 61 61 60 61 60 60 59 58 56 55 52 52
33 42 45 46 46 45 45 51 56 58 58 57 56 56 56 57 57 57 57 58 58 60 61 61 60 62 61 61 61 61 61 61 61 61 61 60 59 59 59 57 56 55 51
33 40 45 45 47 47 47 47 47 54 58 57 58 57 57 57 57 57 57 57 58 58 60 60 60 60 61 61 60 60 60 61 60 59 59 58 58 58 58 58 57 56 55
34 38 43 44 44 47 47 47 45 48 53 57 55 53 54 54 54 55 54 54 54 55 57 58 58 56 55 53 54 55 54 55 54 55 55 56 56 56 55 55 54 54 53
34 38 40 42 42 43 44 45 47 49 50 52 51 51 51 50 51 51 51 52 52 52 51 51 51 50 50 51 51 51 51 50 50 50 51 52 51 52 52 52 52 51 50
37 39 41 41 42 43 44 45 46 46 46 46 46 46 47 47 48 48 47 47 47 47 47 48 48 48 48 48 48 48 48 48 48 48 49 50 49 49 49 49 48 48 48
37 38 39 40 41 42 43 43 43 43 43 44 44 44 44 44 44 44 44 45 45 45 45 45 45 45 45 46 46 45 45 45 45 46 47 47 47 48 47 47 47 46 46
37 37 39 40 41 41 42 42 41 41 42 42 42 42 42 42 42 42 42 42 42 42 42 42 42 42 41 41 42 44 43 42 43 43 42 42 44 46 47 45 44 44 42
37 38 39 40 40 40 41 41 41 41 41 41 41 41 40 40 40 40 40 40 40 40 41 40 40 40 41 42 42 42 41 40 39 38 38 40 42 43 43 43 43 42 40
37 38 39 39 39 40 40 40 40 40 41 40 40 40 40 40 40 40 40 40 40 40 40 40 40 39 39 42 42 42 37 35 35 38 39 38 39 39 39 40 40 40 40
38 38 38 38 39 39 39 39 39 40 40 40 40 40 40 40 40 40 40 39 39 38 38 38 38 38 40 42 41 40 38 38 38 38 37 36 35 35 34 31 30 30 30
39 40 40 39 39 39 39 38 38 39 39 39 39 39 40 40 40 39 38 37 37 36 36 37 37 36 39 41 40 38 35 35 35 35 35 35 35 37 34 30 28 28 29
39 39 39 40 39 39 39 37 37 38 39 39 39 39 40 40 39 38 37 36 36 37 38 38 34 37 37 40 40 36 33 32 32 32 35 35 33 37 33 28 27 26 27
39 39 39 39 39 39 39 38 37 37 38 39 39 39 39 39 38 38 37 37 37 38 38 37 36 36 35 39 39 37 31 31 30 31 31 32 35 35 32 29 25 25 26
40 40 39 39 39 40 40 39 38 38 39 39 39 38 38 39 38 37 36 36 38 37 37 36 35 35 36 38 39 39 35 33 30 30 30 30 34 29 25 24 23 26 28
38 38 38 38 38 38 39 39 38 38 38 38 37 37 37 37 38 38 38 37 37 37 36 35 34 33 33 34 39 39 36 32 29 28 29 33 32 31 26 26 25 27 23
39 39 37 36 36 37 37 37 38 38 37 36 37 38 38 38 37 38 38 37 36 36 35 34 33 33 32 30 33 35 34 32 30 29 30 31 30 28 27 24 25 26 24
39 40 39 38 36 36 37 38 37 37 37 37 37 38 38 38 37 37 37 36 36 35 34 34 33 32 32 31 31 33 30 29 26 26 27 28 26 24 23 22 21 24 26
37 37 37 36 35 36 36 37 38 38 37 37 37 37 37 37 37 36 36 37 38 38 38 37 35 33 35 35 35 34 34 32 30 25 24 24 25 24 23 21 20 22 24

GFSMW_sfc_dewp_108.txt.gz
Dewpoint
47 50 60 62 63 64 65 66 65 66 66 66 66 65 64 64 64 64 61 61 60 60 60 59 59 60 59 59 58 57 57 56 56 55 54 55 53 53 54 53 55 56 57
46 50 58 59 62 63 64 65 65 66 66 66 66 66 65 65 65 65 63 62 60 61 59 59 58 59 59 58 58 58 57 57 57 55 54 52 53 56 55 56 56 56 57
45 46 55 58 59 61 62 64 64 65 65 66 65 65 65 64 64 64 64 65 64 62 62 61 58 58 59 59 59 59 58 57 57 56 54 51 50 53 55 55 56 56 56
44 45 52 54 57 59 60 63 64 65 66 66 65 64 63 63 63 64 64 64 65 65 64 64 63 61 60 60 60 60 59 58 56 57 57 56 55 53 52 54 53 53 54
46 44 50 53 55 58 59 62 63 64 63 63 63 63 62 62 63 64 64 63 63 64 65 65 64 64 63 62 62 62 61 60 59 57 57 56 56 55 54 53 53 50 48
38 42 49 52 56 57 58 61 62 62 63 62 62 61 61 61 61 62 61 61 62 62 63 64 64 64 64 63 63 63 62 62 61 60 60 58 56 56 55 54 54 51 50
39 45 47 52 54 56 58 59 60 61 61 60 60 60 60 60 59 59 60 60 61 61 61 62 61 62 62 62 62 62 62 61 61 61 60 60 59 58 57 55 55 52 50
43 45 47 51 54 56 57 58 59 58 59 58 58 58 58 58 58 58 59 59 59 59 60 60 60 61 61 61 61 61 61 61 60 60 60 60 60 60 59 58 56 52 51
41 45 46 46 50 56 57 58 58 57 57 57 56 56 56 56 56 56 56 57 57 58 59 60 60 60 60 60 60 60 60 60 60 60 60 60 60 60 60 59 56 55 52
37 44 45 45 46 53 54 56 57 57 56 55 55 55 55 55 55 56 56 56 56 57 58 59 59 59 60 60 60 59 60 59 59 60 60 60 59 58 58 58 56 56 56
35 44 45 45 45 46 48 50 50 54 55 56 55 55 55 55 55 55 56 56 56 57 57 59 58 58 58 57 57 56 56 56 55 55 55 56 56 56 56 55 55 55 53
34 43 45 45 46 46 46 47 46 50 53 54 53 53 53 54 54 54 53 53 53 53 54 55 54 52 51 51 52 51 52 52 51 50 50 50 50 52 52 52 53 53 52
37 40 42 43 43 45 45 46 48 49 51 52 51 50 49 49 49 50 49 49 48 48 50 50 49 49 49 48 48 47 47 47 47 46 47 48 49 49 50 50 50 50 49
39 40 41 42 43 44 45 45 46 47 46 47 47 46 46 46 47 46 46 45 45 45 46 46 46 45 45 46 46 45 44 44 44 44 45 46 46 48 48 48 48 48 48
38 39 40 41 42 43 43 43 43 43 44 44 43 43 44 44 43 43 43 43 43 43 43 42 42 42 42 41 42 44 43 42 42 41 42 43 43 45 47 46 46 46 45
37 39 40 41 41 42 42 41 41 41 42 42 41 41 41 41 41 41 41 41 40 40 41 40 41 40 41 43 43 43 40 40 40 39 38 39 41 42 44 45 45 44 43
38 39 39 40 41 41 41 41 41 41 41 41 40 40 40 40 40 40 40 40 39 39 39 39 39 39 39 42 42 41 38 35 34 35 37 39 39 39 40 41 41 41 41
37 38 39 39 40 40 40 40 40 41 41 40 40 40 40 40 40 40 39 38 38 38 37 37 37 37 39 42 41 40 39 39 38 37 37 37 36 36 35 32 32 32 30
39 39 39 39 39 39 39 39 39 40 40 39 39 40 40 39 39 38 37 37 37 36 35 36 36 36 37 41 40 38 36 36 36 36 36 36 36 38 35 31 30 30 31
39 39 40 39 39 39 39 38 38 39 39 39 39 39 40 39 38 37 36 36 36 36 36 36 35 36 35 40 40 37 34 32 33 33 35 37 35 38 35 28 27 27 29
39 39 39 39 39 39 38 38 37 38 39 39 39 39 39 38 38 37 36 36 36 36 36 37 37 34 35 37 41 39 33 32 31 31 32 33 36 37 36 31 26 25 28
40 39 38 38 39 39 39 38 38 38 38 39 39 38 37 39 38 36 35 35 35 35 36 36 36 36 36 38 39 40 38 34 31 31 31 31 36 37 33 29 28 28 29
37 38 37 37 37 38 39 39 38 38 38 38 37 37 37 37 37 36 35 35 35 35 36 35 35 34 35 35 38 39 40 39 32 30 31 33 34 32 28 27 25 28 24
39 38 36 36 36 37 37 38 38 38 37 36 36 37 36 36 36 38 38 37 37 37 36 34 34 34 34 33 33 35 38 38 33 31 31 32 33 32 30 26 26 25 23
38 39 38 37 36 36 37 37 37 38 37 38 38 38 38 39 38 37 37 37 37 37 35 35 34 33 33 33 34 34 34 32 30 28 28 29 28 26 25 24 22 25 26
37 37 37 35 35 35 36 36 37 37 37 37 37 37 37 37 38 37 36 38 39 38 39 39 36 34 36 37 37 37 36 36 36 28 24 26 27 25 24 23 22 22 25

GFSMW_sfc_dewp_111.txt.gz
Dewpoint
47 48 49 58 63 64 66 67 67 67 66 66 65 64 63 63 62 61 61 63 63 62 62 61 61 61 60 59 59 58 57 56 56 55 55 55 54 53 53 53 54 55 57
46 46 49 59 63 63 64 65 66 66 66 66 66 65 64 63 63 63 62 62 62 61 61 60 61 60 60 59 58 57 57 57 56 55 54 52 52 55 55 54 54 54 56
45 46 46 51 60 63 64 64 65 66 66 66 66 64 63 64 64 63 63 63 62 61 61 60 60 59 59 59 58 58 57 56 57 56 54 50 49 52 55 55 56 56 56
47 47 45 49 58 62 63 64 65 65 66 66 65 63 61 60 63 64 64 64 63 62 63 61 59 59 60 59 59 59 58 57 56 57 57 56 55 52 52 54 53 52 54
48 47 46 49 55 60 63 63 64 64 65 65 64 63 62 62 64 64 64 64 64 64 63 63 63 62 61 61 61 61 60 60 59 58 57 56 56 56 54 52 53 51 49
47 46 47 51 55 58 60 61 63 63 64 64 64 62 62 62 63 63 63 63 63 63 63 63 63 63 63 62 62 62 62 61 61 60 59 58 56 55 55 54 54 52 52
47 44 48 51 55 56 58 60 61 61 63 63 63 63 62 63 63 63 63 62 62 61 62 63 63 63 63 63 63 62 62 62 62 61 60 60 59 58 57 55 55 54 54
45 39 47 52 55 56 57 59 61 60 60 61 60 61 61 61 61 60 60 60 59 60 61 61 61 61 61 61 61 61 61 60 59 59 60 60 60 60 59 57 56 53 52
37 44 48 52 54 55 57 58 58 59 59 58 58 58 58 58 58 57 57 58 57 58 59 59 59 60 59 59 59 59 59 59 59 59 59 59 59 60 59 59 58 56 52
38 45 46 49 53 55 55 55 56 57 56 56 56 56 56 56 56 56 56 56 56 56 57 58 58 58 58 59 58 58 58 58 58 58 58 58 59 58 58 58 58 57 56
35 44 45 46 50 52 53 54 55 55 54 54 54 54 54 55 55 54 54 55 55 57 56 58 58 57 57 58 57 57 56 56 55 55 54 54 54 54 54 55 55 55 55
35 44 45 45 46 49 50 51 51 53 53 54 53 53 54 54 53 53 53 53 54 54 55 56 56 55 53 52 52 51 51 51 51 50 51 49 49 50 51 51 52 52 53
34 43 44 45 45 47 48 48 48 50 52 53 53 52 52 52 51 51 51 50 50 49 50 50 50 49 49 48 48 48 48 48 46 45 45 45 46 47 48 49 49 50 50
39 41 43 43 45 45 45 46 47 48 49 50 50 49 48 48 48 48 47 46 46 46 46 46 46 45 45 45 45 44 44 44 43 43 43 43 44 43 45 47 48 48 48
39 40 41 42 43 44 44 44 45 46 46 46 46 45 45 45 44 44 44 44 44 43 43 43 42 42 41 42 41 41 41 41 41 40 41 41 42 44 45 46 46 46 45
38 40 41 43 42 43 42 42 42 43 44 44 43 43 43 43 42 42 42 41 41 41 41 40 40 40 42 44 44 41 38 38 38 37 37 38 40 40 43 44 45 45 43
38 39 40 41 42 42 42 41 41 42 42 41 41 41 41 41 40 40 40 40 39 39 38 38 39 38 39 43 43 41 38 36 36 38 36 38 38 39 39 38 38 38 39
38 39 39 40 41 41 41 41 41 41 41 40 40 40 40 40 40 39 39 38 37 37 37 37 37 37 39 42 41 41 38 39 39 38 37 37 36 36 37 34 33 33 34
38 38 39 40 40 40 40 40 40 40 40 39 39 40 40 39 39 38 37 36 37 36 35 36 35 35 36 41 40 39 36 34 34 35 36 36 36 37 37 32 31 31 32
39 40 39 39 39 39 39 39 39 39 39 39 39 40 39 39 38 37 37 36 35 36 36 35 34 36 34 39 40 39 35 32 32 32 33 37 36 37 37 30 28 28 30
39 39 39 39 39 39 39 38 38 39 39 39 39 39 39 38 38 37 36 36 35 35 34 36 38 37 34 35 39 41 35 34 33 31 31 33 36 37 38 34 27 26 28
39 39 38 38 38 39 38 38 37 38 39 39 38 38 38 39 38 36 35 35 35 34 37 37 36 35 34 37 39 40 40 36 32 32 32 32 34 37 37 34 32 30 30
37 38 37 37 37 38 39 38 38 38 38 38 37 37 37 37 36 35 35 34 34 34 33 35 35 33 34 35 38 39 40 41 36 32 32 34 34 36 34 30 28 27 26
39 38 37 36 36 37 37 38 38 38 37 37 36 36 36 36 36 37 36 35 34 34 35 35 34 35 34 34 34 34 36 39 39 34 32 33 33 34 31 29 26 25 24
38 38 37 36 36 35 37 37 37 37 37 36 36 36 37 37 36 37 38 38 37 37 34 33 32 32 31 32 35 35 34 35 35 32 28 28 30 29 28 26 23 25 25
37 37 36 35 34 34 35 36 37 37 36 36 37 38 38 37 37 37 37 39 39 39 39 39 37 33 37 38 38 38 38 38 37 33 26 26 28 27 27 25 23 22 24

GFSMW_sfc_dewp_114.txt.gz
Dewpoint
44 48 50 54 61 64 62 66 66 67 66 65 64 63 62 62 62 63 64 63 63 62 61 60 60 60 58 57 58 58 57 56 56 55 55 55 55 54 53 52 54 55 57
44 46 47 52 62 61 64 64 65 66 66 65 65 64 63 63 62 62 63 64 63 62 62 61 61 60 60 59 58 58 56 57 56 55 53 52 52 53 55 54 53 53 55
45 45 46 48 55 62 63 64 62 66 66 66 65 64 64 63 62 61 61 62 63 63 62 62 61 61 61 60 59 58 57 56 56 56 54 51 50 52 54 54 55 55 55
47 46 46 46 51 60 63 64 65 66 66 66 65 63 62 62 63 62 62 62 62 62 62 61 61 61 61 60 59 59 58 58 57 57 57 56 54 54 52 54 53 53 55
47 45 46 47 53 59 61 63 63 65 65 65 65 63 61 62 63 63 62 62 63 63 63 62 61 61 61 60 61 60 59 60 58 58 57 57 56 56 54 52 54 52 50
47 47 47 47 54 59 59 59 62 63 64 64 63 60 59 59 62 62 63 63 63 63 63 63 63 63 62 61 61 61 61 60 59 59 59 57 56 56 55 54 54 54 53
46 47 45 46 54 58 58 57 60 59 62 63 62 61 60 60 61 62 62 62 62 62 63 63 63 63 63 63 62 61 61 61 61 61 61 61 60 59 57 56 55 54 55
46 47 44 44 54 56 59 59 59 59 60 62 62 61 61 61 62 61 62 63 63 63 63 63 63 63 63 62 62 61 61 60 60 59 59 59 59 60 59 57 56 53 53
45 44 43 46 54 56 58 60 60 60 61 61 61 62 62 62 61 62 62 62 60 60 61 61 61 61 60 59 60 58 57 58 57 58 58 58 58 59 59 58 58 55 52
42 42 45 48 54 56 57 57 58 58 59 58 59 59 59 59 58 58 58 57 57 58 58 58 58 58 58 58 58 57 57 57 57 58 57 58 57 57 57 57 57 57 56
35 39 45 48 53 54 56 56 56 56 55 56 56 57 57 56 56 56 55 55 55 56 55 56 56 56 56 57 57 57 57 57 55 53 52 51 51 51 52 52 52 53 54
34 41 45 46 50 51 53 54 53 53 53 53 54 54 55 54 54 54 54 54 54 54 54 55 56 56 54 54 55 53 51 51 51 50 49 48 48 48 48 48 49 50 51
33 41 44 46 48 50 50 50 51 52 52 52 52 52 53 53 52 52 52 52 52 51 51 51 50 50 50 49 49 49 49 47 46 45 45 44 44 44 45 46 46 48 49
39 40 43 44 45 46 47 47 48 50 51 51 51 50 49 50 49 49 48 48 48 48 47 47 46 46 46 45 45 44 43 43 43 42 42 42 41 41 41 43 43 45 47
39 40 41 43 43 44 44 45 46 47 48 49 48 47 46 46 45 45 45 45 45 44 44 43 42 42 42 42 41 42 41 40 39 39 39 39 41 43 43 43 41 43 45
39 41 41 43 43 43 42 43 44 44 45 45 44 44 44 43 43 43 42 42 41 41 41 40 40 40 43 45 44 40 39 40 39 39 37 37 39 40 42 43 43 44 43
39 40 41 42 42 43 42 42 41 42 42 42 42 42 42 41 41 41 41 40 39 39 38 38 39 38 40 44 43 41 38 36 37 38 35 37 38 37 36 37 37 36 38
38 39 40 41 41 41 41 41 41 41 41 40 40 40 40 40 40 39 39 38 37 37 37 37 37 37 40 43 42 40 38 39 38 37 36 35 35 35 36 33 32 32 34
38 38 40 39 40 40 40 40 40 40 40 39 39 39 39 38 38 37 37 36 36 35 35 36 35 35 36 42 41 38 34 33 33 34 34 35 34 37 38 32 30 30 31
39 39 39 39 39 39 39 39 39 39 39 39 39 39 39 38 37 37 36 35 35 35 36 35 34 37 34 39 40 39 34 31 32 33 33 37 36 37 38 32 29 28 29
39 39 39 38 38 38 39 38 38 38 39 39 39 38 38 38 37 36 36 36 35 35 35 35 36 37 34 34 40 40 35 35 34 33 33 33 36 38 39 36 28 27 27
38 38 38 37 38 39 38 38 36 37 38 39 38 38 37 38 37 36 35 35 35 35 36 37 36 37 34 38 39 40 41 38 34 33 33 33 34 36 38 36 34 31 30
37 37 36 36 36 37 38 38 37 38 37 37 37 36 36 36 36 35 35 35 35 34 33 35 35 35 33 34 38 39 40 40 38 34 34 34 34 35 36 35 30 28 28
38 38 37 37 36 37 37 37 37 37 37 36 36 36 36 36 36 36 36 35 34 34 34 34 33 34 35 35 35 34 36 39 39 38 35 33 33 34 34 31 27 26 26
37 37 37 36 36 36 37 37 37 37 36 36 36 36 36 37 36 37 37 36 37 37 36 34 33 33 33 32 35 34 33 34 36 35 30 29 30 30 30 28 26 24 25
38 37 36 34 34 34 34 35 36 37 36 36 36 37 37 37 37 37 37 39 39 40 40 39 36 35 36 37 38 38 38 38 39 35 29 29 29 28 28 27 26 24 24

GFSMW_sfc_dewp_117.txt.gz
Dewpoint
43 46 47 50 54 59 56 65 66 66 65 64 64 63 62 62 63 63 62 63 62 62 62 61 60 60 59 59 59 59 58 58 57 57 57 57 57 56 56 54 54 56 58
43 46 48 49 53 57 60 64 66 65 65 64 64 64 63 64 63 64 62 62 62 62 61 60 60 60 59 58 59 59 58 58 58 57 57 56 55 54 56 56 54 54 56
43 45 47 49 51 59 62 63 65 65 65 65 65 65 64 63 63 63 64 64 63 63 62 61 60 59 59 58 58 59 59 59 58 58 57 54 51 53 56 56 56 54 54
46 46 48 47 51 60 61 62 62 64 66 65 64 63 62 61 63 62 63 64 64 63 63 63 62 61 62 61 61 61 60 60 59 58 57 57 55 55 53 56 55 55 55
47 47 47 48 55 62 62 60 60 64 65 66 65 64 63 63 64 63 62 63 63 63 63 63 63 62 62 62 62 61 60 60 60 59 59 58 58 57 56 55 54 54 52
47 48 48 48 59 61 62 62 60 60 62 62 63 63 60 62 62 63 62 62 63 63 63 62 62 62 62 62 62 62 61 61 61 61 60 59 57 57 56 55 55 55 54
47 47 45 53 57 58 59 58 58 60 62 63 61 60 59 59 61 62 62 62 62 62 63 63 63 63 63 62 62 62 62 62 62 61 61 61 60 60 57 57 55 55 56
47 48 44 52 57 57 57 56 57 59 61 61 61 60 60 60 60 62 62 62 62 62 63 63 63 63 63 63 63 63 62 62 60 60 60 59 59 59 59 57 56 53 54
48 47 45 51 57 57 57 56 56 57 59 60 61 60 60 60 61 61 62 62 62 62 63 63 63 63 63 63 62 61 61 60 60 60 60 59 59 59 59 59 58 56 52
47 46 49 51 56 57 59 59 58 57 59 60 61 61 61 62 61 62 61 60 60 61 62 62 62 61 60 60 60 59 59 59 59 59 59 57 55 55 55 55 56 56 56
39 44 47 53 56 57 58 58 58 58 59 59 59 58 59 59 59 60 59 59 59 60 60 60 60 59 59 59 58 58 58 57 56 55 53 51 51 52 51 52 52 52 53
36 44 46 52 54 55 55 56 56 56 57 57 57 57 57 57 57 56 56 56 56 56 56 57 57 57 57 58 58 55 55 54 52 50 49 48 48 48 48 49 49 51 51
37 44 46 49 52 53 53 54 54 55 55 55 55 55 55 55 55 54 54 54 54 54 55 56 56 54 53 53 54 53 50 49 48 47 46 45 45 45 46 47 47 47 48
39 41 43 45 48 50 50 52 53 53 53 53 53 53 53 53 52 52 51 51 51 51 51 50 50 49 48 48 47 46 46 45 45 44 44 44 44 44 44 45 45 46 45
40 41 42 44 45 46 47 48 50 52 52 51 51 50 50 50 48 48 47 47 48 47 46 45 44 44 45 44 44 44 43 43 43 42 41 42 42 43 44 44 44 43 43
40 42 42 44 43 44 45 46 47 48 50 50 48 47 47 46 46 45 44 44 44 44 43 42 42 43 44 44 44 42 42 41 41 41 40 40 40 41 43 42 42 42 42
39 40 41 42 43 43 44 44 44 45 45 45 44 44 44 44 43 43 42 42 42 41 41 41 42 43 44 44 43 42 40 38 39 41 39 39 38 38 38 38 37 37 38
38 39 40 41 41 41 41 42 42 42 42 43 43 43 42 42 42 41 41 40 40 40 40 40 40 42 43 43 42 41 40 40 40 39 39 38 38 37 37 36 35 34 34
39 39 39 40 40 40 41 41 41 41 41 41 41 41 41 40 40 40 40 39 39 39 39 39 39 41 42 43 42 39 37 37 37 36 37 37 37 37 39 35 34 32 33
39 39 39 39 39 39 40 40 39 40 40 40 40 40 40 40 39 39 38 38 38 38 38 37 37 38 39 42 41 39 36 35 35 35 35 36 38 37 39 35 33 31 30
39 39 38 38 39 39 39 39 39 39 40 40 40 40 40 39 39 38 38 38 38 38 37 37 38 38 37 37 41 41 37 36 35 35 35 34 36 38 39 38 32 30 27
38 38 37 37 38 39 39 38 38 38 39 40 39 39 39 39 38 38 37 37 37 37 37 38 38 38 37 38 39 41 40 39 36 35 34 34 35 36 37 38 36 34 31
37 37 37 36 37 38 39 38 38 38 38 38 38 38 38 38 38 37 37 37 37 37 37 37 37 37 36 36 39 40 41 41 38 36 35 35 35 35 37 38 36 30 29
39 38 37 36 36 37 37 37 37 37 37 37 37 37 37 37 37 37 37 37 36 36 36 35 36 36 36 36 36 37 38 40 41 40 38 37 35 35 35 35 30 27 27
37 37 36 36 36 36 37 37 37 37 37 36 37 37 37 38 37 37 37 37 37 37 36 36 36 35 35 35 36 36 34 35 36 37 33 31 31 32 32 31 29 26 25
38 37 36 36 35 34 34 35 36 37 36 36 37 37 37 37 37 37 37 40 40 40 40 39 37 36 37 37 38 38 39 38 38 36 32 31 31 30 30 29 29 27 27